<?xml version="1.0" encoding="UTF-8" standalone="no" ?>
<gpx xmlns="http://www.topografix.com/GPX/1/1" xmlns:xsi="http://www.w3.org/2001/XMLSchema-instance" xsi:schemaLocation="http://www.topografix.com/GPX/1/1 http://www.topografix.com/GPX/1/1/gpx.xsd" version="1.1" creator="VisuGPX - https://www.visugpx.com">
  <metadata>
    <name>Sisteron-Sisteron J2</name>
    <desc><![CDATA[J2, fait le 05 mai 2021 après confinement 
Boucle de Sisteron à Sisteron sur 2 jours 
Départ Montbrun les bains, superbe route le long du Toulourenc, route des gorges d'Aulan, puis le col d'Aulan à 845m, direction Séderon, suivre la D546, le Col (village) à 889m, après Séderon, passage au col de la Pigière 968m. Ensuite ce n'est que du bonheur descente jusqu'à Sisteron par la vallée du Jabron.
Environ 850m de dénivelé positif.]]></desc>
  </metadata>
  <trk>
    <name><![CDATA[2021-05-05 J2 Montbrun les B - Sisteron 63km]]></name>
    <trkseg>
      <trkpt lat="44.17585" lon="5.44144">
        <ele>636.435852</ele>
        <time>2021-05-05T07:05:03Z</time>
      </trkpt>
      <trkpt lat="44.17584" lon="5.44138">
        <ele>636.027222</ele>
        <time>2021-05-05T07:05:04Z</time>
      </trkpt>
      <trkpt lat="44.17577" lon="5.44095">
        <ele>635.999451</ele>
        <time>2021-05-05T07:05:11Z</time>
      </trkpt>
      <trkpt lat="44.17575" lon="5.44094">
        <ele>634.972961</ele>
        <time>2021-05-05T07:05:12Z</time>
      </trkpt>
      <trkpt lat="44.17573" lon="5.44096">
        <ele>633.463928</ele>
        <time>2021-05-05T07:05:13Z</time>
      </trkpt>
      <trkpt lat="44.17572" lon="5.441">
        <ele>632.58136</ele>
        <time>2021-05-05T07:05:14Z</time>
      </trkpt>
      <trkpt lat="44.17572" lon="5.44105">
        <ele>632.217224</ele>
        <time>2021-05-05T07:05:15Z</time>
      </trkpt>
      <trkpt lat="44.17572" lon="5.44111">
        <ele>631.977417</ele>
        <time>2021-05-05T07:05:16Z</time>
      </trkpt>
      <trkpt lat="44.17573" lon="5.44117">
        <ele>631.870605</ele>
        <time>2021-05-05T07:05:17Z</time>
      </trkpt>
      <trkpt lat="44.17579" lon="5.44186">
        <ele>630.509399</ele>
        <time>2021-05-05T07:05:28Z</time>
      </trkpt>
      <trkpt lat="44.17584" lon="5.44243">
        <ele>625.170349</ele>
        <time>2021-05-05T07:05:40Z</time>
      </trkpt>
      <trkpt lat="44.17587" lon="5.4427">
        <ele>622.518921</ele>
        <time>2021-05-05T07:05:45Z</time>
      </trkpt>
      <trkpt lat="44.17589" lon="5.44275">
        <ele>622.587402</ele>
        <time>2021-05-05T07:05:46Z</time>
      </trkpt>
      <trkpt lat="44.17599" lon="5.44341">
        <ele>622.041992</ele>
        <time>2021-05-05T07:05:58Z</time>
      </trkpt>
      <trkpt lat="44.17604" lon="5.44409">
        <ele>622.614624</ele>
        <time>2021-05-05T07:06:11Z</time>
      </trkpt>
      <trkpt lat="44.17606" lon="5.44446">
        <ele>621.34552</ele>
        <time>2021-05-05T07:06:19Z</time>
      </trkpt>
      <trkpt lat="44.17608" lon="5.44448">
        <ele>621.889099</ele>
        <time>2021-05-05T07:06:20Z</time>
      </trkpt>
      <trkpt lat="44.17609" lon="5.44449">
        <ele>622.43103</ele>
        <time>2021-05-05T07:06:21Z</time>
      </trkpt>
      <trkpt lat="44.17611" lon="5.4445">
        <ele>622.861267</ele>
        <time>2021-05-05T07:06:22Z</time>
      </trkpt>
      <trkpt lat="44.1761" lon="5.44453">
        <ele>622.253784</ele>
        <time>2021-05-05T07:06:25Z</time>
      </trkpt>
      <trkpt lat="44.17597" lon="5.44456">
        <ele>617.446472</ele>
        <time>2021-05-05T07:06:31Z</time>
      </trkpt>
      <trkpt lat="44.17582" lon="5.4445">
        <ele>612.03363</ele>
        <time>2021-05-05T07:06:34Z</time>
      </trkpt>
      <trkpt lat="44.17578" lon="5.44447">
        <ele>611.38623</ele>
        <time>2021-05-05T07:06:35Z</time>
      </trkpt>
      <trkpt lat="44.17565" lon="5.44421">
        <ele>609.920288</ele>
        <time>2021-05-05T07:06:45Z</time>
      </trkpt>
      <trkpt lat="44.17553" lon="5.4436">
        <ele>610.245422</ele>
        <time>2021-05-05T07:06:59Z</time>
      </trkpt>
      <trkpt lat="44.17545" lon="5.44289">
        <ele>611.830627</ele>
        <time>2021-05-05T07:07:15Z</time>
      </trkpt>
      <trkpt lat="44.17543" lon="5.44236">
        <ele>612.845886</ele>
        <time>2021-05-05T07:07:26Z</time>
      </trkpt>
      <trkpt lat="44.17539" lon="5.44219">
        <ele>612.03717</ele>
        <time>2021-05-05T07:07:34Z</time>
      </trkpt>
      <trkpt lat="44.17537" lon="5.44218">
        <ele>611.796387</ele>
        <time>2021-05-05T07:07:35Z</time>
      </trkpt>
      <trkpt lat="44.17532" lon="5.44218">
        <ele>610.394531</ele>
        <time>2021-05-05T07:07:46Z</time>
      </trkpt>
      <trkpt lat="44.17538" lon="5.44217">
        <ele>611.825317</ele>
        <time>2021-05-05T07:08:00Z</time>
      </trkpt>
      <trkpt lat="44.17532" lon="5.44219">
        <ele>610.413147</ele>
        <time>2021-05-05T07:08:13Z</time>
      </trkpt>
      <trkpt lat="44.17531" lon="5.44218">
        <ele>610.296265</ele>
        <time>2021-05-05T07:08:40Z</time>
      </trkpt>
      <trkpt lat="44.17532" lon="5.44219">
        <ele>610.436096</ele>
        <time>2021-05-05T07:09:18Z</time>
      </trkpt>
      <trkpt lat="44.17532" lon="5.44222">
        <ele>610.301392</ele>
        <time>2021-05-05T07:09:58Z</time>
      </trkpt>
      <trkpt lat="44.17532" lon="5.44221">
        <ele>610.460266</ele>
        <time>2021-05-05T07:10:17Z</time>
      </trkpt>
      <trkpt lat="44.17533" lon="5.44216">
        <ele>610.809753</ele>
        <time>2021-05-05T07:10:50Z</time>
      </trkpt>
      <trkpt lat="44.17534" lon="5.44208">
        <ele>611.18811</ele>
        <time>2021-05-05T07:11:09Z</time>
      </trkpt>
      <trkpt lat="44.17534" lon="5.44204">
        <ele>611.112244</ele>
        <time>2021-05-05T07:11:29Z</time>
      </trkpt>
      <trkpt lat="44.17534" lon="5.44203">
        <ele>611.108826</ele>
        <time>2021-05-05T07:11:45Z</time>
      </trkpt>
      <trkpt lat="44.17524" lon="5.44166">
        <ele>608.832031</ele>
        <time>2021-05-05T07:11:56Z</time>
      </trkpt>
      <trkpt lat="44.17501" lon="5.44157">
        <ele>602.153625</ele>
        <time>2021-05-05T07:12:05Z</time>
      </trkpt>
      <trkpt lat="44.17484" lon="5.44164">
        <ele>599.457275</ele>
        <time>2021-05-05T07:12:11Z</time>
      </trkpt>
      <trkpt lat="44.1748" lon="5.44163">
        <ele>598.826782</ele>
        <time>2021-05-05T07:12:12Z</time>
      </trkpt>
      <trkpt lat="44.17476" lon="5.44161">
        <ele>598.229004</ele>
        <time>2021-05-05T07:12:13Z</time>
      </trkpt>
      <trkpt lat="44.17473" lon="5.44157">
        <ele>597.628418</ele>
        <time>2021-05-05T07:12:14Z</time>
      </trkpt>
      <trkpt lat="44.17471" lon="5.44153">
        <ele>597.266052</ele>
        <time>2021-05-05T07:12:15Z</time>
      </trkpt>
      <trkpt lat="44.1747" lon="5.44148">
        <ele>596.968689</ele>
        <time>2021-05-05T07:12:16Z</time>
      </trkpt>
      <trkpt lat="44.17469" lon="5.44142">
        <ele>596.637512</ele>
        <time>2021-05-05T07:12:17Z</time>
      </trkpt>
      <trkpt lat="44.17468" lon="5.44123">
        <ele>595.815063</ele>
        <time>2021-05-05T07:12:20Z</time>
      </trkpt>
      <trkpt lat="44.17463" lon="5.44069">
        <ele>592.254578</ele>
        <time>2021-05-05T07:12:29Z</time>
      </trkpt>
      <trkpt lat="44.17461" lon="5.44066">
        <ele>591.51593</ele>
        <time>2021-05-05T07:12:30Z</time>
      </trkpt>
      <trkpt lat="44.17453" lon="5.44065">
        <ele>590.783447</ele>
        <time>2021-05-05T07:12:32Z</time>
      </trkpt>
      <trkpt lat="44.17405" lon="5.44077">
        <ele>590.570496</ele>
        <time>2021-05-05T07:12:47Z</time>
      </trkpt>
      <trkpt lat="44.17385" lon="5.44069">
        <ele>590.805847</ele>
        <time>2021-05-05T07:12:58Z</time>
      </trkpt>
      <trkpt lat="44.17367" lon="5.44078">
        <ele>591.516785</ele>
        <time>2021-05-05T07:13:07Z</time>
      </trkpt>
      <trkpt lat="44.17368" lon="5.44087">
        <ele>591.794067</ele>
        <time>2021-05-05T07:13:17Z</time>
      </trkpt>
      <trkpt lat="44.1739" lon="5.44074">
        <ele>590.841919</ele>
        <time>2021-05-05T07:13:29Z</time>
      </trkpt>
      <trkpt lat="44.17395" lon="5.44082">
        <ele>590.98407</ele>
        <time>2021-05-05T07:13:38Z</time>
      </trkpt>
      <trkpt lat="44.17393" lon="5.44079">
        <ele>590.935974</ele>
        <time>2021-05-05T07:13:55Z</time>
      </trkpt>
      <trkpt lat="44.17392" lon="5.44077">
        <ele>590.886292</ele>
        <time>2021-05-05T07:14:27Z</time>
      </trkpt>
      <trkpt lat="44.17394" lon="5.44077">
        <ele>590.83606</ele>
        <time>2021-05-05T07:14:56Z</time>
      </trkpt>
      <trkpt lat="44.17391" lon="5.44075">
        <ele>590.861389</ele>
        <time>2021-05-05T07:15:26Z</time>
      </trkpt>
      <trkpt lat="44.17389" lon="5.44079">
        <ele>591.005249</ele>
        <time>2021-05-05T07:15:57Z</time>
      </trkpt>
      <trkpt lat="44.17392" lon="5.44077">
        <ele>590.886353</ele>
        <time>2021-05-05T07:16:33Z</time>
      </trkpt>
      <trkpt lat="44.17393" lon="5.44078">
        <ele>590.883362</ele>
        <time>2021-05-05T07:17:10Z</time>
      </trkpt>
      <trkpt lat="44.17393" lon="5.44079">
        <ele>590.912476</ele>
        <time>2021-05-05T07:17:47Z</time>
      </trkpt>
      <trkpt lat="44.17393" lon="5.4408">
        <ele>590.961792</ele>
        <time>2021-05-05T07:18:23Z</time>
      </trkpt>
      <trkpt lat="44.17395" lon="5.44078">
        <ele>590.863098</ele>
        <time>2021-05-05T07:19:01Z</time>
      </trkpt>
      <trkpt lat="44.17394" lon="5.44074">
        <ele>590.764343</ele>
        <time>2021-05-05T07:19:29Z</time>
      </trkpt>
      <trkpt lat="44.17394" lon="5.44079">
        <ele>590.875977</ele>
        <time>2021-05-05T07:20:08Z</time>
      </trkpt>
      <trkpt lat="44.17394" lon="5.44079">
        <ele>590.923218</ele>
        <time>2021-05-05T07:20:38Z</time>
      </trkpt>
      <trkpt lat="44.17392" lon="5.4408">
        <ele>590.976624</ele>
        <time>2021-05-05T07:21:08Z</time>
      </trkpt>
      <trkpt lat="44.17393" lon="5.44081">
        <ele>591.003601</ele>
        <time>2021-05-05T07:21:31Z</time>
      </trkpt>
      <trkpt lat="44.17393" lon="5.44083">
        <ele>591.069824</ele>
        <time>2021-05-05T07:21:56Z</time>
      </trkpt>
      <trkpt lat="44.17393" lon="5.44083">
        <ele>591.045471</ele>
        <time>2021-05-05T07:22:16Z</time>
      </trkpt>
      <trkpt lat="44.17393" lon="5.44083">
        <ele>591.069641</ele>
        <time>2021-05-05T07:22:38Z</time>
      </trkpt>
      <trkpt lat="44.17393" lon="5.44081">
        <ele>590.98291</ele>
        <time>2021-05-05T07:23:07Z</time>
      </trkpt>
      <trkpt lat="44.17393" lon="5.44081">
        <ele>590.989685</ele>
        <time>2021-05-05T07:23:32Z</time>
      </trkpt>
      <trkpt lat="44.17393" lon="5.44082">
        <ele>591.00708</ele>
        <time>2021-05-05T07:23:57Z</time>
      </trkpt>
      <trkpt lat="44.17394" lon="5.44082">
        <ele>591.003784</ele>
        <time>2021-05-05T07:24:22Z</time>
      </trkpt>
      <trkpt lat="44.17392" lon="5.44083">
        <ele>591.074829</ele>
        <time>2021-05-05T07:24:56Z</time>
      </trkpt>
      <trkpt lat="44.17393" lon="5.44081">
        <ele>590.991394</ele>
        <time>2021-05-05T07:25:25Z</time>
      </trkpt>
      <trkpt lat="44.17394" lon="5.4408">
        <ele>590.930725</ele>
        <time>2021-05-05T07:26:01Z</time>
      </trkpt>
      <trkpt lat="44.17394" lon="5.44078">
        <ele>590.891052</ele>
        <time>2021-05-05T07:26:23Z</time>
      </trkpt>
      <trkpt lat="44.17394" lon="5.44079">
        <ele>590.90863</ele>
        <time>2021-05-05T07:26:51Z</time>
      </trkpt>
      <trkpt lat="44.17393" lon="5.44079">
        <ele>590.903992</ele>
        <time>2021-05-05T07:27:22Z</time>
      </trkpt>
      <trkpt lat="44.17393" lon="5.44079">
        <ele>590.923157</ele>
        <time>2021-05-05T07:27:56Z</time>
      </trkpt>
      <trkpt lat="44.17392" lon="5.44081">
        <ele>591.009338</ele>
        <time>2021-05-05T07:28:20Z</time>
      </trkpt>
      <trkpt lat="44.17395" lon="5.44082">
        <ele>590.983459</ele>
        <time>2021-05-05T07:28:55Z</time>
      </trkpt>
      <trkpt lat="44.17395" lon="5.44085">
        <ele>591.0578</ele>
        <time>2021-05-05T07:29:19Z</time>
      </trkpt>
      <trkpt lat="44.17395" lon="5.44085">
        <ele>591.044556</ele>
        <time>2021-05-05T07:29:23Z</time>
      </trkpt>
      <trkpt lat="44.17397" lon="5.44084">
        <ele>590.999207</ele>
        <time>2021-05-05T07:29:25Z</time>
      </trkpt>
      <trkpt lat="44.17406" lon="5.4408">
        <ele>590.626099</ele>
        <time>2021-05-05T07:29:30Z</time>
      </trkpt>
      <trkpt lat="44.17405" lon="5.44074">
        <ele>590.468933</ele>
        <time>2021-05-05T07:29:35Z</time>
      </trkpt>
      <trkpt lat="44.17396" lon="5.44073">
        <ele>590.662903</ele>
        <time>2021-05-05T07:29:39Z</time>
      </trkpt>
      <trkpt lat="44.17399" lon="5.44079">
        <ele>590.79541</ele>
        <time>2021-05-05T07:29:45Z</time>
      </trkpt>
      <trkpt lat="44.17444" lon="5.44069">
        <ele>590.809875</ele>
        <time>2021-05-05T07:30:00Z</time>
      </trkpt>
      <trkpt lat="44.17463" lon="5.44047">
        <ele>591.075378</ele>
        <time>2021-05-05T07:30:09Z</time>
      </trkpt>
      <trkpt lat="44.17464" lon="5.44041">
        <ele>590.820557</ele>
        <time>2021-05-05T07:30:10Z</time>
      </trkpt>
      <trkpt lat="44.17463" lon="5.44034">
        <ele>590.423218</ele>
        <time>2021-05-05T07:30:11Z</time>
      </trkpt>
      <trkpt lat="44.17463" lon="5.44028">
        <ele>589.921631</ele>
        <time>2021-05-05T07:30:12Z</time>
      </trkpt>
      <trkpt lat="44.17462" lon="5.44021">
        <ele>589.383545</ele>
        <time>2021-05-05T07:30:13Z</time>
      </trkpt>
      <trkpt lat="44.17448" lon="5.43892">
        <ele>584.856812</ele>
        <time>2021-05-05T07:30:29Z</time>
      </trkpt>
      <trkpt lat="44.17435" lon="5.43753">
        <ele>589.866516</ele>
        <time>2021-05-05T07:30:45Z</time>
      </trkpt>
      <trkpt lat="44.17429" lon="5.4365">
        <ele>587.879883</ele>
        <time>2021-05-05T07:30:58Z</time>
      </trkpt>
      <trkpt lat="44.17431" lon="5.43643">
        <ele>587.704102</ele>
        <time>2021-05-05T07:30:59Z</time>
      </trkpt>
      <trkpt lat="44.17433" lon="5.43635">
        <ele>587.546204</ele>
        <time>2021-05-05T07:31:00Z</time>
      </trkpt>
      <trkpt lat="44.17441" lon="5.43612">
        <ele>586.658142</ele>
        <time>2021-05-05T07:31:03Z</time>
      </trkpt>
      <trkpt lat="44.17446" lon="5.43602">
        <ele>586.354004</ele>
        <time>2021-05-05T07:31:04Z</time>
      </trkpt>
      <trkpt lat="44.17523" lon="5.43489">
        <ele>583.317261</ele>
        <time>2021-05-05T07:31:20Z</time>
      </trkpt>
      <trkpt lat="44.17562" lon="5.43431">
        <ele>581.602844</ele>
        <time>2021-05-05T07:31:31Z</time>
      </trkpt>
      <trkpt lat="44.17603" lon="5.43369">
        <ele>583.0578</ele>
        <time>2021-05-05T07:31:46Z</time>
      </trkpt>
      <trkpt lat="44.17657" lon="5.43309">
        <ele>581.895325</ele>
        <time>2021-05-05T07:32:03Z</time>
      </trkpt>
      <trkpt lat="44.17711" lon="5.43259">
        <ele>581.632935</ele>
        <time>2021-05-05T07:32:20Z</time>
      </trkpt>
      <trkpt lat="44.17768" lon="5.43211">
        <ele>582.715149</ele>
        <time>2021-05-05T07:32:37Z</time>
      </trkpt>
      <trkpt lat="44.17812" lon="5.43177">
        <ele>587.973267</ele>
        <time>2021-05-05T07:32:51Z</time>
      </trkpt>
      <trkpt lat="44.1787" lon="5.43149">
        <ele>596.49884</ele>
        <time>2021-05-05T07:33:08Z</time>
      </trkpt>
      <trkpt lat="44.17936" lon="5.43143">
        <ele>597.670837</ele>
        <time>2021-05-05T07:33:25Z</time>
      </trkpt>
      <trkpt lat="44.17987" lon="5.43124">
        <ele>597.894897</ele>
        <time>2021-05-05T07:33:40Z</time>
      </trkpt>
      <trkpt lat="44.18026" lon="5.43079">
        <ele>597.387024</ele>
        <time>2021-05-05T07:33:54Z</time>
      </trkpt>
      <trkpt lat="44.18071" lon="5.43038">
        <ele>593.09082</ele>
        <time>2021-05-05T07:34:09Z</time>
      </trkpt>
      <trkpt lat="44.18118" lon="5.43001">
        <ele>590.108521</ele>
        <time>2021-05-05T07:34:27Z</time>
      </trkpt>
      <trkpt lat="44.18168" lon="5.42949">
        <ele>590.993164</ele>
        <time>2021-05-05T07:34:46Z</time>
      </trkpt>
      <trkpt lat="44.1821" lon="5.42902">
        <ele>594.548889</ele>
        <time>2021-05-05T07:35:02Z</time>
      </trkpt>
      <trkpt lat="44.1824" lon="5.42868">
        <ele>597.754211</ele>
        <time>2021-05-05T07:35:17Z</time>
      </trkpt>
      <trkpt lat="44.18244" lon="5.42863">
        <ele>597.633789</ele>
        <time>2021-05-05T07:35:21Z</time>
      </trkpt>
      <trkpt lat="44.18249" lon="5.42858">
        <ele>597.819763</ele>
        <time>2021-05-05T07:35:32Z</time>
      </trkpt>
      <trkpt lat="44.1825" lon="5.42855">
        <ele>598.103088</ele>
        <time>2021-05-05T07:35:58Z</time>
      </trkpt>
      <trkpt lat="44.1825" lon="5.42854">
        <ele>598.185852</ele>
        <time>2021-05-05T07:36:22Z</time>
      </trkpt>
      <trkpt lat="44.18252" lon="5.42856">
        <ele>598.093323</ele>
        <time>2021-05-05T07:36:24Z</time>
      </trkpt>
      <trkpt lat="44.18252" lon="5.42857">
        <ele>598.022156</ele>
        <time>2021-05-05T07:36:25Z</time>
      </trkpt>
      <trkpt lat="44.18253" lon="5.42858">
        <ele>598.006653</ele>
        <time>2021-05-05T07:36:26Z</time>
      </trkpt>
      <trkpt lat="44.18255" lon="5.42859">
        <ele>598.033081</ele>
        <time>2021-05-05T07:36:27Z</time>
      </trkpt>
      <trkpt lat="44.18256" lon="5.42859">
        <ele>598.084595</ele>
        <time>2021-05-05T07:36:28Z</time>
      </trkpt>
      <trkpt lat="44.18258" lon="5.42859">
        <ele>598.137695</ele>
        <time>2021-05-05T07:36:29Z</time>
      </trkpt>
      <trkpt lat="44.18261" lon="5.42858">
        <ele>598.182678</ele>
        <time>2021-05-05T07:36:30Z</time>
      </trkpt>
      <trkpt lat="44.18264" lon="5.42858">
        <ele>598.221069</ele>
        <time>2021-05-05T07:36:31Z</time>
      </trkpt>
      <trkpt lat="44.18267" lon="5.42857">
        <ele>598.268066</ele>
        <time>2021-05-05T07:36:32Z</time>
      </trkpt>
      <trkpt lat="44.1827" lon="5.42856">
        <ele>598.306152</ele>
        <time>2021-05-05T07:36:33Z</time>
      </trkpt>
      <trkpt lat="44.18312" lon="5.42834">
        <ele>597.241638</ele>
        <time>2021-05-05T07:36:45Z</time>
      </trkpt>
      <trkpt lat="44.18383" lon="5.42807">
        <ele>596.435486</ele>
        <time>2021-05-05T07:37:03Z</time>
      </trkpt>
      <trkpt lat="44.18441" lon="5.42766">
        <ele>598.750488</ele>
        <time>2021-05-05T07:37:20Z</time>
      </trkpt>
      <trkpt lat="44.1849" lon="5.42735">
        <ele>601.065125</ele>
        <time>2021-05-05T07:37:36Z</time>
      </trkpt>
      <trkpt lat="44.18532" lon="5.4271">
        <ele>602.141296</ele>
        <time>2021-05-05T07:37:50Z</time>
      </trkpt>
      <trkpt lat="44.18585" lon="5.42665">
        <ele>604.739868</ele>
        <time>2021-05-05T07:38:08Z</time>
      </trkpt>
      <trkpt lat="44.18616" lon="5.42637">
        <ele>605.840942</ele>
        <time>2021-05-05T07:38:20Z</time>
      </trkpt>
      <trkpt lat="44.18677" lon="5.42584">
        <ele>607.894287</ele>
        <time>2021-05-05T07:38:41Z</time>
      </trkpt>
      <trkpt lat="44.18719" lon="5.42552">
        <ele>610.291321</ele>
        <time>2021-05-05T07:38:56Z</time>
      </trkpt>
      <trkpt lat="44.18767" lon="5.42512">
        <ele>612.433105</ele>
        <time>2021-05-05T07:39:11Z</time>
      </trkpt>
      <trkpt lat="44.18821" lon="5.4249">
        <ele>615.653809</ele>
        <time>2021-05-05T07:39:27Z</time>
      </trkpt>
      <trkpt lat="44.18873" lon="5.42482">
        <ele>618.055664</ele>
        <time>2021-05-05T07:39:43Z</time>
      </trkpt>
      <trkpt lat="44.18932" lon="5.42475">
        <ele>617.395264</ele>
        <time>2021-05-05T07:40:00Z</time>
      </trkpt>
      <trkpt lat="44.1899" lon="5.42465">
        <ele>621.112366</ele>
        <time>2021-05-05T07:40:18Z</time>
      </trkpt>
      <trkpt lat="44.19046" lon="5.42437">
        <ele>626.104065</ele>
        <time>2021-05-05T07:40:36Z</time>
      </trkpt>
      <trkpt lat="44.19099" lon="5.42408">
        <ele>624.378906</ele>
        <time>2021-05-05T07:40:52Z</time>
      </trkpt>
      <trkpt lat="44.19164" lon="5.4236">
        <ele>623.486511</ele>
        <time>2021-05-05T07:41:09Z</time>
      </trkpt>
      <trkpt lat="44.1919" lon="5.4234">
        <ele>623.177002</ele>
        <time>2021-05-05T07:41:16Z</time>
      </trkpt>
      <trkpt lat="44.19251" lon="5.42299">
        <ele>619.949829</ele>
        <time>2021-05-05T07:41:33Z</time>
      </trkpt>
      <trkpt lat="44.19303" lon="5.42227">
        <ele>622.798584</ele>
        <time>2021-05-05T07:41:50Z</time>
      </trkpt>
      <trkpt lat="44.19314" lon="5.42201">
        <ele>622.308044</ele>
        <time>2021-05-05T07:41:55Z</time>
      </trkpt>
      <trkpt lat="44.19317" lon="5.42196">
        <ele>622.496521</ele>
        <time>2021-05-05T07:41:56Z</time>
      </trkpt>
      <trkpt lat="44.19345" lon="5.42115">
        <ele>624.540344</ele>
        <time>2021-05-05T07:42:12Z</time>
      </trkpt>
      <trkpt lat="44.19374" lon="5.42009">
        <ele>627.256165</ele>
        <time>2021-05-05T07:42:33Z</time>
      </trkpt>
      <trkpt lat="44.19404" lon="5.41945">
        <ele>631.561707</ele>
        <time>2021-05-05T07:42:48Z</time>
      </trkpt>
      <trkpt lat="44.19447" lon="5.41866">
        <ele>637.047668</ele>
        <time>2021-05-05T07:43:07Z</time>
      </trkpt>
      <trkpt lat="44.19487" lon="5.41801">
        <ele>637.730347</ele>
        <time>2021-05-05T07:43:23Z</time>
      </trkpt>
      <trkpt lat="44.19528" lon="5.41723">
        <ele>642.235962</ele>
        <time>2021-05-05T07:43:40Z</time>
      </trkpt>
      <trkpt lat="44.1953" lon="5.41718">
        <ele>642.267456</ele>
        <time>2021-05-05T07:43:41Z</time>
      </trkpt>
      <trkpt lat="44.19565" lon="5.41648">
        <ele>645.208313</ele>
        <time>2021-05-05T07:43:58Z</time>
      </trkpt>
      <trkpt lat="44.19594" lon="5.41594">
        <ele>643.178101</ele>
        <time>2021-05-05T07:44:10Z</time>
      </trkpt>
      <trkpt lat="44.19616" lon="5.41557">
        <ele>639.262024</ele>
        <time>2021-05-05T07:44:17Z</time>
      </trkpt>
      <trkpt lat="44.19621" lon="5.41552">
        <ele>639.607178</ele>
        <time>2021-05-05T07:44:18Z</time>
      </trkpt>
      <trkpt lat="44.19626" lon="5.41548">
        <ele>639.949646</ele>
        <time>2021-05-05T07:44:19Z</time>
      </trkpt>
      <trkpt lat="44.19636" lon="5.41542">
        <ele>640.639221</ele>
        <time>2021-05-05T07:44:21Z</time>
      </trkpt>
      <trkpt lat="44.19678" lon="5.41522">
        <ele>639.893066</ele>
        <time>2021-05-05T07:44:28Z</time>
      </trkpt>
      <trkpt lat="44.19704" lon="5.41521">
        <ele>641.449219</ele>
        <time>2021-05-05T07:44:32Z</time>
      </trkpt>
      <trkpt lat="44.19709" lon="5.41523">
        <ele>641.881165</ele>
        <time>2021-05-05T07:44:33Z</time>
      </trkpt>
      <trkpt lat="44.19741" lon="5.41556">
        <ele>641.735413</ele>
        <time>2021-05-05T07:44:43Z</time>
      </trkpt>
      <trkpt lat="44.1977" lon="5.41614">
        <ele>640.004578</ele>
        <time>2021-05-05T07:44:57Z</time>
      </trkpt>
      <trkpt lat="44.19792" lon="5.41626">
        <ele>640.61853</ele>
        <time>2021-05-05T07:45:03Z</time>
      </trkpt>
      <trkpt lat="44.19796" lon="5.41628">
        <ele>640.64093</ele>
        <time>2021-05-05T07:45:04Z</time>
      </trkpt>
      <trkpt lat="44.19849" lon="5.41679">
        <ele>641.311707</ele>
        <time>2021-05-05T07:45:20Z</time>
      </trkpt>
      <trkpt lat="44.19853" lon="5.41682">
        <ele>641.375</ele>
        <time>2021-05-05T07:45:21Z</time>
      </trkpt>
      <trkpt lat="44.19856" lon="5.41684">
        <ele>641.486145</ele>
        <time>2021-05-05T07:45:22Z</time>
      </trkpt>
      <trkpt lat="44.19888" lon="5.41704">
        <ele>643.247864</ele>
        <time>2021-05-05T07:45:30Z</time>
      </trkpt>
      <trkpt lat="44.19892" lon="5.41706">
        <ele>643.678589</ele>
        <time>2021-05-05T07:45:31Z</time>
      </trkpt>
      <trkpt lat="44.19896" lon="5.41709">
        <ele>643.997803</ele>
        <time>2021-05-05T07:45:32Z</time>
      </trkpt>
      <trkpt lat="44.19899" lon="5.41712">
        <ele>644.232422</ele>
        <time>2021-05-05T07:45:33Z</time>
      </trkpt>
      <trkpt lat="44.19903" lon="5.41714">
        <ele>644.4104</ele>
        <time>2021-05-05T07:45:34Z</time>
      </trkpt>
      <trkpt lat="44.19939" lon="5.41752">
        <ele>644.478577</ele>
        <time>2021-05-05T07:45:48Z</time>
      </trkpt>
      <trkpt lat="44.19943" lon="5.41755">
        <ele>644.517029</ele>
        <time>2021-05-05T07:46:00Z</time>
      </trkpt>
      <trkpt lat="44.19944" lon="5.41757">
        <ele>644.292908</ele>
        <time>2021-05-05T07:46:20Z</time>
      </trkpt>
      <trkpt lat="44.19951" lon="5.41763">
        <ele>644.247375</ele>
        <time>2021-05-05T07:46:37Z</time>
      </trkpt>
      <trkpt lat="44.20012" lon="5.41801">
        <ele>649.25946</ele>
        <time>2021-05-05T07:46:52Z</time>
      </trkpt>
      <trkpt lat="44.20088" lon="5.41834">
        <ele>653.276245</ele>
        <time>2021-05-05T07:47:08Z</time>
      </trkpt>
      <trkpt lat="44.20102" lon="5.41841">
        <ele>654.136902</ele>
        <time>2021-05-05T07:47:11Z</time>
      </trkpt>
      <trkpt lat="44.20184" lon="5.41842">
        <ele>661.48291</ele>
        <time>2021-05-05T07:47:28Z</time>
      </trkpt>
      <trkpt lat="44.20251" lon="5.41839">
        <ele>666.02002</ele>
        <time>2021-05-05T07:47:43Z</time>
      </trkpt>
      <trkpt lat="44.20307" lon="5.4187">
        <ele>671.498169</ele>
        <time>2021-05-05T07:47:58Z</time>
      </trkpt>
      <trkpt lat="44.20368" lon="5.41931">
        <ele>677.058594</ele>
        <time>2021-05-05T07:48:17Z</time>
      </trkpt>
      <trkpt lat="44.20412" lon="5.41977">
        <ele>676.70459</ele>
        <time>2021-05-05T07:48:30Z</time>
      </trkpt>
      <trkpt lat="44.20416" lon="5.41979">
        <ele>676.656494</ele>
        <time>2021-05-05T07:48:31Z</time>
      </trkpt>
      <trkpt lat="44.20421" lon="5.41981">
        <ele>676.656616</ele>
        <time>2021-05-05T07:48:32Z</time>
      </trkpt>
      <trkpt lat="44.20425" lon="5.41982">
        <ele>676.619568</ele>
        <time>2021-05-05T07:48:33Z</time>
      </trkpt>
      <trkpt lat="44.2043" lon="5.41982">
        <ele>676.533142</ele>
        <time>2021-05-05T07:48:34Z</time>
      </trkpt>
      <trkpt lat="44.20434" lon="5.41981">
        <ele>676.368408</ele>
        <time>2021-05-05T07:48:35Z</time>
      </trkpt>
      <trkpt lat="44.20438" lon="5.4198">
        <ele>676.132568</ele>
        <time>2021-05-05T07:48:36Z</time>
      </trkpt>
      <trkpt lat="44.20442" lon="5.41977">
        <ele>676.267639</ele>
        <time>2021-05-05T07:48:37Z</time>
      </trkpt>
      <trkpt lat="44.20446" lon="5.41974">
        <ele>676.743591</ele>
        <time>2021-05-05T07:48:38Z</time>
      </trkpt>
      <trkpt lat="44.20449" lon="5.4197">
        <ele>677.220215</ele>
        <time>2021-05-05T07:48:39Z</time>
      </trkpt>
      <trkpt lat="44.20452" lon="5.41965">
        <ele>677.623596</ele>
        <time>2021-05-05T07:48:40Z</time>
      </trkpt>
      <trkpt lat="44.20455" lon="5.41961">
        <ele>677.959595</ele>
        <time>2021-05-05T07:48:41Z</time>
      </trkpt>
      <trkpt lat="44.2046" lon="5.41951">
        <ele>678.437012</ele>
        <time>2021-05-05T07:48:43Z</time>
      </trkpt>
      <trkpt lat="44.20462" lon="5.41945">
        <ele>678.599487</ele>
        <time>2021-05-05T07:48:44Z</time>
      </trkpt>
      <trkpt lat="44.20464" lon="5.4194">
        <ele>678.688965</ele>
        <time>2021-05-05T07:48:45Z</time>
      </trkpt>
      <trkpt lat="44.20467" lon="5.41936">
        <ele>678.673828</ele>
        <time>2021-05-05T07:48:46Z</time>
      </trkpt>
      <trkpt lat="44.20469" lon="5.41931">
        <ele>678.554199</ele>
        <time>2021-05-05T07:48:47Z</time>
      </trkpt>
      <trkpt lat="44.20472" lon="5.41927">
        <ele>678.362244</ele>
        <time>2021-05-05T07:48:48Z</time>
      </trkpt>
      <trkpt lat="44.20474" lon="5.41923">
        <ele>678.115662</ele>
        <time>2021-05-05T07:48:49Z</time>
      </trkpt>
      <trkpt lat="44.20511" lon="5.41907">
        <ele>678.522583</ele>
        <time>2021-05-05T07:49:00Z</time>
      </trkpt>
      <trkpt lat="44.20578" lon="5.41937">
        <ele>678.01593</ele>
        <time>2021-05-05T07:49:20Z</time>
      </trkpt>
      <trkpt lat="44.20632" lon="5.41974">
        <ele>678.900024</ele>
        <time>2021-05-05T07:49:38Z</time>
      </trkpt>
      <trkpt lat="44.20684" lon="5.41981">
        <ele>677.950867</ele>
        <time>2021-05-05T07:49:53Z</time>
      </trkpt>
      <trkpt lat="44.20723" lon="5.41981">
        <ele>679.81366</ele>
        <time>2021-05-05T07:50:08Z</time>
      </trkpt>
      <trkpt lat="44.20724" lon="5.41979">
        <ele>680.588989</ele>
        <time>2021-05-05T07:50:25Z</time>
      </trkpt>
      <trkpt lat="44.20727" lon="5.41974">
        <ele>682.46405</ele>
        <time>2021-05-05T07:50:49Z</time>
      </trkpt>
      <trkpt lat="44.20724" lon="5.41984">
        <ele>678.668518</ele>
        <time>2021-05-05T07:51:03Z</time>
      </trkpt>
      <trkpt lat="44.20747" lon="5.41975">
        <ele>684.111694</ele>
        <time>2021-05-05T07:51:12Z</time>
      </trkpt>
      <trkpt lat="44.20802" lon="5.41984">
        <ele>684.973206</ele>
        <time>2021-05-05T07:51:27Z</time>
      </trkpt>
      <trkpt lat="44.20822" lon="5.42007">
        <ele>688.105896</ele>
        <time>2021-05-05T07:51:34Z</time>
      </trkpt>
      <trkpt lat="44.20824" lon="5.42012">
        <ele>688.505554</ele>
        <time>2021-05-05T07:51:35Z</time>
      </trkpt>
      <trkpt lat="44.20853" lon="5.42081">
        <ele>689.925537</ele>
        <time>2021-05-05T07:51:50Z</time>
      </trkpt>
      <trkpt lat="44.20903" lon="5.42113">
        <ele>694.615173</ele>
        <time>2021-05-05T07:52:04Z</time>
      </trkpt>
      <trkpt lat="44.2096" lon="5.42138">
        <ele>699.863342</ele>
        <time>2021-05-05T07:52:20Z</time>
      </trkpt>
      <trkpt lat="44.20977" lon="5.42143">
        <ele>705.645203</ele>
        <time>2021-05-05T07:52:31Z</time>
      </trkpt>
      <trkpt lat="44.2098" lon="5.4214">
        <ele>706.409851</ele>
        <time>2021-05-05T07:52:53Z</time>
      </trkpt>
      <trkpt lat="44.2098" lon="5.42142">
        <ele>706.828125</ele>
        <time>2021-05-05T07:53:16Z</time>
      </trkpt>
      <trkpt lat="44.20983" lon="5.42143">
        <ele>708.124451</ele>
        <time>2021-05-05T07:53:25Z</time>
      </trkpt>
      <trkpt lat="44.20985" lon="5.42144">
        <ele>708.88269</ele>
        <time>2021-05-05T07:53:26Z</time>
      </trkpt>
      <trkpt lat="44.20987" lon="5.42145">
        <ele>709.921204</ele>
        <time>2021-05-05T07:53:27Z</time>
      </trkpt>
      <trkpt lat="44.21034" lon="5.42168">
        <ele>715.19165</ele>
        <time>2021-05-05T07:53:42Z</time>
      </trkpt>
      <trkpt lat="44.21072" lon="5.42191">
        <ele>705.778259</ele>
        <time>2021-05-05T07:53:55Z</time>
      </trkpt>
      <trkpt lat="44.21104" lon="5.42218">
        <ele>715.363098</ele>
        <time>2021-05-05T07:54:07Z</time>
      </trkpt>
      <trkpt lat="44.2114" lon="5.42232">
        <ele>725.318848</ele>
        <time>2021-05-05T07:54:21Z</time>
      </trkpt>
      <trkpt lat="44.21192" lon="5.42239">
        <ele>724.482178</ele>
        <time>2021-05-05T07:54:38Z</time>
      </trkpt>
      <trkpt lat="44.21249" lon="5.42259">
        <ele>713.957825</ele>
        <time>2021-05-05T07:54:55Z</time>
      </trkpt>
      <trkpt lat="44.21305" lon="5.42271">
        <ele>712.562134</ele>
        <time>2021-05-05T07:55:14Z</time>
      </trkpt>
      <trkpt lat="44.21359" lon="5.42284">
        <ele>721.083557</ele>
        <time>2021-05-05T07:55:32Z</time>
      </trkpt>
      <trkpt lat="44.21404" lon="5.42308">
        <ele>728.838684</ele>
        <time>2021-05-05T07:55:48Z</time>
      </trkpt>
      <trkpt lat="44.21448" lon="5.42337">
        <ele>727.388855</ele>
        <time>2021-05-05T07:56:04Z</time>
      </trkpt>
      <trkpt lat="44.215" lon="5.42341">
        <ele>730.564209</ele>
        <time>2021-05-05T07:56:20Z</time>
      </trkpt>
      <trkpt lat="44.2154" lon="5.42348">
        <ele>737.056213</ele>
        <time>2021-05-05T07:56:32Z</time>
      </trkpt>
      <trkpt lat="44.21569" lon="5.42396">
        <ele>736.451904</ele>
        <time>2021-05-05T07:56:45Z</time>
      </trkpt>
      <trkpt lat="44.21602" lon="5.4245">
        <ele>736.090332</ele>
        <time>2021-05-05T07:57:00Z</time>
      </trkpt>
      <trkpt lat="44.21631" lon="5.42467">
        <ele>734.478271</ele>
        <time>2021-05-05T07:57:11Z</time>
      </trkpt>
      <trkpt lat="44.21657" lon="5.42474">
        <ele>734.743713</ele>
        <time>2021-05-05T07:57:21Z</time>
      </trkpt>
      <trkpt lat="44.21688" lon="5.42482">
        <ele>735.306458</ele>
        <time>2021-05-05T07:57:32Z</time>
      </trkpt>
      <trkpt lat="44.21713" lon="5.42484">
        <ele>737.307251</ele>
        <time>2021-05-05T07:57:45Z</time>
      </trkpt>
      <trkpt lat="44.21708" lon="5.42485">
        <ele>736.424561</ele>
        <time>2021-05-05T07:58:00Z</time>
      </trkpt>
      <trkpt lat="44.21717" lon="5.42492">
        <ele>737.866394</ele>
        <time>2021-05-05T07:58:25Z</time>
      </trkpt>
      <trkpt lat="44.2172" lon="5.42479">
        <ele>740.888855</ele>
        <time>2021-05-05T07:58:52Z</time>
      </trkpt>
      <trkpt lat="44.21721" lon="5.42489">
        <ele>737.266174</ele>
        <time>2021-05-05T07:59:20Z</time>
      </trkpt>
      <trkpt lat="44.2171" lon="5.42479">
        <ele>739.818481</ele>
        <time>2021-05-05T07:59:48Z</time>
      </trkpt>
      <trkpt lat="44.21708" lon="5.42488">
        <ele>735.864746</ele>
        <time>2021-05-05T08:00:33Z</time>
      </trkpt>
      <trkpt lat="44.21712" lon="5.42483">
        <ele>737.895691</ele>
        <time>2021-05-05T08:00:51Z</time>
      </trkpt>
      <trkpt lat="44.21713" lon="5.42485">
        <ele>736.871765</ele>
        <time>2021-05-05T08:01:17Z</time>
      </trkpt>
      <trkpt lat="44.21719" lon="5.42489">
        <ele>737.265198</ele>
        <time>2021-05-05T08:01:42Z</time>
      </trkpt>
      <trkpt lat="44.21719" lon="5.42492">
        <ele>738.107117</ele>
        <time>2021-05-05T08:02:05Z</time>
      </trkpt>
      <trkpt lat="44.21721" lon="5.42491">
        <ele>737.889282</ele>
        <time>2021-05-05T08:02:18Z</time>
      </trkpt>
      <trkpt lat="44.21724" lon="5.42495">
        <ele>739.646057</ele>
        <time>2021-05-05T08:02:43Z</time>
      </trkpt>
      <trkpt lat="44.21726" lon="5.42493">
        <ele>739.074402</ele>
        <time>2021-05-05T08:02:54Z</time>
      </trkpt>
      <trkpt lat="44.21754" lon="5.4248">
        <ele>747.715759</ele>
        <time>2021-05-05T08:03:04Z</time>
      </trkpt>
      <trkpt lat="44.21782" lon="5.42501">
        <ele>752.50647</ele>
        <time>2021-05-05T08:03:14Z</time>
      </trkpt>
      <trkpt lat="44.21813" lon="5.42556">
        <ele>755.01123</ele>
        <time>2021-05-05T08:03:33Z</time>
      </trkpt>
      <trkpt lat="44.21839" lon="5.42602">
        <ele>760.510132</ele>
        <time>2021-05-05T08:03:45Z</time>
      </trkpt>
      <trkpt lat="44.21876" lon="5.42675">
        <ele>762.295166</ele>
        <time>2021-05-05T08:04:02Z</time>
      </trkpt>
      <trkpt lat="44.219" lon="5.42741">
        <ele>760.01239</ele>
        <time>2021-05-05T08:04:17Z</time>
      </trkpt>
      <trkpt lat="44.21911" lon="5.42778">
        <ele>767.993225</ele>
        <time>2021-05-05T08:04:25Z</time>
      </trkpt>
      <trkpt lat="44.21915" lon="5.42781">
        <ele>768.804749</ele>
        <time>2021-05-05T08:04:26Z</time>
      </trkpt>
      <trkpt lat="44.21918" lon="5.42784">
        <ele>769.315979</ele>
        <time>2021-05-05T08:04:27Z</time>
      </trkpt>
      <trkpt lat="44.21922" lon="5.42787">
        <ele>769.548706</ele>
        <time>2021-05-05T08:04:28Z</time>
      </trkpt>
      <trkpt lat="44.21925" lon="5.4279">
        <ele>769.551575</ele>
        <time>2021-05-05T08:04:29Z</time>
      </trkpt>
      <trkpt lat="44.21929" lon="5.42793">
        <ele>769.281311</ele>
        <time>2021-05-05T08:04:30Z</time>
      </trkpt>
      <trkpt lat="44.21932" lon="5.42796">
        <ele>768.798096</ele>
        <time>2021-05-05T08:04:31Z</time>
      </trkpt>
      <trkpt lat="44.21947" lon="5.42811">
        <ele>762.545288</ele>
        <time>2021-05-05T08:04:36Z</time>
      </trkpt>
      <trkpt lat="44.21964" lon="5.42825">
        <ele>766.261841</ele>
        <time>2021-05-05T08:04:41Z</time>
      </trkpt>
      <trkpt lat="44.22003" lon="5.4285">
        <ele>768.999756</ele>
        <time>2021-05-05T08:04:53Z</time>
      </trkpt>
      <trkpt lat="44.22037" lon="5.42855">
        <ele>765.471741</ele>
        <time>2021-05-05T08:05:06Z</time>
      </trkpt>
      <trkpt lat="44.2207" lon="5.42858">
        <ele>764.803223</ele>
        <time>2021-05-05T08:05:19Z</time>
      </trkpt>
      <trkpt lat="44.22084" lon="5.4286">
        <ele>764.445557</ele>
        <time>2021-05-05T08:05:31Z</time>
      </trkpt>
      <trkpt lat="44.22086" lon="5.42857">
        <ele>763.879578</ele>
        <time>2021-05-05T08:05:57Z</time>
      </trkpt>
      <trkpt lat="44.22088" lon="5.42861">
        <ele>764.358093</ele>
        <time>2021-05-05T08:06:17Z</time>
      </trkpt>
      <trkpt lat="44.22089" lon="5.42862">
        <ele>764.442444</ele>
        <time>2021-05-05T08:06:18Z</time>
      </trkpt>
      <trkpt lat="44.2209" lon="5.42863">
        <ele>764.549255</ele>
        <time>2021-05-05T08:06:19Z</time>
      </trkpt>
      <trkpt lat="44.22093" lon="5.42864">
        <ele>764.503662</ele>
        <time>2021-05-05T08:06:20Z</time>
      </trkpt>
      <trkpt lat="44.22096" lon="5.42865">
        <ele>764.309875</ele>
        <time>2021-05-05T08:06:21Z</time>
      </trkpt>
      <trkpt lat="44.22099" lon="5.42865">
        <ele>764.064087</ele>
        <time>2021-05-05T08:06:22Z</time>
      </trkpt>
      <trkpt lat="44.22143" lon="5.42887">
        <ele>762.870728</ele>
        <time>2021-05-05T08:06:35Z</time>
      </trkpt>
      <trkpt lat="44.22206" lon="5.42933">
        <ele>765.32373</ele>
        <time>2021-05-05T08:06:53Z</time>
      </trkpt>
      <trkpt lat="44.22259" lon="5.42977">
        <ele>763.190063</ele>
        <time>2021-05-05T08:07:09Z</time>
      </trkpt>
      <trkpt lat="44.22305" lon="5.43016">
        <ele>761.190125</ele>
        <time>2021-05-05T08:07:22Z</time>
      </trkpt>
      <trkpt lat="44.22344" lon="5.4303">
        <ele>761.051514</ele>
        <time>2021-05-05T08:07:34Z</time>
      </trkpt>
      <trkpt lat="44.22348" lon="5.4303">
        <ele>761.190613</ele>
        <time>2021-05-05T08:07:43Z</time>
      </trkpt>
      <trkpt lat="44.22347" lon="5.43029">
        <ele>761.086121</ele>
        <time>2021-05-05T08:08:11Z</time>
      </trkpt>
      <trkpt lat="44.22349" lon="5.4303">
        <ele>761.405212</ele>
        <time>2021-05-05T08:08:13Z</time>
      </trkpt>
      <trkpt lat="44.22353" lon="5.43035">
        <ele>762.024597</ele>
        <time>2021-05-05T08:08:27Z</time>
      </trkpt>
      <trkpt lat="44.22354" lon="5.43039">
        <ele>762.172791</ele>
        <time>2021-05-05T08:08:54Z</time>
      </trkpt>
      <trkpt lat="44.22356" lon="5.43038">
        <ele>762.492371</ele>
        <time>2021-05-05T08:09:07Z</time>
      </trkpt>
      <trkpt lat="44.22356" lon="5.43038">
        <ele>762.389954</ele>
        <time>2021-05-05T08:09:29Z</time>
      </trkpt>
      <trkpt lat="44.22355" lon="5.4304">
        <ele>762.265625</ele>
        <time>2021-05-05T08:09:54Z</time>
      </trkpt>
      <trkpt lat="44.22356" lon="5.43039">
        <ele>762.43689</ele>
        <time>2021-05-05T08:10:24Z</time>
      </trkpt>
      <trkpt lat="44.22354" lon="5.4304">
        <ele>762.045044</ele>
        <time>2021-05-05T08:11:01Z</time>
      </trkpt>
      <trkpt lat="44.22356" lon="5.43039">
        <ele>762.358704</ele>
        <time>2021-05-05T08:11:23Z</time>
      </trkpt>
      <trkpt lat="44.22356" lon="5.4304">
        <ele>762.38916</ele>
        <time>2021-05-05T08:11:52Z</time>
      </trkpt>
      <trkpt lat="44.22356" lon="5.4304">
        <ele>762.367554</ele>
        <time>2021-05-05T08:12:22Z</time>
      </trkpt>
      <trkpt lat="44.22354" lon="5.43041">
        <ele>762.140381</ele>
        <time>2021-05-05T08:12:46Z</time>
      </trkpt>
      <trkpt lat="44.22355" lon="5.43041">
        <ele>762.2677</ele>
        <time>2021-05-05T08:12:47Z</time>
      </trkpt>
      <trkpt lat="44.22357" lon="5.43042">
        <ele>762.397888</ele>
        <time>2021-05-05T08:12:48Z</time>
      </trkpt>
      <trkpt lat="44.22358" lon="5.43044">
        <ele>762.614136</ele>
        <time>2021-05-05T08:12:49Z</time>
      </trkpt>
      <trkpt lat="44.2236" lon="5.43046">
        <ele>762.806824</ele>
        <time>2021-05-05T08:12:50Z</time>
      </trkpt>
      <trkpt lat="44.22363" lon="5.43048">
        <ele>762.980042</ele>
        <time>2021-05-05T08:12:51Z</time>
      </trkpt>
      <trkpt lat="44.22365" lon="5.43051">
        <ele>763.143433</ele>
        <time>2021-05-05T08:12:52Z</time>
      </trkpt>
      <trkpt lat="44.22368" lon="5.43053">
        <ele>763.253235</ele>
        <time>2021-05-05T08:12:53Z</time>
      </trkpt>
      <trkpt lat="44.2237" lon="5.43056">
        <ele>763.309937</ele>
        <time>2021-05-05T08:12:54Z</time>
      </trkpt>
      <trkpt lat="44.22409" lon="5.43091">
        <ele>763.730225</ele>
        <time>2021-05-05T08:13:07Z</time>
      </trkpt>
      <trkpt lat="44.22459" lon="5.43156">
        <ele>762.310303</ele>
        <time>2021-05-05T08:13:25Z</time>
      </trkpt>
      <trkpt lat="44.22495" lon="5.43217">
        <ele>764.397949</ele>
        <time>2021-05-05T08:13:41Z</time>
      </trkpt>
      <trkpt lat="44.22533" lon="5.43264">
        <ele>768.962463</ele>
        <time>2021-05-05T08:13:57Z</time>
      </trkpt>
      <trkpt lat="44.22582" lon="5.43271">
        <ele>773.198608</ele>
        <time>2021-05-05T08:14:12Z</time>
      </trkpt>
      <trkpt lat="44.22638" lon="5.4328">
        <ele>776.38739</ele>
        <time>2021-05-05T08:14:29Z</time>
      </trkpt>
      <trkpt lat="44.22694" lon="5.43305">
        <ele>779.507874</ele>
        <time>2021-05-05T08:14:46Z</time>
      </trkpt>
      <trkpt lat="44.22748" lon="5.4335">
        <ele>775.237427</ele>
        <time>2021-05-05T08:15:04Z</time>
      </trkpt>
      <trkpt lat="44.22767" lon="5.43383">
        <ele>781.109314</ele>
        <time>2021-05-05T08:15:13Z</time>
      </trkpt>
      <trkpt lat="44.22816" lon="5.43395">
        <ele>786.300537</ele>
        <time>2021-05-05T08:15:28Z</time>
      </trkpt>
      <trkpt lat="44.22874" lon="5.43407">
        <ele>789.823547</ele>
        <time>2021-05-05T08:15:46Z</time>
      </trkpt>
      <trkpt lat="44.22921" lon="5.43415">
        <ele>791.952332</ele>
        <time>2021-05-05T08:16:01Z</time>
      </trkpt>
      <trkpt lat="44.22975" lon="5.4343">
        <ele>792.721863</ele>
        <time>2021-05-05T08:16:19Z</time>
      </trkpt>
      <trkpt lat="44.23034" lon="5.43456">
        <ele>799.991516</ele>
        <time>2021-05-05T08:16:40Z</time>
      </trkpt>
      <trkpt lat="44.23085" lon="5.43462">
        <ele>800.505615</ele>
        <time>2021-05-05T08:16:57Z</time>
      </trkpt>
      <trkpt lat="44.23137" lon="5.43483">
        <ele>801.319214</ele>
        <time>2021-05-05T08:17:15Z</time>
      </trkpt>
      <trkpt lat="44.23157" lon="5.43529">
        <ele>803.498169</ele>
        <time>2021-05-05T08:17:28Z</time>
      </trkpt>
      <trkpt lat="44.23164" lon="5.43602">
        <ele>808.958191</ele>
        <time>2021-05-05T08:17:44Z</time>
      </trkpt>
      <trkpt lat="44.23182" lon="5.43673">
        <ele>813.844116</ele>
        <time>2021-05-05T08:18:00Z</time>
      </trkpt>
      <trkpt lat="44.23221" lon="5.43729">
        <ele>818.336914</ele>
        <time>2021-05-05T08:18:16Z</time>
      </trkpt>
      <trkpt lat="44.2327" lon="5.43737">
        <ele>817.185974</ele>
        <time>2021-05-05T08:18:29Z</time>
      </trkpt>
      <trkpt lat="44.23324" lon="5.43741">
        <ele>817.971069</ele>
        <time>2021-05-05T08:18:45Z</time>
      </trkpt>
      <trkpt lat="44.2333" lon="5.43795">
        <ele>822.565857</ele>
        <time>2021-05-05T08:18:56Z</time>
      </trkpt>
      <trkpt lat="44.23344" lon="5.43807">
        <ele>821.936462</ele>
        <time>2021-05-05T08:19:01Z</time>
      </trkpt>
      <trkpt lat="44.23347" lon="5.43804">
        <ele>821.443665</ele>
        <time>2021-05-05T08:19:02Z</time>
      </trkpt>
      <trkpt lat="44.2335" lon="5.438">
        <ele>820.987671</ele>
        <time>2021-05-05T08:19:03Z</time>
      </trkpt>
      <trkpt lat="44.23352" lon="5.43796">
        <ele>820.667847</ele>
        <time>2021-05-05T08:19:04Z</time>
      </trkpt>
      <trkpt lat="44.23354" lon="5.4379">
        <ele>820.404053</ele>
        <time>2021-05-05T08:19:05Z</time>
      </trkpt>
      <trkpt lat="44.23355" lon="5.43785">
        <ele>820.23407</ele>
        <time>2021-05-05T08:19:06Z</time>
      </trkpt>
      <trkpt lat="44.23373" lon="5.43686">
        <ele>820.554443</ele>
        <time>2021-05-05T08:19:26Z</time>
      </trkpt>
      <trkpt lat="44.23396" lon="5.43648">
        <ele>820.029053</ele>
        <time>2021-05-05T08:19:39Z</time>
      </trkpt>
      <trkpt lat="44.23417" lon="5.43673">
        <ele>822.597351</ele>
        <time>2021-05-05T08:19:49Z</time>
      </trkpt>
      <trkpt lat="44.23475" lon="5.43719">
        <ele>830.616028</ele>
        <time>2021-05-05T08:20:08Z</time>
      </trkpt>
      <trkpt lat="44.23521" lon="5.43713">
        <ele>833.724792</ele>
        <time>2021-05-05T08:20:21Z</time>
      </trkpt>
      <trkpt lat="44.23566" lon="5.43736">
        <ele>837.718201</ele>
        <time>2021-05-05T08:20:35Z</time>
      </trkpt>
      <trkpt lat="44.23586" lon="5.43802">
        <ele>839.865479</ele>
        <time>2021-05-05T08:20:50Z</time>
      </trkpt>
      <trkpt lat="44.23603" lon="5.43813">
        <ele>841.484802</ele>
        <time>2021-05-05T08:20:56Z</time>
      </trkpt>
      <trkpt lat="44.23606" lon="5.43809">
        <ele>841.633362</ele>
        <time>2021-05-05T08:20:57Z</time>
      </trkpt>
      <trkpt lat="44.23608" lon="5.43806">
        <ele>841.696655</ele>
        <time>2021-05-05T08:20:58Z</time>
      </trkpt>
      <trkpt lat="44.23609" lon="5.43801">
        <ele>841.701172</ele>
        <time>2021-05-05T08:20:59Z</time>
      </trkpt>
      <trkpt lat="44.2361" lon="5.43797">
        <ele>841.666565</ele>
        <time>2021-05-05T08:21:00Z</time>
      </trkpt>
      <trkpt lat="44.23611" lon="5.43792">
        <ele>841.577515</ele>
        <time>2021-05-05T08:21:01Z</time>
      </trkpt>
      <trkpt lat="44.23611" lon="5.43787">
        <ele>841.463135</ele>
        <time>2021-05-05T08:21:02Z</time>
      </trkpt>
      <trkpt lat="44.23631" lon="5.43743">
        <ele>841.764771</ele>
        <time>2021-05-05T08:21:14Z</time>
      </trkpt>
      <trkpt lat="44.23667" lon="5.43749">
        <ele>845.710632</ele>
        <time>2021-05-05T08:21:27Z</time>
      </trkpt>
      <trkpt lat="44.23679" lon="5.43765">
        <ele>845.891602</ele>
        <time>2021-05-05T08:21:39Z</time>
      </trkpt>
      <trkpt lat="44.23677" lon="5.43765">
        <ele>845.889282</ele>
        <time>2021-05-05T08:21:41Z</time>
      </trkpt>
      <trkpt lat="44.23679" lon="5.43765">
        <ele>845.897949</ele>
        <time>2021-05-05T08:21:57Z</time>
      </trkpt>
      <trkpt lat="44.23683" lon="5.43765">
        <ele>845.988098</ele>
        <time>2021-05-05T08:22:14Z</time>
      </trkpt>
      <trkpt lat="44.23684" lon="5.43762">
        <ele>846.167175</ele>
        <time>2021-05-05T08:22:29Z</time>
      </trkpt>
      <trkpt lat="44.23683" lon="5.43764">
        <ele>845.998169</ele>
        <time>2021-05-05T08:22:53Z</time>
      </trkpt>
      <trkpt lat="44.23684" lon="5.43763">
        <ele>846.088867</ele>
        <time>2021-05-05T08:23:22Z</time>
      </trkpt>
      <trkpt lat="44.23686" lon="5.43763">
        <ele>846.127502</ele>
        <time>2021-05-05T08:23:53Z</time>
      </trkpt>
      <trkpt lat="44.23684" lon="5.43765">
        <ele>846.00177</ele>
        <time>2021-05-05T08:24:20Z</time>
      </trkpt>
      <trkpt lat="44.23684" lon="5.43762">
        <ele>846.182312</ele>
        <time>2021-05-05T08:24:51Z</time>
      </trkpt>
      <trkpt lat="44.23683" lon="5.43762">
        <ele>846.16394</ele>
        <time>2021-05-05T08:25:11Z</time>
      </trkpt>
      <trkpt lat="44.23685" lon="5.43762">
        <ele>846.180908</ele>
        <time>2021-05-05T08:25:36Z</time>
      </trkpt>
      <trkpt lat="44.23684" lon="5.43763">
        <ele>846.087585</ele>
        <time>2021-05-05T08:26:06Z</time>
      </trkpt>
      <trkpt lat="44.23684" lon="5.43766">
        <ele>845.892578</ele>
        <time>2021-05-05T08:26:35Z</time>
      </trkpt>
      <trkpt lat="44.23684" lon="5.43766">
        <ele>845.913025</ele>
        <time>2021-05-05T08:26:56Z</time>
      </trkpt>
      <trkpt lat="44.23684" lon="5.43768">
        <ele>845.773376</ele>
        <time>2021-05-05T08:27:31Z</time>
      </trkpt>
      <trkpt lat="44.23684" lon="5.4377">
        <ele>845.667664</ele>
        <time>2021-05-05T08:27:32Z</time>
      </trkpt>
      <trkpt lat="44.23683" lon="5.43772">
        <ele>845.568176</ele>
        <time>2021-05-05T08:27:33Z</time>
      </trkpt>
      <trkpt lat="44.23683" lon="5.43773">
        <ele>845.46521</ele>
        <time>2021-05-05T08:27:34Z</time>
      </trkpt>
      <trkpt lat="44.23683" lon="5.43775">
        <ele>845.343262</ele>
        <time>2021-05-05T08:27:35Z</time>
      </trkpt>
      <trkpt lat="44.23684" lon="5.43777">
        <ele>845.201355</ele>
        <time>2021-05-05T08:27:36Z</time>
      </trkpt>
      <trkpt lat="44.23705" lon="5.438">
        <ele>843.911011</ele>
        <time>2021-05-05T08:27:48Z</time>
      </trkpt>
      <trkpt lat="44.23739" lon="5.43804">
        <ele>842.671143</ele>
        <time>2021-05-05T08:27:59Z</time>
      </trkpt>
      <trkpt lat="44.23743" lon="5.43806">
        <ele>842.368103</ele>
        <time>2021-05-05T08:28:00Z</time>
      </trkpt>
      <trkpt lat="44.23747" lon="5.43809">
        <ele>842.000244</ele>
        <time>2021-05-05T08:28:01Z</time>
      </trkpt>
      <trkpt lat="44.23815" lon="5.43846">
        <ele>835.700745</ele>
        <time>2021-05-05T08:28:15Z</time>
      </trkpt>
      <trkpt lat="44.23873" lon="5.43841">
        <ele>827.374146</ele>
        <time>2021-05-05T08:28:24Z</time>
      </trkpt>
      <trkpt lat="44.2388" lon="5.43837">
        <ele>826.803833</ele>
        <time>2021-05-05T08:28:25Z</time>
      </trkpt>
      <trkpt lat="44.23886" lon="5.43831">
        <ele>826.681946</ele>
        <time>2021-05-05T08:28:26Z</time>
      </trkpt>
      <trkpt lat="44.2389" lon="5.43823">
        <ele>827.068176</ele>
        <time>2021-05-05T08:28:27Z</time>
      </trkpt>
      <trkpt lat="44.23893" lon="5.43812">
        <ele>827.894531</ele>
        <time>2021-05-05T08:28:28Z</time>
      </trkpt>
      <trkpt lat="44.23894" lon="5.43801">
        <ele>828.973145</ele>
        <time>2021-05-05T08:28:29Z</time>
      </trkpt>
      <trkpt lat="44.23896" lon="5.43789">
        <ele>830.005066</ele>
        <time>2021-05-05T08:28:30Z</time>
      </trkpt>
      <trkpt lat="44.239" lon="5.43779">
        <ele>830.599182</ele>
        <time>2021-05-05T08:28:31Z</time>
      </trkpt>
      <trkpt lat="44.23906" lon="5.43772">
        <ele>831.422668</ele>
        <time>2021-05-05T08:28:32Z</time>
      </trkpt>
      <trkpt lat="44.23914" lon="5.43767">
        <ele>832.060608</ele>
        <time>2021-05-05T08:28:33Z</time>
      </trkpt>
      <trkpt lat="44.23921" lon="5.43765">
        <ele>832.472839</ele>
        <time>2021-05-05T08:28:34Z</time>
      </trkpt>
      <trkpt lat="44.23927" lon="5.43766">
        <ele>832.516968</ele>
        <time>2021-05-05T08:28:35Z</time>
      </trkpt>
      <trkpt lat="44.23931" lon="5.43771">
        <ele>832.164368</ele>
        <time>2021-05-05T08:28:36Z</time>
      </trkpt>
      <trkpt lat="44.23932" lon="5.43778">
        <ele>831.550293</ele>
        <time>2021-05-05T08:28:37Z</time>
      </trkpt>
      <trkpt lat="44.23932" lon="5.43784">
        <ele>830.93219</ele>
        <time>2021-05-05T08:28:38Z</time>
      </trkpt>
      <trkpt lat="44.23932" lon="5.43791">
        <ele>830.318237</ele>
        <time>2021-05-05T08:28:39Z</time>
      </trkpt>
      <trkpt lat="44.23931" lon="5.43798">
        <ele>829.579468</ele>
        <time>2021-05-05T08:28:40Z</time>
      </trkpt>
      <trkpt lat="44.23926" lon="5.43858">
        <ele>822.737732</ele>
        <time>2021-05-05T08:28:47Z</time>
      </trkpt>
      <trkpt lat="44.23927" lon="5.43868">
        <ele>822.428406</ele>
        <time>2021-05-05T08:28:48Z</time>
      </trkpt>
      <trkpt lat="44.23929" lon="5.43878">
        <ele>822.165405</ele>
        <time>2021-05-05T08:28:49Z</time>
      </trkpt>
      <trkpt lat="44.23942" lon="5.4392">
        <ele>820.158386</ele>
        <time>2021-05-05T08:28:53Z</time>
      </trkpt>
      <trkpt lat="44.23947" lon="5.43928">
        <ele>820.371948</ele>
        <time>2021-05-05T08:28:54Z</time>
      </trkpt>
      <trkpt lat="44.23953" lon="5.43935">
        <ele>820.71051</ele>
        <time>2021-05-05T08:28:55Z</time>
      </trkpt>
      <trkpt lat="44.2396" lon="5.43938">
        <ele>820.752197</ele>
        <time>2021-05-05T08:28:56Z</time>
      </trkpt>
      <trkpt lat="44.23969" lon="5.43939">
        <ele>820.572571</ele>
        <time>2021-05-05T08:28:57Z</time>
      </trkpt>
      <trkpt lat="44.23978" lon="5.43938">
        <ele>820.34436</ele>
        <time>2021-05-05T08:28:58Z</time>
      </trkpt>
      <trkpt lat="44.23986" lon="5.43936">
        <ele>820.164429</ele>
        <time>2021-05-05T08:28:59Z</time>
      </trkpt>
      <trkpt lat="44.24012" lon="5.43932">
        <ele>820.517029</ele>
        <time>2021-05-05T08:29:02Z</time>
      </trkpt>
      <trkpt lat="44.24021" lon="5.43933">
        <ele>820.643127</ele>
        <time>2021-05-05T08:29:03Z</time>
      </trkpt>
      <trkpt lat="44.24074" lon="5.43948">
        <ele>819.466309</ele>
        <time>2021-05-05T08:29:09Z</time>
      </trkpt>
      <trkpt lat="44.24083" lon="5.43948">
        <ele>819.150635</ele>
        <time>2021-05-05T08:29:10Z</time>
      </trkpt>
      <trkpt lat="44.2411" lon="5.43947">
        <ele>818.160889</ele>
        <time>2021-05-05T08:29:13Z</time>
      </trkpt>
      <trkpt lat="44.24119" lon="5.43949">
        <ele>817.783447</ele>
        <time>2021-05-05T08:29:14Z</time>
      </trkpt>
      <trkpt lat="44.24128" lon="5.43953">
        <ele>817.575195</ele>
        <time>2021-05-05T08:29:15Z</time>
      </trkpt>
      <trkpt lat="44.24135" lon="5.43959">
        <ele>817.32666</ele>
        <time>2021-05-05T08:29:16Z</time>
      </trkpt>
      <trkpt lat="44.24143" lon="5.43964">
        <ele>817.02063</ele>
        <time>2021-05-05T08:29:17Z</time>
      </trkpt>
      <trkpt lat="44.24152" lon="5.4397">
        <ele>816.63623</ele>
        <time>2021-05-05T08:29:18Z</time>
      </trkpt>
      <trkpt lat="44.24158" lon="5.43971">
        <ele>816.422852</ele>
        <time>2021-05-05T08:29:19Z</time>
      </trkpt>
      <trkpt lat="44.24165" lon="5.43972">
        <ele>816.21051</ele>
        <time>2021-05-05T08:29:20Z</time>
      </trkpt>
      <trkpt lat="44.24173" lon="5.43971">
        <ele>815.790894</ele>
        <time>2021-05-05T08:29:21Z</time>
      </trkpt>
      <trkpt lat="44.2418" lon="5.43969">
        <ele>815.427429</ele>
        <time>2021-05-05T08:29:22Z</time>
      </trkpt>
      <trkpt lat="44.24187" lon="5.43965">
        <ele>815.08606</ele>
        <time>2021-05-05T08:29:23Z</time>
      </trkpt>
      <trkpt lat="44.24194" lon="5.43961">
        <ele>814.762756</ele>
        <time>2021-05-05T08:29:24Z</time>
      </trkpt>
      <trkpt lat="44.24201" lon="5.43957">
        <ele>814.3974</ele>
        <time>2021-05-05T08:29:25Z</time>
      </trkpt>
      <trkpt lat="44.24266" lon="5.43894">
        <ele>812.410339</ele>
        <time>2021-05-05T08:29:36Z</time>
      </trkpt>
      <trkpt lat="44.24273" lon="5.4389">
        <ele>812.010864</ele>
        <time>2021-05-05T08:29:37Z</time>
      </trkpt>
      <trkpt lat="44.24281" lon="5.43888">
        <ele>811.501648</ele>
        <time>2021-05-05T08:29:38Z</time>
      </trkpt>
      <trkpt lat="44.24288" lon="5.43887">
        <ele>810.889404</ele>
        <time>2021-05-05T08:29:39Z</time>
      </trkpt>
      <trkpt lat="44.24295" lon="5.43888">
        <ele>810.205261</ele>
        <time>2021-05-05T08:29:40Z</time>
      </trkpt>
      <trkpt lat="44.24303" lon="5.4389">
        <ele>809.488098</ele>
        <time>2021-05-05T08:29:41Z</time>
      </trkpt>
      <trkpt lat="44.24403" lon="5.43911">
        <ele>803.127686</ele>
        <time>2021-05-05T08:29:55Z</time>
      </trkpt>
      <trkpt lat="44.24409" lon="5.43913">
        <ele>802.862915</ele>
        <time>2021-05-05T08:29:56Z</time>
      </trkpt>
      <trkpt lat="44.24415" lon="5.43916">
        <ele>802.553345</ele>
        <time>2021-05-05T08:29:57Z</time>
      </trkpt>
      <trkpt lat="44.24491" lon="5.43951">
        <ele>798.883301</ele>
        <time>2021-05-05T08:30:08Z</time>
      </trkpt>
      <trkpt lat="44.24596" lon="5.43967">
        <ele>795.25116</ele>
        <time>2021-05-05T08:30:21Z</time>
      </trkpt>
      <trkpt lat="44.24701" lon="5.43992">
        <ele>798.684814</ele>
        <time>2021-05-05T08:30:34Z</time>
      </trkpt>
      <trkpt lat="44.24782" lon="5.44045">
        <ele>796.132813</ele>
        <time>2021-05-05T08:30:46Z</time>
      </trkpt>
      <trkpt lat="44.24882" lon="5.4414">
        <ele>790.747009</ele>
        <time>2021-05-05T08:31:04Z</time>
      </trkpt>
      <trkpt lat="44.24887" lon="5.44143">
        <ele>789.855103</ele>
        <time>2021-05-05T08:31:05Z</time>
      </trkpt>
      <trkpt lat="44.24893" lon="5.44146">
        <ele>788.954834</ele>
        <time>2021-05-05T08:31:06Z</time>
      </trkpt>
      <trkpt lat="44.24899" lon="5.44148">
        <ele>787.997314</ele>
        <time>2021-05-05T08:31:07Z</time>
      </trkpt>
      <trkpt lat="44.24905" lon="5.44148">
        <ele>787.076294</ele>
        <time>2021-05-05T08:31:08Z</time>
      </trkpt>
      <trkpt lat="44.24911" lon="5.44149">
        <ele>786.177795</ele>
        <time>2021-05-05T08:31:09Z</time>
      </trkpt>
      <trkpt lat="44.24965" lon="5.4416">
        <ele>779.848022</ele>
        <time>2021-05-05T08:31:18Z</time>
      </trkpt>
      <trkpt lat="44.2497" lon="5.44163">
        <ele>779.209351</ele>
        <time>2021-05-05T08:31:19Z</time>
      </trkpt>
      <trkpt lat="44.25059" lon="5.44248">
        <ele>777.213379</ele>
        <time>2021-05-05T08:31:37Z</time>
      </trkpt>
      <trkpt lat="44.25137" lon="5.4433">
        <ele>780.173462</ele>
        <time>2021-05-05T08:31:57Z</time>
      </trkpt>
      <trkpt lat="44.25171" lon="5.44327">
        <ele>781.177185</ele>
        <time>2021-05-05T08:32:07Z</time>
      </trkpt>
      <trkpt lat="44.25188" lon="5.44322">
        <ele>781.370789</ele>
        <time>2021-05-05T08:32:19Z</time>
      </trkpt>
      <trkpt lat="44.25193" lon="5.44322">
        <ele>781.451477</ele>
        <time>2021-05-05T08:32:35Z</time>
      </trkpt>
      <trkpt lat="44.25193" lon="5.44322">
        <ele>781.462036</ele>
        <time>2021-05-05T08:32:58Z</time>
      </trkpt>
      <trkpt lat="44.25192" lon="5.44326">
        <ele>781.745483</ele>
        <time>2021-05-05T08:33:09Z</time>
      </trkpt>
      <trkpt lat="44.25159" lon="5.44341">
        <ele>781.567993</ele>
        <time>2021-05-05T08:33:20Z</time>
      </trkpt>
      <trkpt lat="44.25092" lon="5.44381">
        <ele>782.481873</ele>
        <time>2021-05-05T08:33:39Z</time>
      </trkpt>
      <trkpt lat="44.25043" lon="5.44452">
        <ele>787.983154</ele>
        <time>2021-05-05T08:33:55Z</time>
      </trkpt>
      <trkpt lat="44.24983" lon="5.44497">
        <ele>790.923096</ele>
        <time>2021-05-05T08:34:10Z</time>
      </trkpt>
      <trkpt lat="44.24979" lon="5.445">
        <ele>791.089844</ele>
        <time>2021-05-05T08:34:11Z</time>
      </trkpt>
      <trkpt lat="44.24975" lon="5.44503">
        <ele>791.333984</ele>
        <time>2021-05-05T08:34:12Z</time>
      </trkpt>
      <trkpt lat="44.24925" lon="5.44557">
        <ele>794.217896</ele>
        <time>2021-05-05T08:34:26Z</time>
      </trkpt>
      <trkpt lat="44.24885" lon="5.44598">
        <ele>794.774414</ele>
        <time>2021-05-05T08:34:39Z</time>
      </trkpt>
      <trkpt lat="44.24837" lon="5.44648">
        <ele>794.637146</ele>
        <time>2021-05-05T08:34:54Z</time>
      </trkpt>
      <trkpt lat="44.2483" lon="5.44655">
        <ele>794.598145</ele>
        <time>2021-05-05T08:34:56Z</time>
      </trkpt>
      <trkpt lat="44.24784" lon="5.44695">
        <ele>796.302307</ele>
        <time>2021-05-05T08:35:09Z</time>
      </trkpt>
      <trkpt lat="44.24748" lon="5.44726">
        <ele>796.072693</ele>
        <time>2021-05-05T08:35:19Z</time>
      </trkpt>
      <trkpt lat="44.24745" lon="5.4473">
        <ele>796.159546</ele>
        <time>2021-05-05T08:35:20Z</time>
      </trkpt>
      <trkpt lat="44.24721" lon="5.44775">
        <ele>798.400269</ele>
        <time>2021-05-05T08:35:30Z</time>
      </trkpt>
      <trkpt lat="44.24698" lon="5.44843">
        <ele>800.372925</ele>
        <time>2021-05-05T08:35:45Z</time>
      </trkpt>
      <trkpt lat="44.24662" lon="5.44922">
        <ele>802.240234</ele>
        <time>2021-05-05T08:36:01Z</time>
      </trkpt>
      <trkpt lat="44.24619" lon="5.44995">
        <ele>804.871155</ele>
        <time>2021-05-05T08:36:17Z</time>
      </trkpt>
      <trkpt lat="44.24616" lon="5.44999">
        <ele>804.954224</ele>
        <time>2021-05-05T08:36:18Z</time>
      </trkpt>
      <trkpt lat="44.24572" lon="5.4507">
        <ele>807.134399</ele>
        <time>2021-05-05T08:36:34Z</time>
      </trkpt>
      <trkpt lat="44.24552" lon="5.451">
        <ele>808.221802</ele>
        <time>2021-05-05T08:36:41Z</time>
      </trkpt>
      <trkpt lat="44.24511" lon="5.45142">
        <ele>809.4422</ele>
        <time>2021-05-05T08:36:53Z</time>
      </trkpt>
      <trkpt lat="44.24454" lon="5.4521">
        <ele>809.639404</ele>
        <time>2021-05-05T08:37:12Z</time>
      </trkpt>
      <trkpt lat="44.24414" lon="5.4529">
        <ele>810.617737</ele>
        <time>2021-05-05T08:37:31Z</time>
      </trkpt>
      <trkpt lat="44.24389" lon="5.45362">
        <ele>811.321106</ele>
        <time>2021-05-05T08:37:47Z</time>
      </trkpt>
      <trkpt lat="44.24379" lon="5.45431">
        <ele>813.108887</ele>
        <time>2021-05-05T08:38:01Z</time>
      </trkpt>
      <trkpt lat="44.24377" lon="5.45511">
        <ele>815.820007</ele>
        <time>2021-05-05T08:38:18Z</time>
      </trkpt>
      <trkpt lat="44.24379" lon="5.4563">
        <ele>818.774231</ele>
        <time>2021-05-05T08:38:42Z</time>
      </trkpt>
      <trkpt lat="44.24365" lon="5.45714">
        <ele>819.52948</ele>
        <time>2021-05-05T08:39:00Z</time>
      </trkpt>
      <trkpt lat="44.2434" lon="5.458">
        <ele>821.115967</ele>
        <time>2021-05-05T08:39:19Z</time>
      </trkpt>
      <trkpt lat="44.24309" lon="5.45882">
        <ele>822.057251</ele>
        <time>2021-05-05T08:39:39Z</time>
      </trkpt>
      <trkpt lat="44.243" lon="5.45956">
        <ele>823.655579</ele>
        <time>2021-05-05T08:39:55Z</time>
      </trkpt>
      <trkpt lat="44.24283" lon="5.46019">
        <ele>824.626221</ele>
        <time>2021-05-05T08:40:10Z</time>
      </trkpt>
      <trkpt lat="44.24259" lon="5.46035">
        <ele>824.203857</ele>
        <time>2021-05-05T08:40:22Z</time>
      </trkpt>
      <trkpt lat="44.24252" lon="5.46037">
        <ele>823.900269</ele>
        <time>2021-05-05T08:40:40Z</time>
      </trkpt>
      <trkpt lat="44.24205" lon="5.46061">
        <ele>823.365967</ele>
        <time>2021-05-05T08:40:55Z</time>
      </trkpt>
      <trkpt lat="44.24159" lon="5.46124">
        <ele>825.249023</ele>
        <time>2021-05-05T08:41:14Z</time>
      </trkpt>
      <trkpt lat="44.24154" lon="5.46131">
        <ele>825.338013</ele>
        <time>2021-05-05T08:41:17Z</time>
      </trkpt>
      <trkpt lat="44.24154" lon="5.46133">
        <ele>825.584045</ele>
        <time>2021-05-05T08:41:18Z</time>
      </trkpt>
      <trkpt lat="44.24157" lon="5.46134">
        <ele>826.098206</ele>
        <time>2021-05-05T08:41:20Z</time>
      </trkpt>
      <trkpt lat="44.2416" lon="5.46131">
        <ele>826.082397</ele>
        <time>2021-05-05T08:41:21Z</time>
      </trkpt>
      <trkpt lat="44.24161" lon="5.46128">
        <ele>826.062317</ele>
        <time>2021-05-05T08:41:22Z</time>
      </trkpt>
      <trkpt lat="44.24164" lon="5.46125">
        <ele>826.033081</ele>
        <time>2021-05-05T08:41:23Z</time>
      </trkpt>
      <trkpt lat="44.24184" lon="5.46096">
        <ele>825.502136</ele>
        <time>2021-05-05T08:41:32Z</time>
      </trkpt>
      <trkpt lat="44.24183" lon="5.46093">
        <ele>825.10968</ele>
        <time>2021-05-05T08:41:33Z</time>
      </trkpt>
      <trkpt lat="44.24182" lon="5.46091">
        <ele>824.7724</ele>
        <time>2021-05-05T08:41:34Z</time>
      </trkpt>
      <trkpt lat="44.2418" lon="5.46091">
        <ele>824.625122</ele>
        <time>2021-05-05T08:41:35Z</time>
      </trkpt>
      <trkpt lat="44.2418" lon="5.46092">
        <ele>824.795837</ele>
        <time>2021-05-05T08:41:48Z</time>
      </trkpt>
      <trkpt lat="44.24179" lon="5.46091">
        <ele>824.623779</ele>
        <time>2021-05-05T08:42:12Z</time>
      </trkpt>
      <trkpt lat="44.24178" lon="5.46093">
        <ele>824.68866</ele>
        <time>2021-05-05T08:42:23Z</time>
      </trkpt>
      <trkpt lat="44.24177" lon="5.46096">
        <ele>824.802734</ele>
        <time>2021-05-05T08:42:25Z</time>
      </trkpt>
      <trkpt lat="44.24161" lon="5.46119">
        <ele>825.197449</ele>
        <time>2021-05-05T08:42:36Z</time>
      </trkpt>
      <trkpt lat="44.24131" lon="5.46184">
        <ele>827.402832</ele>
        <time>2021-05-05T08:42:52Z</time>
      </trkpt>
      <trkpt lat="44.24116" lon="5.46262">
        <ele>829.941528</ele>
        <time>2021-05-05T08:43:09Z</time>
      </trkpt>
      <trkpt lat="44.24093" lon="5.46331">
        <ele>829.149536</ele>
        <time>2021-05-05T08:43:24Z</time>
      </trkpt>
      <trkpt lat="44.24083" lon="5.46397">
        <ele>829.937683</ele>
        <time>2021-05-05T08:43:36Z</time>
      </trkpt>
      <trkpt lat="44.24087" lon="5.46437">
        <ele>830.929016</ele>
        <time>2021-05-05T08:43:42Z</time>
      </trkpt>
      <trkpt lat="44.24087" lon="5.46444">
        <ele>831.132568</ele>
        <time>2021-05-05T08:43:43Z</time>
      </trkpt>
      <trkpt lat="44.24086" lon="5.46451">
        <ele>831.355957</ele>
        <time>2021-05-05T08:43:44Z</time>
      </trkpt>
      <trkpt lat="44.24085" lon="5.46463">
        <ele>831.730408</ele>
        <time>2021-05-05T08:43:46Z</time>
      </trkpt>
      <trkpt lat="44.24084" lon="5.4647">
        <ele>831.913269</ele>
        <time>2021-05-05T08:43:47Z</time>
      </trkpt>
      <trkpt lat="44.24081" lon="5.46481">
        <ele>832.226196</ele>
        <time>2021-05-05T08:43:49Z</time>
      </trkpt>
      <trkpt lat="44.24077" lon="5.46492">
        <ele>832.497986</ele>
        <time>2021-05-05T08:43:51Z</time>
      </trkpt>
      <trkpt lat="44.24075" lon="5.46497">
        <ele>832.602539</ele>
        <time>2021-05-05T08:43:52Z</time>
      </trkpt>
      <trkpt lat="44.24028" lon="5.46573">
        <ele>833.955261</ele>
        <time>2021-05-05T08:44:09Z</time>
      </trkpt>
      <trkpt lat="44.24008" lon="5.46603">
        <ele>834.772766</ele>
        <time>2021-05-05T08:44:16Z</time>
      </trkpt>
      <trkpt lat="44.23959" lon="5.46674">
        <ele>836.16864</ele>
        <time>2021-05-05T08:44:34Z</time>
      </trkpt>
      <trkpt lat="44.23909" lon="5.46748">
        <ele>837.260132</ele>
        <time>2021-05-05T08:44:53Z</time>
      </trkpt>
      <trkpt lat="44.23849" lon="5.46807">
        <ele>838.181458</ele>
        <time>2021-05-05T08:45:12Z</time>
      </trkpt>
      <trkpt lat="44.23783" lon="5.46856">
        <ele>838.650879</ele>
        <time>2021-05-05T08:45:32Z</time>
      </trkpt>
      <trkpt lat="44.23726" lon="5.46898">
        <ele>840.631226</ele>
        <time>2021-05-05T08:45:50Z</time>
      </trkpt>
      <trkpt lat="44.23675" lon="5.46934">
        <ele>844.063354</ele>
        <time>2021-05-05T08:46:06Z</time>
      </trkpt>
      <trkpt lat="44.23612" lon="5.4698">
        <ele>847.821533</ele>
        <time>2021-05-05T08:46:26Z</time>
      </trkpt>
      <trkpt lat="44.23554" lon="5.47023">
        <ele>851.331726</ele>
        <time>2021-05-05T08:46:44Z</time>
      </trkpt>
      <trkpt lat="44.23494" lon="5.47067">
        <ele>854.842163</ele>
        <time>2021-05-05T08:47:03Z</time>
      </trkpt>
      <trkpt lat="44.23437" lon="5.47108">
        <ele>858.127075</ele>
        <time>2021-05-05T08:47:22Z</time>
      </trkpt>
      <trkpt lat="44.23388" lon="5.47143">
        <ele>859.894775</ele>
        <time>2021-05-05T08:47:39Z</time>
      </trkpt>
      <trkpt lat="44.23353" lon="5.47175">
        <ele>862.384705</ele>
        <time>2021-05-05T08:47:52Z</time>
      </trkpt>
      <trkpt lat="44.2331" lon="5.47225">
        <ele>866.727417</ele>
        <time>2021-05-05T08:48:09Z</time>
      </trkpt>
      <trkpt lat="44.23269" lon="5.47284">
        <ele>872.22113</ele>
        <time>2021-05-05T08:48:27Z</time>
      </trkpt>
      <trkpt lat="44.23235" lon="5.47338">
        <ele>875.66449</ele>
        <time>2021-05-05T08:48:43Z</time>
      </trkpt>
      <trkpt lat="44.23202" lon="5.47388">
        <ele>878.690613</ele>
        <time>2021-05-05T08:48:59Z</time>
      </trkpt>
      <trkpt lat="44.23166" lon="5.47442">
        <ele>881.5849</ele>
        <time>2021-05-05T08:49:16Z</time>
      </trkpt>
      <trkpt lat="44.23141" lon="5.47503">
        <ele>888.415771</ele>
        <time>2021-05-05T08:49:33Z</time>
      </trkpt>
      <trkpt lat="44.23137" lon="5.47568">
        <ele>895.102478</ele>
        <time>2021-05-05T08:49:49Z</time>
      </trkpt>
      <trkpt lat="44.23139" lon="5.47649">
        <ele>900.281799</ele>
        <time>2021-05-05T08:50:09Z</time>
      </trkpt>
      <trkpt lat="44.2313" lon="5.47734">
        <ele>902.382263</ele>
        <time>2021-05-05T08:50:27Z</time>
      </trkpt>
      <trkpt lat="44.23123" lon="5.47823">
        <ele>901.124756</ele>
        <time>2021-05-05T08:50:38Z</time>
      </trkpt>
      <trkpt lat="44.23121" lon="5.47842">
        <ele>900.102417</ele>
        <time>2021-05-05T08:50:40Z</time>
      </trkpt>
      <trkpt lat="44.23102" lon="5.48038">
        <ele>883.715637</ele>
        <time>2021-05-05T08:50:58Z</time>
      </trkpt>
      <trkpt lat="44.2307" lon="5.4824">
        <ele>874.910706</ele>
        <time>2021-05-05T08:51:12Z</time>
      </trkpt>
      <trkpt lat="44.23008" lon="5.48482">
        <ele>861.382385</ele>
        <time>2021-05-05T08:51:28Z</time>
      </trkpt>
      <trkpt lat="44.22981" lon="5.48617">
        <ele>857.912842</ele>
        <time>2021-05-05T08:51:40Z</time>
      </trkpt>
      <trkpt lat="44.22975" lon="5.48659">
        <ele>856.85022</ele>
        <time>2021-05-05T08:51:48Z</time>
      </trkpt>
      <trkpt lat="44.22974" lon="5.48657">
        <ele>856.965332</ele>
        <time>2021-05-05T08:52:11Z</time>
      </trkpt>
      <trkpt lat="44.22975" lon="5.48658">
        <ele>856.874817</ele>
        <time>2021-05-05T08:52:33Z</time>
      </trkpt>
      <trkpt lat="44.22975" lon="5.48658">
        <ele>856.898193</ele>
        <time>2021-05-05T08:53:03Z</time>
      </trkpt>
      <trkpt lat="44.22975" lon="5.48657">
        <ele>856.910522</ele>
        <time>2021-05-05T08:53:23Z</time>
      </trkpt>
      <trkpt lat="44.22974" lon="5.48658">
        <ele>856.932983</ele>
        <time>2021-05-05T08:53:41Z</time>
      </trkpt>
      <trkpt lat="44.22975" lon="5.48662">
        <ele>856.767517</ele>
        <time>2021-05-05T08:53:45Z</time>
      </trkpt>
      <trkpt lat="44.22975" lon="5.48664">
        <ele>856.70343</ele>
        <time>2021-05-05T08:53:46Z</time>
      </trkpt>
      <trkpt lat="44.22974" lon="5.48667">
        <ele>856.616211</ele>
        <time>2021-05-05T08:53:47Z</time>
      </trkpt>
      <trkpt lat="44.22974" lon="5.4867">
        <ele>856.535095</ele>
        <time>2021-05-05T08:53:48Z</time>
      </trkpt>
      <trkpt lat="44.22974" lon="5.48674">
        <ele>856.431458</ele>
        <time>2021-05-05T08:53:49Z</time>
      </trkpt>
      <trkpt lat="44.22962" lon="5.48756">
        <ele>854.157166</ele>
        <time>2021-05-05T08:54:03Z</time>
      </trkpt>
      <trkpt lat="44.22945" lon="5.48892">
        <ele>850.421448</ele>
        <time>2021-05-05T08:54:21Z</time>
      </trkpt>
      <trkpt lat="44.22927" lon="5.49028">
        <ele>850.016174</ele>
        <time>2021-05-05T08:54:40Z</time>
      </trkpt>
      <trkpt lat="44.22907" lon="5.49172">
        <ele>849.214233</ele>
        <time>2021-05-05T08:54:57Z</time>
      </trkpt>
      <trkpt lat="44.22877" lon="5.49331">
        <ele>845.709717</ele>
        <time>2021-05-05T08:55:16Z</time>
      </trkpt>
      <trkpt lat="44.22851" lon="5.49469">
        <ele>843.438354</ele>
        <time>2021-05-05T08:55:33Z</time>
      </trkpt>
      <trkpt lat="44.22815" lon="5.49665">
        <ele>841.259949</ele>
        <time>2021-05-05T08:55:54Z</time>
      </trkpt>
      <trkpt lat="44.22781" lon="5.498">
        <ele>838.739014</ele>
        <time>2021-05-05T08:56:10Z</time>
      </trkpt>
      <trkpt lat="44.22732" lon="5.49936">
        <ele>836.860596</ele>
        <time>2021-05-05T08:56:25Z</time>
      </trkpt>
      <trkpt lat="44.22696" lon="5.5011">
        <ele>828.164795</ele>
        <time>2021-05-05T08:56:42Z</time>
      </trkpt>
      <trkpt lat="44.22669" lon="5.50311">
        <ele>820.592529</ele>
        <time>2021-05-05T08:57:01Z</time>
      </trkpt>
      <trkpt lat="44.22639" lon="5.50543">
        <ele>814.33075</ele>
        <time>2021-05-05T08:57:21Z</time>
      </trkpt>
      <trkpt lat="44.22603" lon="5.50708">
        <ele>816.388611</ele>
        <time>2021-05-05T08:57:38Z</time>
      </trkpt>
      <trkpt lat="44.22565" lon="5.50809">
        <ele>815.616638</ele>
        <time>2021-05-05T08:57:53Z</time>
      </trkpt>
      <trkpt lat="44.22529" lon="5.50907">
        <ele>814.234192</ele>
        <time>2021-05-05T08:58:11Z</time>
      </trkpt>
      <trkpt lat="44.22489" lon="5.51014">
        <ele>811.445618</ele>
        <time>2021-05-05T08:58:24Z</time>
      </trkpt>
      <trkpt lat="44.22436" lon="5.51159">
        <ele>808.664124</ele>
        <time>2021-05-05T08:58:39Z</time>
      </trkpt>
      <trkpt lat="44.22385" lon="5.51295">
        <ele>808.272766</ele>
        <time>2021-05-05T08:58:57Z</time>
      </trkpt>
      <trkpt lat="44.2234" lon="5.51417">
        <ele>808.266418</ele>
        <time>2021-05-05T08:59:13Z</time>
      </trkpt>
      <trkpt lat="44.22279" lon="5.51582">
        <ele>807.714966</ele>
        <time>2021-05-05T08:59:36Z</time>
      </trkpt>
      <trkpt lat="44.22226" lon="5.51725">
        <ele>807.114319</ele>
        <time>2021-05-05T08:59:55Z</time>
      </trkpt>
      <trkpt lat="44.22186" lon="5.5186">
        <ele>804.103271</ele>
        <time>2021-05-05T09:00:11Z</time>
      </trkpt>
      <trkpt lat="44.22153" lon="5.52031">
        <ele>803.926453</ele>
        <time>2021-05-05T09:00:29Z</time>
      </trkpt>
      <trkpt lat="44.22127" lon="5.52201">
        <ele>800.788696</ele>
        <time>2021-05-05T09:00:46Z</time>
      </trkpt>
      <trkpt lat="44.22114" lon="5.52357">
        <ele>799.779785</ele>
        <time>2021-05-05T09:01:03Z</time>
      </trkpt>
      <trkpt lat="44.22098" lon="5.52538">
        <ele>797.65564</ele>
        <time>2021-05-05T09:01:23Z</time>
      </trkpt>
      <trkpt lat="44.22085" lon="5.5269">
        <ele>795.052368</ele>
        <time>2021-05-05T09:01:40Z</time>
      </trkpt>
      <trkpt lat="44.22081" lon="5.52801">
        <ele>795.667847</ele>
        <time>2021-05-05T09:01:53Z</time>
      </trkpt>
      <trkpt lat="44.22074" lon="5.52992">
        <ele>794.837463</ele>
        <time>2021-05-05T09:02:16Z</time>
      </trkpt>
      <trkpt lat="44.22068" lon="5.53158">
        <ele>791.632141</ele>
        <time>2021-05-05T09:02:35Z</time>
      </trkpt>
      <trkpt lat="44.22064" lon="5.53275">
        <ele>791.386169</ele>
        <time>2021-05-05T09:02:49Z</time>
      </trkpt>
      <trkpt lat="44.22059" lon="5.5344">
        <ele>787.599426</ele>
        <time>2021-05-05T09:03:09Z</time>
      </trkpt>
      <trkpt lat="44.22054" lon="5.53588">
        <ele>785.156982</ele>
        <time>2021-05-05T09:03:23Z</time>
      </trkpt>
      <trkpt lat="44.22045" lon="5.53833">
        <ele>779.85675</ele>
        <time>2021-05-05T09:03:43Z</time>
      </trkpt>
      <trkpt lat="44.22039" lon="5.53947">
        <ele>779.462585</ele>
        <time>2021-05-05T09:03:53Z</time>
      </trkpt>
      <trkpt lat="44.22036" lon="5.53956">
        <ele>779.270508</ele>
        <time>2021-05-05T09:03:54Z</time>
      </trkpt>
      <trkpt lat="44.22034" lon="5.53966">
        <ele>778.947937</ele>
        <time>2021-05-05T09:03:55Z</time>
      </trkpt>
      <trkpt lat="44.2203" lon="5.53975">
        <ele>778.636108</ele>
        <time>2021-05-05T09:03:56Z</time>
      </trkpt>
      <trkpt lat="44.22027" lon="5.53983">
        <ele>778.374084</ele>
        <time>2021-05-05T09:03:57Z</time>
      </trkpt>
      <trkpt lat="44.22023" lon="5.5399">
        <ele>778.148438</ele>
        <time>2021-05-05T09:03:58Z</time>
      </trkpt>
      <trkpt lat="44.22018" lon="5.53996">
        <ele>777.944458</ele>
        <time>2021-05-05T09:03:59Z</time>
      </trkpt>
      <trkpt lat="44.22013" lon="5.54002">
        <ele>777.749939</ele>
        <time>2021-05-05T09:04:00Z</time>
      </trkpt>
      <trkpt lat="44.21989" lon="5.54023">
        <ele>777.07196</ele>
        <time>2021-05-05T09:04:05Z</time>
      </trkpt>
      <trkpt lat="44.21933" lon="5.54077">
        <ele>778.461609</ele>
        <time>2021-05-05T09:04:18Z</time>
      </trkpt>
      <trkpt lat="44.2193" lon="5.54083">
        <ele>778.693176</ele>
        <time>2021-05-05T09:04:19Z</time>
      </trkpt>
      <trkpt lat="44.21882" lon="5.54176">
        <ele>781.672668</ele>
        <time>2021-05-05T09:04:37Z</time>
      </trkpt>
      <trkpt lat="44.21853" lon="5.54195">
        <ele>783.445313</ele>
        <time>2021-05-05T09:04:44Z</time>
      </trkpt>
      <trkpt lat="44.21848" lon="5.54197">
        <ele>783.712097</ele>
        <time>2021-05-05T09:04:45Z</time>
      </trkpt>
      <trkpt lat="44.21741" lon="5.5422">
        <ele>784.462036</ele>
        <time>2021-05-05T09:05:06Z</time>
      </trkpt>
      <trkpt lat="44.21647" lon="5.54246">
        <ele>781.817749</ele>
        <time>2021-05-05T09:05:24Z</time>
      </trkpt>
      <trkpt lat="44.2159" lon="5.54284">
        <ele>780.788452</ele>
        <time>2021-05-05T09:05:38Z</time>
      </trkpt>
      <trkpt lat="44.21582" lon="5.54289">
        <ele>781.458679</ele>
        <time>2021-05-05T09:05:40Z</time>
      </trkpt>
      <trkpt lat="44.21567" lon="5.54301">
        <ele>783.401489</ele>
        <time>2021-05-05T09:05:44Z</time>
      </trkpt>
      <trkpt lat="44.21563" lon="5.54303">
        <ele>783.996948</ele>
        <time>2021-05-05T09:05:45Z</time>
      </trkpt>
      <trkpt lat="44.21559" lon="5.54303">
        <ele>784.52594</ele>
        <time>2021-05-05T09:05:46Z</time>
      </trkpt>
      <trkpt lat="44.21555" lon="5.54302">
        <ele>784.811646</ele>
        <time>2021-05-05T09:05:47Z</time>
      </trkpt>
      <trkpt lat="44.21552" lon="5.54299">
        <ele>784.964294</ele>
        <time>2021-05-05T09:05:48Z</time>
      </trkpt>
      <trkpt lat="44.21548" lon="5.54295">
        <ele>785.054321</ele>
        <time>2021-05-05T09:05:49Z</time>
      </trkpt>
      <trkpt lat="44.21544" lon="5.54291">
        <ele>785.07666</ele>
        <time>2021-05-05T09:05:50Z</time>
      </trkpt>
      <trkpt lat="44.21477" lon="5.54218">
        <ele>783.059082</ele>
        <time>2021-05-05T09:06:08Z</time>
      </trkpt>
      <trkpt lat="44.21415" lon="5.54146">
        <ele>786.348938</ele>
        <time>2021-05-05T09:06:25Z</time>
      </trkpt>
      <trkpt lat="44.21332" lon="5.54054">
        <ele>791.542664</ele>
        <time>2021-05-05T09:06:48Z</time>
      </trkpt>
      <trkpt lat="44.21257" lon="5.54">
        <ele>791.72583</ele>
        <time>2021-05-05T09:07:07Z</time>
      </trkpt>
      <trkpt lat="44.21163" lon="5.53951">
        <ele>794.003052</ele>
        <time>2021-05-05T09:07:29Z</time>
      </trkpt>
      <trkpt lat="44.21084" lon="5.53907">
        <ele>795.531311</ele>
        <time>2021-05-05T09:07:48Z</time>
      </trkpt>
      <trkpt lat="44.21015" lon="5.53844">
        <ele>798.354736</ele>
        <time>2021-05-05T09:08:06Z</time>
      </trkpt>
      <trkpt lat="44.20966" lon="5.53756">
        <ele>798.493164</ele>
        <time>2021-05-05T09:08:23Z</time>
      </trkpt>
      <trkpt lat="44.20927" lon="5.53656">
        <ele>797.153076</ele>
        <time>2021-05-05T09:08:40Z</time>
      </trkpt>
      <trkpt lat="44.20924" lon="5.53652">
        <ele>797.146606</ele>
        <time>2021-05-05T09:08:41Z</time>
      </trkpt>
      <trkpt lat="44.2092" lon="5.53648">
        <ele>797.269897</ele>
        <time>2021-05-05T09:08:42Z</time>
      </trkpt>
      <trkpt lat="44.20915" lon="5.53645">
        <ele>797.410645</ele>
        <time>2021-05-05T09:08:43Z</time>
      </trkpt>
      <trkpt lat="44.20911" lon="5.53643">
        <ele>797.462646</ele>
        <time>2021-05-05T09:08:44Z</time>
      </trkpt>
      <trkpt lat="44.20906" lon="5.53641">
        <ele>797.590942</ele>
        <time>2021-05-05T09:08:45Z</time>
      </trkpt>
      <trkpt lat="44.20901" lon="5.53641">
        <ele>797.811462</ele>
        <time>2021-05-05T09:08:46Z</time>
      </trkpt>
      <trkpt lat="44.20896" lon="5.53641">
        <ele>798.08075</ele>
        <time>2021-05-05T09:08:47Z</time>
      </trkpt>
      <trkpt lat="44.20891" lon="5.53642">
        <ele>798.369629</ele>
        <time>2021-05-05T09:08:48Z</time>
      </trkpt>
      <trkpt lat="44.20809" lon="5.53659">
        <ele>798.814575</ele>
        <time>2021-05-05T09:09:05Z</time>
      </trkpt>
      <trkpt lat="44.20791" lon="5.53661">
        <ele>800.305054</ele>
        <time>2021-05-05T09:09:09Z</time>
      </trkpt>
      <trkpt lat="44.20782" lon="5.5366">
        <ele>800.290161</ele>
        <time>2021-05-05T09:09:11Z</time>
      </trkpt>
      <trkpt lat="44.20732" lon="5.53645">
        <ele>804.019714</ele>
        <time>2021-05-05T09:09:22Z</time>
      </trkpt>
      <trkpt lat="44.20661" lon="5.53647">
        <ele>809.509033</ele>
        <time>2021-05-05T09:09:37Z</time>
      </trkpt>
      <trkpt lat="44.20598" lon="5.53673">
        <ele>806.171936</ele>
        <time>2021-05-05T09:09:51Z</time>
      </trkpt>
      <trkpt lat="44.20572" lon="5.53683">
        <ele>802.399414</ele>
        <time>2021-05-05T09:09:57Z</time>
      </trkpt>
      <trkpt lat="44.20564" lon="5.53684">
        <ele>801.450928</ele>
        <time>2021-05-05T09:09:59Z</time>
      </trkpt>
      <trkpt lat="44.2056" lon="5.53684">
        <ele>800.777588</ele>
        <time>2021-05-05T09:10:00Z</time>
      </trkpt>
      <trkpt lat="44.20556" lon="5.53683">
        <ele>800.100525</ele>
        <time>2021-05-05T09:10:01Z</time>
      </trkpt>
      <trkpt lat="44.20551" lon="5.53681">
        <ele>800.412231</ele>
        <time>2021-05-05T09:10:02Z</time>
      </trkpt>
      <trkpt lat="44.20546" lon="5.53679">
        <ele>800.945435</ele>
        <time>2021-05-05T09:10:03Z</time>
      </trkpt>
      <trkpt lat="44.2051" lon="5.53665">
        <ele>804.845825</ele>
        <time>2021-05-05T09:10:11Z</time>
      </trkpt>
      <trkpt lat="44.20507" lon="5.53662">
        <ele>805.438171</ele>
        <time>2021-05-05T09:10:12Z</time>
      </trkpt>
      <trkpt lat="44.20503" lon="5.53659">
        <ele>806.039673</ele>
        <time>2021-05-05T09:10:13Z</time>
      </trkpt>
      <trkpt lat="44.205" lon="5.53656">
        <ele>806.618469</ele>
        <time>2021-05-05T09:10:14Z</time>
      </trkpt>
      <trkpt lat="44.20497" lon="5.53653">
        <ele>807.10199</ele>
        <time>2021-05-05T09:10:15Z</time>
      </trkpt>
      <trkpt lat="44.20493" lon="5.5365">
        <ele>807.612854</ele>
        <time>2021-05-05T09:10:16Z</time>
      </trkpt>
      <trkpt lat="44.2049" lon="5.53647">
        <ele>808.055725</ele>
        <time>2021-05-05T09:10:17Z</time>
      </trkpt>
      <trkpt lat="44.20442" lon="5.53633">
        <ele>809.116638</ele>
        <time>2021-05-05T09:10:30Z</time>
      </trkpt>
      <trkpt lat="44.20394" lon="5.53633">
        <ele>808.162598</ele>
        <time>2021-05-05T09:10:42Z</time>
      </trkpt>
      <trkpt lat="44.20389" lon="5.53634">
        <ele>808.007263</ele>
        <time>2021-05-05T09:10:43Z</time>
      </trkpt>
      <trkpt lat="44.20362" lon="5.53644">
        <ele>807.367004</ele>
        <time>2021-05-05T09:10:49Z</time>
      </trkpt>
      <trkpt lat="44.20357" lon="5.53646">
        <ele>807.213623</ele>
        <time>2021-05-05T09:10:50Z</time>
      </trkpt>
      <trkpt lat="44.20336" lon="5.5366">
        <ele>806.246338</ele>
        <time>2021-05-05T09:10:55Z</time>
      </trkpt>
      <trkpt lat="44.20331" lon="5.53662">
        <ele>806.061035</ele>
        <time>2021-05-05T09:10:56Z</time>
      </trkpt>
      <trkpt lat="44.20276" lon="5.53678">
        <ele>806.812561</ele>
        <time>2021-05-05T09:11:10Z</time>
      </trkpt>
      <trkpt lat="44.20192" lon="5.53685">
        <ele>810.509827</ele>
        <time>2021-05-05T09:11:31Z</time>
      </trkpt>
      <trkpt lat="44.20109" lon="5.53688">
        <ele>811.422119</ele>
        <time>2021-05-05T09:11:51Z</time>
      </trkpt>
      <trkpt lat="44.20101" lon="5.53688">
        <ele>811.544434</ele>
        <time>2021-05-05T09:11:53Z</time>
      </trkpt>
      <trkpt lat="44.20029" lon="5.53698">
        <ele>811.664734</ele>
        <time>2021-05-05T09:12:11Z</time>
      </trkpt>
      <trkpt lat="44.19974" lon="5.53714">
        <ele>811.810242</ele>
        <time>2021-05-05T09:12:25Z</time>
      </trkpt>
      <trkpt lat="44.19917" lon="5.53735">
        <ele>811.883484</ele>
        <time>2021-05-05T09:12:40Z</time>
      </trkpt>
      <trkpt lat="44.19849" lon="5.53757">
        <ele>812.707825</ele>
        <time>2021-05-05T09:12:57Z</time>
      </trkpt>
      <trkpt lat="44.19777" lon="5.53761">
        <ele>814.242004</ele>
        <time>2021-05-05T09:13:15Z</time>
      </trkpt>
      <trkpt lat="44.19713" lon="5.53762">
        <ele>815.643311</ele>
        <time>2021-05-05T09:13:31Z</time>
      </trkpt>
      <trkpt lat="44.19638" lon="5.53764">
        <ele>818.609924</ele>
        <time>2021-05-05T09:13:50Z</time>
      </trkpt>
      <trkpt lat="44.19564" lon="5.53766">
        <ele>821.237976</ele>
        <time>2021-05-05T09:14:09Z</time>
      </trkpt>
      <trkpt lat="44.19489" lon="5.53765">
        <ele>821.890137</ele>
        <time>2021-05-05T09:14:28Z</time>
      </trkpt>
      <trkpt lat="44.19407" lon="5.53758">
        <ele>823.482117</ele>
        <time>2021-05-05T09:14:48Z</time>
      </trkpt>
      <trkpt lat="44.19317" lon="5.5375">
        <ele>828.389282</ele>
        <time>2021-05-05T09:15:11Z</time>
      </trkpt>
      <trkpt lat="44.19245" lon="5.53744">
        <ele>833.098999</ele>
        <time>2021-05-05T09:15:30Z</time>
      </trkpt>
      <trkpt lat="44.19215" lon="5.53741">
        <ele>834.572388</ele>
        <time>2021-05-05T09:15:38Z</time>
      </trkpt>
      <trkpt lat="44.1916" lon="5.53736">
        <ele>835.396667</ele>
        <time>2021-05-05T09:15:53Z</time>
      </trkpt>
      <trkpt lat="44.19112" lon="5.53731">
        <ele>835.710144</ele>
        <time>2021-05-05T09:16:08Z</time>
      </trkpt>
      <trkpt lat="44.19038" lon="5.53724">
        <ele>841.015076</ele>
        <time>2021-05-05T09:16:29Z</time>
      </trkpt>
      <trkpt lat="44.18991" lon="5.5372">
        <ele>846.932068</ele>
        <time>2021-05-05T09:16:44Z</time>
      </trkpt>
      <trkpt lat="44.18987" lon="5.53721">
        <ele>847.365479</ele>
        <time>2021-05-05T09:16:54Z</time>
      </trkpt>
      <trkpt lat="44.18987" lon="5.53721">
        <ele>847.279846</ele>
        <time>2021-05-05T09:17:19Z</time>
      </trkpt>
      <trkpt lat="44.18986" lon="5.53722">
        <ele>847.295837</ele>
        <time>2021-05-05T09:17:21Z</time>
      </trkpt>
      <trkpt lat="44.18985" lon="5.53723">
        <ele>847.239197</ele>
        <time>2021-05-05T09:17:22Z</time>
      </trkpt>
      <trkpt lat="44.18984" lon="5.53725">
        <ele>847.07605</ele>
        <time>2021-05-05T09:17:23Z</time>
      </trkpt>
      <trkpt lat="44.18982" lon="5.53726">
        <ele>846.855225</ele>
        <time>2021-05-05T09:17:24Z</time>
      </trkpt>
      <trkpt lat="44.18981" lon="5.53728">
        <ele>846.6427</ele>
        <time>2021-05-05T09:17:25Z</time>
      </trkpt>
      <trkpt lat="44.18977" lon="5.5374">
        <ele>844.57373</ele>
        <time>2021-05-05T09:17:37Z</time>
      </trkpt>
      <trkpt lat="44.18976" lon="5.5374">
        <ele>844.711731</ele>
        <time>2021-05-05T09:18:01Z</time>
      </trkpt>
      <trkpt lat="44.18975" lon="5.53742">
        <ele>844.36145</ele>
        <time>2021-05-05T09:18:24Z</time>
      </trkpt>
      <trkpt lat="44.1897" lon="5.5375">
        <ele>843.112488</ele>
        <time>2021-05-05T09:18:38Z</time>
      </trkpt>
      <trkpt lat="44.18936" lon="5.53755">
        <ele>844.695435</ele>
        <time>2021-05-05T09:18:49Z</time>
      </trkpt>
      <trkpt lat="44.18878" lon="5.53786">
        <ele>844.997131</ele>
        <time>2021-05-05T09:19:05Z</time>
      </trkpt>
      <trkpt lat="44.18803" lon="5.5383">
        <ele>843.17926</ele>
        <time>2021-05-05T09:19:23Z</time>
      </trkpt>
      <trkpt lat="44.18792" lon="5.53837">
        <ele>842.398682</ele>
        <time>2021-05-05T09:19:26Z</time>
      </trkpt>
      <trkpt lat="44.18788" lon="5.5384">
        <ele>841.869873</ele>
        <time>2021-05-05T09:19:27Z</time>
      </trkpt>
      <trkpt lat="44.18785" lon="5.53844">
        <ele>841.213623</ele>
        <time>2021-05-05T09:19:28Z</time>
      </trkpt>
      <trkpt lat="44.18774" lon="5.53863">
        <ele>837.858093</ele>
        <time>2021-05-05T09:19:32Z</time>
      </trkpt>
      <trkpt lat="44.18772" lon="5.53869">
        <ele>836.825928</ele>
        <time>2021-05-05T09:19:33Z</time>
      </trkpt>
      <trkpt lat="44.18771" lon="5.53874">
        <ele>835.700684</ele>
        <time>2021-05-05T09:19:34Z</time>
      </trkpt>
      <trkpt lat="44.1877" lon="5.53881">
        <ele>834.389343</ele>
        <time>2021-05-05T09:19:35Z</time>
      </trkpt>
      <trkpt lat="44.18769" lon="5.53887">
        <ele>833.162292</ele>
        <time>2021-05-05T09:19:36Z</time>
      </trkpt>
      <trkpt lat="44.18768" lon="5.53912">
        <ele>836.351074</ele>
        <time>2021-05-05T09:19:40Z</time>
      </trkpt>
      <trkpt lat="44.18767" lon="5.53917">
        <ele>837.78418</ele>
        <time>2021-05-05T09:19:41Z</time>
      </trkpt>
      <trkpt lat="44.18766" lon="5.53922">
        <ele>839.104309</ele>
        <time>2021-05-05T09:19:42Z</time>
      </trkpt>
      <trkpt lat="44.18764" lon="5.53926">
        <ele>840.284729</ele>
        <time>2021-05-05T09:19:43Z</time>
      </trkpt>
      <trkpt lat="44.18761" lon="5.5393">
        <ele>841.275757</ele>
        <time>2021-05-05T09:19:44Z</time>
      </trkpt>
      <trkpt lat="44.18759" lon="5.53933">
        <ele>842.081848</ele>
        <time>2021-05-05T09:19:45Z</time>
      </trkpt>
      <trkpt lat="44.18757" lon="5.53935">
        <ele>842.615662</ele>
        <time>2021-05-05T09:19:46Z</time>
      </trkpt>
      <trkpt lat="44.18754" lon="5.53937">
        <ele>843.086121</ele>
        <time>2021-05-05T09:19:47Z</time>
      </trkpt>
      <trkpt lat="44.18713" lon="5.53957">
        <ele>844.288025</ele>
        <time>2021-05-05T09:20:02Z</time>
      </trkpt>
      <trkpt lat="44.1867" lon="5.54">
        <ele>851.226013</ele>
        <time>2021-05-05T09:20:20Z</time>
      </trkpt>
      <trkpt lat="44.18632" lon="5.54047">
        <ele>854.19458</ele>
        <time>2021-05-05T09:20:36Z</time>
      </trkpt>
      <trkpt lat="44.18592" lon="5.54114">
        <ele>859.255005</ele>
        <time>2021-05-05T09:20:54Z</time>
      </trkpt>
      <trkpt lat="44.18554" lon="5.54194">
        <ele>865.935242</ele>
        <time>2021-05-05T09:21:14Z</time>
      </trkpt>
      <trkpt lat="44.18543" lon="5.54273">
        <ele>871.020874</ele>
        <time>2021-05-05T09:21:31Z</time>
      </trkpt>
      <trkpt lat="44.18558" lon="5.54367">
        <ele>871.099304</ele>
        <time>2021-05-05T09:21:50Z</time>
      </trkpt>
      <trkpt lat="44.18577" lon="5.54483">
        <ele>872.162659</ele>
        <time>2021-05-05T09:22:09Z</time>
      </trkpt>
      <trkpt lat="44.18586" lon="5.54613">
        <ele>873.504395</ele>
        <time>2021-05-05T09:22:30Z</time>
      </trkpt>
      <trkpt lat="44.18589" lon="5.54722">
        <ele>874.410889</ele>
        <time>2021-05-05T09:22:51Z</time>
      </trkpt>
      <trkpt lat="44.18567" lon="5.54804">
        <ele>876.467651</ele>
        <time>2021-05-05T09:23:08Z</time>
      </trkpt>
      <trkpt lat="44.18539" lon="5.54892">
        <ele>880.286865</ele>
        <time>2021-05-05T09:23:27Z</time>
      </trkpt>
      <trkpt lat="44.18519" lon="5.54967">
        <ele>881.002319</ele>
        <time>2021-05-05T09:23:44Z</time>
      </trkpt>
      <trkpt lat="44.18509" lon="5.55053">
        <ele>881.401978</ele>
        <time>2021-05-05T09:24:02Z</time>
      </trkpt>
      <trkpt lat="44.1851" lon="5.55134">
        <ele>885.452515</ele>
        <time>2021-05-05T09:24:19Z</time>
      </trkpt>
      <trkpt lat="44.18499" lon="5.55217">
        <ele>892.704163</ele>
        <time>2021-05-05T09:24:36Z</time>
      </trkpt>
      <trkpt lat="44.18482" lon="5.55303">
        <ele>899.509033</ele>
        <time>2021-05-05T09:24:54Z</time>
      </trkpt>
      <trkpt lat="44.18455" lon="5.55402">
        <ele>903.17218</ele>
        <time>2021-05-05T09:25:16Z</time>
      </trkpt>
      <trkpt lat="44.18421" lon="5.55473">
        <ele>904.969116</ele>
        <time>2021-05-05T09:25:34Z</time>
      </trkpt>
      <trkpt lat="44.18401" lon="5.55509">
        <ele>907.097229</ele>
        <time>2021-05-05T09:25:48Z</time>
      </trkpt>
      <trkpt lat="44.184" lon="5.5551">
        <ele>907.04718</ele>
        <time>2021-05-05T09:25:57Z</time>
      </trkpt>
      <trkpt lat="44.184" lon="5.55509">
        <ele>907.061707</ele>
        <time>2021-05-05T09:26:10Z</time>
      </trkpt>
      <trkpt lat="44.18398" lon="5.55511">
        <ele>906.840942</ele>
        <time>2021-05-05T09:26:30Z</time>
      </trkpt>
      <trkpt lat="44.184" lon="5.55507">
        <ele>906.67627</ele>
        <time>2021-05-05T09:27:06Z</time>
      </trkpt>
      <trkpt lat="44.18402" lon="5.55513">
        <ele>907.720947</ele>
        <time>2021-05-05T09:27:26Z</time>
      </trkpt>
      <trkpt lat="44.18401" lon="5.55515">
        <ele>907.930725</ele>
        <time>2021-05-05T09:27:27Z</time>
      </trkpt>
      <trkpt lat="44.18401" lon="5.55518">
        <ele>908.168152</ele>
        <time>2021-05-05T09:27:28Z</time>
      </trkpt>
      <trkpt lat="44.18401" lon="5.55521">
        <ele>908.523987</ele>
        <time>2021-05-05T09:27:29Z</time>
      </trkpt>
      <trkpt lat="44.184" lon="5.55526">
        <ele>908.935364</ele>
        <time>2021-05-05T09:27:30Z</time>
      </trkpt>
      <trkpt lat="44.18393" lon="5.55595">
        <ele>914.297241</ele>
        <time>2021-05-05T09:27:42Z</time>
      </trkpt>
      <trkpt lat="44.18373" lon="5.55701">
        <ele>916.454224</ele>
        <time>2021-05-05T09:27:56Z</time>
      </trkpt>
      <trkpt lat="44.18331" lon="5.55814">
        <ele>917.259827</ele>
        <time>2021-05-05T09:28:12Z</time>
      </trkpt>
      <trkpt lat="44.18313" lon="5.55839">
        <ele>920.837341</ele>
        <time>2021-05-05T09:28:17Z</time>
      </trkpt>
      <trkpt lat="44.18291" lon="5.55857">
        <ele>920.608704</ele>
        <time>2021-05-05T09:28:22Z</time>
      </trkpt>
      <trkpt lat="44.18232" lon="5.55913">
        <ele>918.64447</ele>
        <time>2021-05-05T09:28:36Z</time>
      </trkpt>
      <trkpt lat="44.18173" lon="5.56017">
        <ele>922.114624</ele>
        <time>2021-05-05T09:28:55Z</time>
      </trkpt>
      <trkpt lat="44.18171" lon="5.56024">
        <ele>922.273621</ele>
        <time>2021-05-05T09:28:56Z</time>
      </trkpt>
      <trkpt lat="44.1817" lon="5.5603">
        <ele>922.47052</ele>
        <time>2021-05-05T09:28:57Z</time>
      </trkpt>
      <trkpt lat="44.1817" lon="5.56037">
        <ele>922.713989</ele>
        <time>2021-05-05T09:28:58Z</time>
      </trkpt>
      <trkpt lat="44.1817" lon="5.56044">
        <ele>922.998962</ele>
        <time>2021-05-05T09:28:59Z</time>
      </trkpt>
      <trkpt lat="44.1817" lon="5.56051">
        <ele>923.372131</ele>
        <time>2021-05-05T09:29:00Z</time>
      </trkpt>
      <trkpt lat="44.18176" lon="5.56128">
        <ele>930.367126</ele>
        <time>2021-05-05T09:29:11Z</time>
      </trkpt>
      <trkpt lat="44.18167" lon="5.56257">
        <ele>942.392334</ele>
        <time>2021-05-05T09:29:29Z</time>
      </trkpt>
      <trkpt lat="44.18139" lon="5.56382">
        <ele>946.691956</ele>
        <time>2021-05-05T09:29:47Z</time>
      </trkpt>
      <trkpt lat="44.18122" lon="5.56507">
        <ele>951.786316</ele>
        <time>2021-05-05T09:30:05Z</time>
      </trkpt>
      <trkpt lat="44.18096" lon="5.56626">
        <ele>957.591614</ele>
        <time>2021-05-05T09:30:22Z</time>
      </trkpt>
      <trkpt lat="44.18045" lon="5.56738">
        <ele>962.708862</ele>
        <time>2021-05-05T09:30:40Z</time>
      </trkpt>
      <trkpt lat="44.18025" lon="5.5677">
        <ele>964.598572</ele>
        <time>2021-05-05T09:30:46Z</time>
      </trkpt>
      <trkpt lat="44.17986" lon="5.568">
        <ele>965.844482</ele>
        <time>2021-05-05T09:30:58Z</time>
      </trkpt>
      <trkpt lat="44.1796" lon="5.56831">
        <ele>967.492249</ele>
        <time>2021-05-05T09:31:10Z</time>
      </trkpt>
      <trkpt lat="44.17951" lon="5.5685">
        <ele>967.371948</ele>
        <time>2021-05-05T09:31:21Z</time>
      </trkpt>
      <trkpt lat="44.17953" lon="5.56849">
        <ele>967.458862</ele>
        <time>2021-05-05T09:31:38Z</time>
      </trkpt>
      <trkpt lat="44.17952" lon="5.5685">
        <ele>967.391479</ele>
        <time>2021-05-05T09:32:07Z</time>
      </trkpt>
      <trkpt lat="44.17952" lon="5.5685">
        <ele>967.425354</ele>
        <time>2021-05-05T09:32:29Z</time>
      </trkpt>
      <trkpt lat="44.17952" lon="5.5685">
        <ele>967.403564</ele>
        <time>2021-05-05T09:32:56Z</time>
      </trkpt>
      <trkpt lat="44.17952" lon="5.56849">
        <ele>967.432617</ele>
        <time>2021-05-05T09:33:24Z</time>
      </trkpt>
      <trkpt lat="44.17951" lon="5.56851">
        <ele>967.327881</ele>
        <time>2021-05-05T09:33:50Z</time>
      </trkpt>
      <trkpt lat="44.17953" lon="5.5685">
        <ele>967.453186</ele>
        <time>2021-05-05T09:34:12Z</time>
      </trkpt>
      <trkpt lat="44.17953" lon="5.5685">
        <ele>967.427124</ele>
        <time>2021-05-05T09:34:36Z</time>
      </trkpt>
      <trkpt lat="44.17952" lon="5.56853">
        <ele>967.310791</ele>
        <time>2021-05-05T09:34:56Z</time>
      </trkpt>
      <trkpt lat="44.17945" lon="5.56883">
        <ele>965.741821</ele>
        <time>2021-05-05T09:35:06Z</time>
      </trkpt>
      <trkpt lat="44.17925" lon="5.56968">
        <ele>963.005554</ele>
        <time>2021-05-05T09:35:17Z</time>
      </trkpt>
      <trkpt lat="44.17908" lon="5.57135">
        <ele>958.883606</ele>
        <time>2021-05-05T09:35:31Z</time>
      </trkpt>
      <trkpt lat="44.17901" lon="5.57223">
        <ele>952.268616</ele>
        <time>2021-05-05T09:35:38Z</time>
      </trkpt>
      <trkpt lat="44.17903" lon="5.57236">
        <ele>952.059753</ele>
        <time>2021-05-05T09:35:39Z</time>
      </trkpt>
      <trkpt lat="44.17906" lon="5.57248">
        <ele>952.477722</ele>
        <time>2021-05-05T09:35:40Z</time>
      </trkpt>
      <trkpt lat="44.17912" lon="5.57259">
        <ele>953.348816</ele>
        <time>2021-05-05T09:35:41Z</time>
      </trkpt>
      <trkpt lat="44.17918" lon="5.57269">
        <ele>954.216919</ele>
        <time>2021-05-05T09:35:42Z</time>
      </trkpt>
      <trkpt lat="44.17923" lon="5.5728">
        <ele>954.235535</ele>
        <time>2021-05-05T09:35:43Z</time>
      </trkpt>
      <trkpt lat="44.17926" lon="5.57292">
        <ele>954.364075</ele>
        <time>2021-05-05T09:35:44Z</time>
      </trkpt>
      <trkpt lat="44.17925" lon="5.57303">
        <ele>954.573242</ele>
        <time>2021-05-05T09:35:45Z</time>
      </trkpt>
      <trkpt lat="44.17921" lon="5.57311">
        <ele>953.459106</ele>
        <time>2021-05-05T09:35:46Z</time>
      </trkpt>
      <trkpt lat="44.17913" lon="5.57317">
        <ele>951.217285</ele>
        <time>2021-05-05T09:35:47Z</time>
      </trkpt>
      <trkpt lat="44.17908" lon="5.57325">
        <ele>949.244812</ele>
        <time>2021-05-05T09:35:48Z</time>
      </trkpt>
      <trkpt lat="44.17904" lon="5.57336">
        <ele>947.726379</ele>
        <time>2021-05-05T09:35:49Z</time>
      </trkpt>
      <trkpt lat="44.17902" lon="5.57347">
        <ele>946.775452</ele>
        <time>2021-05-05T09:35:50Z</time>
      </trkpt>
      <trkpt lat="44.17902" lon="5.57359">
        <ele>946.424561</ele>
        <time>2021-05-05T09:35:51Z</time>
      </trkpt>
      <trkpt lat="44.17906" lon="5.57369">
        <ele>947.194458</ele>
        <time>2021-05-05T09:35:52Z</time>
      </trkpt>
      <trkpt lat="44.17911" lon="5.57377">
        <ele>948.903931</ele>
        <time>2021-05-05T09:35:53Z</time>
      </trkpt>
      <trkpt lat="44.17918" lon="5.57383">
        <ele>951.13031</ele>
        <time>2021-05-05T09:35:54Z</time>
      </trkpt>
      <trkpt lat="44.17925" lon="5.57388">
        <ele>953.287659</ele>
        <time>2021-05-05T09:35:55Z</time>
      </trkpt>
      <trkpt lat="44.1793" lon="5.57395">
        <ele>953.825439</ele>
        <time>2021-05-05T09:35:56Z</time>
      </trkpt>
      <trkpt lat="44.17933" lon="5.57404">
        <ele>953.378479</ele>
        <time>2021-05-05T09:35:57Z</time>
      </trkpt>
      <trkpt lat="44.17933" lon="5.57414">
        <ele>953.103088</ele>
        <time>2021-05-05T09:35:58Z</time>
      </trkpt>
      <trkpt lat="44.17928" lon="5.57424">
        <ele>953.807983</ele>
        <time>2021-05-05T09:35:59Z</time>
      </trkpt>
      <trkpt lat="44.17921" lon="5.57428">
        <ele>952.698242</ele>
        <time>2021-05-05T09:36:00Z</time>
      </trkpt>
      <trkpt lat="44.17914" lon="5.5743">
        <ele>949.986267</ele>
        <time>2021-05-05T09:36:01Z</time>
      </trkpt>
      <trkpt lat="44.17904" lon="5.57431">
        <ele>946.604553</ele>
        <time>2021-05-05T09:36:02Z</time>
      </trkpt>
      <trkpt lat="44.17897" lon="5.57434">
        <ele>944.062561</ele>
        <time>2021-05-05T09:36:03Z</time>
      </trkpt>
      <trkpt lat="44.1789" lon="5.5744">
        <ele>941.707397</ele>
        <time>2021-05-05T09:36:04Z</time>
      </trkpt>
      <trkpt lat="44.17884" lon="5.57449">
        <ele>939.976013</ele>
        <time>2021-05-05T09:36:05Z</time>
      </trkpt>
      <trkpt lat="44.1788" lon="5.57459">
        <ele>938.891052</ele>
        <time>2021-05-05T09:36:06Z</time>
      </trkpt>
      <trkpt lat="44.17877" lon="5.57471">
        <ele>938.372192</ele>
        <time>2021-05-05T09:36:07Z</time>
      </trkpt>
      <trkpt lat="44.17875" lon="5.57483">
        <ele>938.244202</ele>
        <time>2021-05-05T09:36:08Z</time>
      </trkpt>
      <trkpt lat="44.17864" lon="5.57559">
        <ele>936.792908</ele>
        <time>2021-05-05T09:36:14Z</time>
      </trkpt>
      <trkpt lat="44.17853" lon="5.57626">
        <ele>933.623352</ele>
        <time>2021-05-05T09:36:19Z</time>
      </trkpt>
      <trkpt lat="44.17852" lon="5.5764">
        <ele>934.306152</ele>
        <time>2021-05-05T09:36:20Z</time>
      </trkpt>
      <trkpt lat="44.17853" lon="5.5767">
        <ele>934.836853</ele>
        <time>2021-05-05T09:36:22Z</time>
      </trkpt>
      <trkpt lat="44.17834" lon="5.57805">
        <ele>924.376343</ele>
        <time>2021-05-05T09:36:31Z</time>
      </trkpt>
      <trkpt lat="44.17834" lon="5.57821">
        <ele>923.90564</ele>
        <time>2021-05-05T09:36:32Z</time>
      </trkpt>
      <trkpt lat="44.17835" lon="5.57836">
        <ele>924.056519</ele>
        <time>2021-05-05T09:36:33Z</time>
      </trkpt>
      <trkpt lat="44.17855" lon="5.57976">
        <ele>919.021118</ele>
        <time>2021-05-05T09:36:42Z</time>
      </trkpt>
      <trkpt lat="44.17857" lon="5.58006">
        <ele>914.413757</ele>
        <time>2021-05-05T09:36:44Z</time>
      </trkpt>
      <trkpt lat="44.17862" lon="5.5802">
        <ele>913.053406</ele>
        <time>2021-05-05T09:36:45Z</time>
      </trkpt>
      <trkpt lat="44.17868" lon="5.58031">
        <ele>912.322205</ele>
        <time>2021-05-05T09:36:46Z</time>
      </trkpt>
      <trkpt lat="44.17877" lon="5.58038">
        <ele>912.595398</ele>
        <time>2021-05-05T09:36:47Z</time>
      </trkpt>
      <trkpt lat="44.17886" lon="5.58042">
        <ele>913.468079</ele>
        <time>2021-05-05T09:36:48Z</time>
      </trkpt>
      <trkpt lat="44.17895" lon="5.58045">
        <ele>914.501953</ele>
        <time>2021-05-05T09:36:49Z</time>
      </trkpt>
      <trkpt lat="44.17924" lon="5.58059">
        <ele>915.304993</ele>
        <time>2021-05-05T09:36:56Z</time>
      </trkpt>
      <trkpt lat="44.17927" lon="5.58061">
        <ele>915.16333</ele>
        <time>2021-05-05T09:37:10Z</time>
      </trkpt>
      <trkpt lat="44.17927" lon="5.58062">
        <ele>914.974304</ele>
        <time>2021-05-05T09:37:41Z</time>
      </trkpt>
      <trkpt lat="44.17929" lon="5.58063">
        <ele>914.953003</ele>
        <time>2021-05-05T09:38:09Z</time>
      </trkpt>
      <trkpt lat="44.1793" lon="5.58063">
        <ele>914.971191</ele>
        <time>2021-05-05T09:38:14Z</time>
      </trkpt>
      <trkpt lat="44.17931" lon="5.58064">
        <ele>914.89386</ele>
        <time>2021-05-05T09:38:15Z</time>
      </trkpt>
      <trkpt lat="44.17932" lon="5.58065">
        <ele>914.828979</ele>
        <time>2021-05-05T09:38:16Z</time>
      </trkpt>
      <trkpt lat="44.1794" lon="5.58071">
        <ele>914.415894</ele>
        <time>2021-05-05T09:38:22Z</time>
      </trkpt>
      <trkpt lat="44.1794" lon="5.58076">
        <ele>913.838379</ele>
        <time>2021-05-05T09:38:33Z</time>
      </trkpt>
      <trkpt lat="44.17939" lon="5.58078">
        <ele>913.615662</ele>
        <time>2021-05-05T09:38:34Z</time>
      </trkpt>
      <trkpt lat="44.17939" lon="5.58081">
        <ele>913.358215</ele>
        <time>2021-05-05T09:38:35Z</time>
      </trkpt>
      <trkpt lat="44.17938" lon="5.58083">
        <ele>913.085571</ele>
        <time>2021-05-05T09:38:36Z</time>
      </trkpt>
      <trkpt lat="44.17937" lon="5.58086">
        <ele>912.753418</ele>
        <time>2021-05-05T09:38:37Z</time>
      </trkpt>
      <trkpt lat="44.17926" lon="5.58103">
        <ele>911.974365</ele>
        <time>2021-05-05T09:38:42Z</time>
      </trkpt>
      <trkpt lat="44.17922" lon="5.58104">
        <ele>912.205811</ele>
        <time>2021-05-05T09:38:43Z</time>
      </trkpt>
      <trkpt lat="44.17917" lon="5.58105">
        <ele>912.122925</ele>
        <time>2021-05-05T09:38:44Z</time>
      </trkpt>
      <trkpt lat="44.17884" lon="5.58109">
        <ele>907.630066</ele>
        <time>2021-05-05T09:38:49Z</time>
      </trkpt>
      <trkpt lat="44.17876" lon="5.58113">
        <ele>906.460144</ele>
        <time>2021-05-05T09:38:50Z</time>
      </trkpt>
      <trkpt lat="44.17869" lon="5.58118">
        <ele>905.549927</ele>
        <time>2021-05-05T09:38:51Z</time>
      </trkpt>
      <trkpt lat="44.17855" lon="5.58131">
        <ele>903.817078</ele>
        <time>2021-05-05T09:38:53Z</time>
      </trkpt>
      <trkpt lat="44.17848" lon="5.58139">
        <ele>903.137878</ele>
        <time>2021-05-05T09:38:54Z</time>
      </trkpt>
      <trkpt lat="44.17842" lon="5.58149">
        <ele>902.354126</ele>
        <time>2021-05-05T09:38:55Z</time>
      </trkpt>
      <trkpt lat="44.17836" lon="5.5816">
        <ele>901.465942</ele>
        <time>2021-05-05T09:38:56Z</time>
      </trkpt>
      <trkpt lat="44.17831" lon="5.58171">
        <ele>900.668457</ele>
        <time>2021-05-05T09:38:57Z</time>
      </trkpt>
      <trkpt lat="44.17827" lon="5.58185">
        <ele>900.094788</ele>
        <time>2021-05-05T09:38:58Z</time>
      </trkpt>
      <trkpt lat="44.17824" lon="5.58197">
        <ele>899.695251</ele>
        <time>2021-05-05T09:38:59Z</time>
      </trkpt>
      <trkpt lat="44.17808" lon="5.58247">
        <ele>897.58429</ele>
        <time>2021-05-05T09:39:03Z</time>
      </trkpt>
      <trkpt lat="44.17802" lon="5.58258">
        <ele>896.94989</ele>
        <time>2021-05-05T09:39:04Z</time>
      </trkpt>
      <trkpt lat="44.17793" lon="5.58266">
        <ele>895.910645</ele>
        <time>2021-05-05T09:39:05Z</time>
      </trkpt>
      <trkpt lat="44.17777" lon="5.58284">
        <ele>894.540344</ele>
        <time>2021-05-05T09:39:07Z</time>
      </trkpt>
      <trkpt lat="44.1777" lon="5.58296">
        <ele>894.770325</ele>
        <time>2021-05-05T09:39:08Z</time>
      </trkpt>
      <trkpt lat="44.17765" lon="5.58309">
        <ele>894.952148</ele>
        <time>2021-05-05T09:39:09Z</time>
      </trkpt>
      <trkpt lat="44.1776" lon="5.58324">
        <ele>895.555969</ele>
        <time>2021-05-05T09:39:10Z</time>
      </trkpt>
      <trkpt lat="44.17756" lon="5.58337">
        <ele>896.122009</ele>
        <time>2021-05-05T09:39:11Z</time>
      </trkpt>
      <trkpt lat="44.17713" lon="5.58538">
        <ele>885.814453</ele>
        <time>2021-05-05T09:39:24Z</time>
      </trkpt>
      <trkpt lat="44.17707" lon="5.58551">
        <ele>885.002563</ele>
        <time>2021-05-05T09:39:25Z</time>
      </trkpt>
      <trkpt lat="44.17692" lon="5.58573">
        <ele>882.895325</ele>
        <time>2021-05-05T09:39:27Z</time>
      </trkpt>
      <trkpt lat="44.17686" lon="5.58587">
        <ele>882.208862</ele>
        <time>2021-05-05T09:39:28Z</time>
      </trkpt>
      <trkpt lat="44.1763" lon="5.58765">
        <ele>877.810425</ele>
        <time>2021-05-05T09:39:40Z</time>
      </trkpt>
      <trkpt lat="44.17589" lon="5.58938">
        <ele>874.315857</ele>
        <time>2021-05-05T09:39:52Z</time>
      </trkpt>
      <trkpt lat="44.17583" lon="5.58951">
        <ele>873.339111</ele>
        <time>2021-05-05T09:39:53Z</time>
      </trkpt>
      <trkpt lat="44.17576" lon="5.58962">
        <ele>871.955627</ele>
        <time>2021-05-05T09:39:54Z</time>
      </trkpt>
      <trkpt lat="44.17472" lon="5.59145">
        <ele>863.671875</ele>
        <time>2021-05-05T09:40:10Z</time>
      </trkpt>
      <trkpt lat="44.17429" lon="5.59201">
        <ele>860.721619</ele>
        <time>2021-05-05T09:40:16Z</time>
      </trkpt>
      <trkpt lat="44.17422" lon="5.59212">
        <ele>860.34436</ele>
        <time>2021-05-05T09:40:17Z</time>
      </trkpt>
      <trkpt lat="44.17417" lon="5.59224">
        <ele>860.041443</ele>
        <time>2021-05-05T09:40:18Z</time>
      </trkpt>
      <trkpt lat="44.17414" lon="5.59237">
        <ele>859.793762</ele>
        <time>2021-05-05T09:40:19Z</time>
      </trkpt>
      <trkpt lat="44.1741" lon="5.5925">
        <ele>859.515747</ele>
        <time>2021-05-05T09:40:20Z</time>
      </trkpt>
      <trkpt lat="44.17405" lon="5.59262">
        <ele>859.891602</ele>
        <time>2021-05-05T09:40:21Z</time>
      </trkpt>
      <trkpt lat="44.17399" lon="5.59275">
        <ele>860.629761</ele>
        <time>2021-05-05T09:40:22Z</time>
      </trkpt>
      <trkpt lat="44.17392" lon="5.59285">
        <ele>860.660583</ele>
        <time>2021-05-05T09:40:23Z</time>
      </trkpt>
      <trkpt lat="44.17289" lon="5.59439">
        <ele>857.915161</ele>
        <time>2021-05-05T09:40:38Z</time>
      </trkpt>
      <trkpt lat="44.17231" lon="5.59568">
        <ele>854.038452</ele>
        <time>2021-05-05T09:40:50Z</time>
      </trkpt>
      <trkpt lat="44.17204" lon="5.59615">
        <ele>852.316406</ele>
        <time>2021-05-05T09:40:55Z</time>
      </trkpt>
      <trkpt lat="44.172" lon="5.59625">
        <ele>850.930725</ele>
        <time>2021-05-05T09:40:56Z</time>
      </trkpt>
      <trkpt lat="44.17198" lon="5.59636">
        <ele>849.222534</ele>
        <time>2021-05-05T09:40:57Z</time>
      </trkpt>
      <trkpt lat="44.17196" lon="5.59648">
        <ele>847.915833</ele>
        <time>2021-05-05T09:40:58Z</time>
      </trkpt>
      <trkpt lat="44.17197" lon="5.5966">
        <ele>847.096436</ele>
        <time>2021-05-05T09:40:59Z</time>
      </trkpt>
      <trkpt lat="44.172" lon="5.59671">
        <ele>846.851257</ele>
        <time>2021-05-05T09:41:00Z</time>
      </trkpt>
      <trkpt lat="44.17206" lon="5.59681">
        <ele>847.250488</ele>
        <time>2021-05-05T09:41:01Z</time>
      </trkpt>
      <trkpt lat="44.17213" lon="5.59689">
        <ele>847.690979</ele>
        <time>2021-05-05T09:41:02Z</time>
      </trkpt>
      <trkpt lat="44.17221" lon="5.59696">
        <ele>847.992249</ele>
        <time>2021-05-05T09:41:03Z</time>
      </trkpt>
      <trkpt lat="44.17229" lon="5.59703">
        <ele>848.02948</ele>
        <time>2021-05-05T09:41:04Z</time>
      </trkpt>
      <trkpt lat="44.17235" lon="5.59712">
        <ele>848.320496</ele>
        <time>2021-05-05T09:41:05Z</time>
      </trkpt>
      <trkpt lat="44.17295" lon="5.59811">
        <ele>845.852478</ele>
        <time>2021-05-05T09:41:15Z</time>
      </trkpt>
      <trkpt lat="44.173" lon="5.59823">
        <ele>846.088257</ele>
        <time>2021-05-05T09:41:16Z</time>
      </trkpt>
      <trkpt lat="44.17304" lon="5.59835">
        <ele>845.917358</ele>
        <time>2021-05-05T09:41:17Z</time>
      </trkpt>
      <trkpt lat="44.17307" lon="5.59848">
        <ele>845.245728</ele>
        <time>2021-05-05T09:41:18Z</time>
      </trkpt>
      <trkpt lat="44.17309" lon="5.5986">
        <ele>844.205383</ele>
        <time>2021-05-05T09:41:19Z</time>
      </trkpt>
      <trkpt lat="44.1731" lon="5.59874">
        <ele>842.869873</ele>
        <time>2021-05-05T09:41:20Z</time>
      </trkpt>
      <trkpt lat="44.1731" lon="5.59887">
        <ele>841.698425</ele>
        <time>2021-05-05T09:41:21Z</time>
      </trkpt>
      <trkpt lat="44.17312" lon="5.60004">
        <ele>836.278137</ele>
        <time>2021-05-05T09:41:30Z</time>
      </trkpt>
      <trkpt lat="44.17311" lon="5.60015">
        <ele>835.748474</ele>
        <time>2021-05-05T09:41:31Z</time>
      </trkpt>
      <trkpt lat="44.17301" lon="5.60067">
        <ele>833.547424</ele>
        <time>2021-05-05T09:41:39Z</time>
      </trkpt>
      <trkpt lat="44.173" lon="5.60077">
        <ele>833.178955</ele>
        <time>2021-05-05T09:41:52Z</time>
      </trkpt>
      <trkpt lat="44.173" lon="5.60076">
        <ele>833.181824</ele>
        <time>2021-05-05T09:42:11Z</time>
      </trkpt>
      <trkpt lat="44.17301" lon="5.60079">
        <ele>833.177734</ele>
        <time>2021-05-05T09:42:31Z</time>
      </trkpt>
      <trkpt lat="44.17302" lon="5.60081">
        <ele>833.14624</ele>
        <time>2021-05-05T09:43:04Z</time>
      </trkpt>
      <trkpt lat="44.173" lon="5.60083">
        <ele>832.957947</ele>
        <time>2021-05-05T09:43:31Z</time>
      </trkpt>
      <trkpt lat="44.173" lon="5.60086">
        <ele>832.894714</ele>
        <time>2021-05-05T09:43:44Z</time>
      </trkpt>
      <trkpt lat="44.17299" lon="5.60087">
        <ele>832.856567</ele>
        <time>2021-05-05T09:44:06Z</time>
      </trkpt>
      <trkpt lat="44.17299" lon="5.60087">
        <ele>832.801208</ele>
        <time>2021-05-05T09:44:33Z</time>
      </trkpt>
      <trkpt lat="44.17299" lon="5.6009">
        <ele>832.712952</ele>
        <time>2021-05-05T09:44:57Z</time>
      </trkpt>
      <trkpt lat="44.17298" lon="5.60135">
        <ele>831.307617</ele>
        <time>2021-05-05T09:45:09Z</time>
      </trkpt>
      <trkpt lat="44.17299" lon="5.60149">
        <ele>830.747925</ele>
        <time>2021-05-05T09:45:18Z</time>
      </trkpt>
      <trkpt lat="44.17303" lon="5.60178">
        <ele>829.484436</ele>
        <time>2021-05-05T09:45:34Z</time>
      </trkpt>
      <trkpt lat="44.17305" lon="5.60237">
        <ele>828.486206</ele>
        <time>2021-05-05T09:45:43Z</time>
      </trkpt>
      <trkpt lat="44.17306" lon="5.60366">
        <ele>826.35498</ele>
        <time>2021-05-05T09:45:58Z</time>
      </trkpt>
      <trkpt lat="44.17295" lon="5.60491">
        <ele>824.232117</ele>
        <time>2021-05-05T09:46:13Z</time>
      </trkpt>
      <trkpt lat="44.17258" lon="5.60602">
        <ele>821.545654</ele>
        <time>2021-05-05T09:46:28Z</time>
      </trkpt>
      <trkpt lat="44.17218" lon="5.60723">
        <ele>820.388123</ele>
        <time>2021-05-05T09:46:44Z</time>
      </trkpt>
      <trkpt lat="44.17202" lon="5.60767">
        <ele>820.628845</ele>
        <time>2021-05-05T09:46:50Z</time>
      </trkpt>
      <trkpt lat="44.172" lon="5.60772">
        <ele>820.764221</ele>
        <time>2021-05-05T09:46:51Z</time>
      </trkpt>
      <trkpt lat="44.17194" lon="5.60784">
        <ele>821.052917</ele>
        <time>2021-05-05T09:46:54Z</time>
      </trkpt>
      <trkpt lat="44.17194" lon="5.60787">
        <ele>821.046875</ele>
        <time>2021-05-05T09:46:55Z</time>
      </trkpt>
      <trkpt lat="44.17194" lon="5.60789">
        <ele>821.045593</ele>
        <time>2021-05-05T09:47:09Z</time>
      </trkpt>
      <trkpt lat="44.17194" lon="5.60789">
        <ele>821.055786</ele>
        <time>2021-05-05T09:47:39Z</time>
      </trkpt>
      <trkpt lat="44.17194" lon="5.6079">
        <ele>821.02887</ele>
        <time>2021-05-05T09:47:58Z</time>
      </trkpt>
      <trkpt lat="44.17195" lon="5.60791">
        <ele>820.961609</ele>
        <time>2021-05-05T09:48:27Z</time>
      </trkpt>
      <trkpt lat="44.17196" lon="5.60792">
        <ele>820.93396</ele>
        <time>2021-05-05T09:48:28Z</time>
      </trkpt>
      <trkpt lat="44.17196" lon="5.60794">
        <ele>820.921143</ele>
        <time>2021-05-05T09:48:29Z</time>
      </trkpt>
      <trkpt lat="44.172" lon="5.60838">
        <ele>820.050537</ele>
        <time>2021-05-05T09:48:39Z</time>
      </trkpt>
      <trkpt lat="44.17215" lon="5.6093">
        <ele>817.00769</ele>
        <time>2021-05-05T09:48:53Z</time>
      </trkpt>
      <trkpt lat="44.17232" lon="5.61046">
        <ele>814.994629</ele>
        <time>2021-05-05T09:49:07Z</time>
      </trkpt>
      <trkpt lat="44.17251" lon="5.61176">
        <ele>812.974792</ele>
        <time>2021-05-05T09:49:23Z</time>
      </trkpt>
      <trkpt lat="44.17269" lon="5.61311">
        <ele>812.994873</ele>
        <time>2021-05-05T09:49:39Z</time>
      </trkpt>
      <trkpt lat="44.17259" lon="5.61421">
        <ele>810.098816</ele>
        <time>2021-05-05T09:49:51Z</time>
      </trkpt>
      <trkpt lat="44.17248" lon="5.61464">
        <ele>810.53949</ele>
        <time>2021-05-05T09:49:56Z</time>
      </trkpt>
      <trkpt lat="44.17247" lon="5.61473">
        <ele>810.673462</ele>
        <time>2021-05-05T09:49:57Z</time>
      </trkpt>
      <trkpt lat="44.17247" lon="5.61482">
        <ele>810.702515</ele>
        <time>2021-05-05T09:49:58Z</time>
      </trkpt>
      <trkpt lat="44.17248" lon="5.6149">
        <ele>810.632629</ele>
        <time>2021-05-05T09:49:59Z</time>
      </trkpt>
      <trkpt lat="44.1725" lon="5.61499">
        <ele>810.585388</ele>
        <time>2021-05-05T09:50:00Z</time>
      </trkpt>
      <trkpt lat="44.17283" lon="5.61662">
        <ele>810.184082</ele>
        <time>2021-05-05T09:50:17Z</time>
      </trkpt>
      <trkpt lat="44.17291" lon="5.61753">
        <ele>804.658691</ele>
        <time>2021-05-05T09:50:27Z</time>
      </trkpt>
      <trkpt lat="44.17292" lon="5.61768">
        <ele>802.837463</ele>
        <time>2021-05-05T09:50:36Z</time>
      </trkpt>
      <trkpt lat="44.17296" lon="5.61773">
        <ele>800.557983</ele>
        <time>2021-05-05T09:50:58Z</time>
      </trkpt>
      <trkpt lat="44.17298" lon="5.61772">
        <ele>799.613586</ele>
        <time>2021-05-05T09:50:59Z</time>
      </trkpt>
      <trkpt lat="44.17299" lon="5.61771">
        <ele>799.407654</ele>
        <time>2021-05-05T09:51:00Z</time>
      </trkpt>
      <trkpt lat="44.17299" lon="5.61769">
        <ele>799.31665</ele>
        <time>2021-05-05T09:51:01Z</time>
      </trkpt>
      <trkpt lat="44.17299" lon="5.61768">
        <ele>799.419006</ele>
        <time>2021-05-05T09:51:02Z</time>
      </trkpt>
      <trkpt lat="44.17299" lon="5.61767">
        <ele>799.745544</ele>
        <time>2021-05-05T09:51:03Z</time>
      </trkpt>
      <trkpt lat="44.17298" lon="5.61765">
        <ele>800.219666</ele>
        <time>2021-05-05T09:51:16Z</time>
      </trkpt>
      <trkpt lat="44.17298" lon="5.61763">
        <ele>800.430725</ele>
        <time>2021-05-05T09:51:17Z</time>
      </trkpt>
      <trkpt lat="44.17297" lon="5.61761">
        <ele>800.99939</ele>
        <time>2021-05-05T09:51:18Z</time>
      </trkpt>
      <trkpt lat="44.17296" lon="5.61759">
        <ele>801.424072</ele>
        <time>2021-05-05T09:51:19Z</time>
      </trkpt>
      <trkpt lat="44.17296" lon="5.61758">
        <ele>801.912537</ele>
        <time>2021-05-05T09:51:20Z</time>
      </trkpt>
      <trkpt lat="44.17295" lon="5.61756">
        <ele>802.333069</ele>
        <time>2021-05-05T09:51:21Z</time>
      </trkpt>
      <trkpt lat="44.17292" lon="5.61736">
        <ele>804.73468</ele>
        <time>2021-05-05T09:51:34Z</time>
      </trkpt>
      <trkpt lat="44.1729" lon="5.61735">
        <ele>805.770142</ele>
        <time>2021-05-05T09:51:54Z</time>
      </trkpt>
      <trkpt lat="44.17288" lon="5.61739">
        <ele>806.491272</ele>
        <time>2021-05-05T09:52:10Z</time>
      </trkpt>
      <trkpt lat="44.17288" lon="5.61742">
        <ele>806.415222</ele>
        <time>2021-05-05T09:52:11Z</time>
      </trkpt>
      <trkpt lat="44.17299" lon="5.61797">
        <ele>797.180664</ele>
        <time>2021-05-05T09:52:22Z</time>
      </trkpt>
      <trkpt lat="44.17301" lon="5.61835">
        <ele>796.115112</ele>
        <time>2021-05-05T09:52:27Z</time>
      </trkpt>
      <trkpt lat="44.17291" lon="5.61979">
        <ele>798.463867</ele>
        <time>2021-05-05T09:52:44Z</time>
      </trkpt>
      <trkpt lat="44.17291" lon="5.62164">
        <ele>799.430115</ele>
        <time>2021-05-05T09:53:04Z</time>
      </trkpt>
      <trkpt lat="44.17305" lon="5.62317">
        <ele>798.061401</ele>
        <time>2021-05-05T09:53:21Z</time>
      </trkpt>
      <trkpt lat="44.1732" lon="5.62485">
        <ele>799.683044</ele>
        <time>2021-05-05T09:53:42Z</time>
      </trkpt>
      <trkpt lat="44.17319" lon="5.62499">
        <ele>799.776978</ele>
        <time>2021-05-05T09:53:44Z</time>
      </trkpt>
      <trkpt lat="44.17318" lon="5.62505">
        <ele>800.235962</ele>
        <time>2021-05-05T09:53:45Z</time>
      </trkpt>
      <trkpt lat="44.17316" lon="5.62511">
        <ele>801.000305</ele>
        <time>2021-05-05T09:53:46Z</time>
      </trkpt>
      <trkpt lat="44.17313" lon="5.62516">
        <ele>801.60144</ele>
        <time>2021-05-05T09:53:47Z</time>
      </trkpt>
      <trkpt lat="44.1731" lon="5.62521">
        <ele>801.956909</ele>
        <time>2021-05-05T09:53:48Z</time>
      </trkpt>
      <trkpt lat="44.17307" lon="5.62525">
        <ele>802.242188</ele>
        <time>2021-05-05T09:53:49Z</time>
      </trkpt>
      <trkpt lat="44.17304" lon="5.6253">
        <ele>802.40387</ele>
        <time>2021-05-05T09:53:50Z</time>
      </trkpt>
      <trkpt lat="44.17275" lon="5.62561">
        <ele>800.966919</ele>
        <time>2021-05-05T09:53:58Z</time>
      </trkpt>
      <trkpt lat="44.17271" lon="5.62566">
        <ele>801.031189</ele>
        <time>2021-05-05T09:53:59Z</time>
      </trkpt>
      <trkpt lat="44.17268" lon="5.62571">
        <ele>801.023132</ele>
        <time>2021-05-05T09:54:00Z</time>
      </trkpt>
      <trkpt lat="44.17266" lon="5.62577">
        <ele>800.971558</ele>
        <time>2021-05-05T09:54:01Z</time>
      </trkpt>
      <trkpt lat="44.17264" lon="5.62584">
        <ele>800.884399</ele>
        <time>2021-05-05T09:54:02Z</time>
      </trkpt>
      <trkpt lat="44.17262" lon="5.6259">
        <ele>800.775696</ele>
        <time>2021-05-05T09:54:03Z</time>
      </trkpt>
      <trkpt lat="44.17261" lon="5.62597">
        <ele>800.661255</ele>
        <time>2021-05-05T09:54:04Z</time>
      </trkpt>
      <trkpt lat="44.1726" lon="5.62604">
        <ele>800.525818</ele>
        <time>2021-05-05T09:54:05Z</time>
      </trkpt>
      <trkpt lat="44.17257" lon="5.62624">
        <ele>800.030701</ele>
        <time>2021-05-05T09:54:08Z</time>
      </trkpt>
      <trkpt lat="44.17255" lon="5.6268">
        <ele>798.914734</ele>
        <time>2021-05-05T09:54:16Z</time>
      </trkpt>
      <trkpt lat="44.17256" lon="5.62687">
        <ele>798.914917</ele>
        <time>2021-05-05T09:54:17Z</time>
      </trkpt>
      <trkpt lat="44.17266" lon="5.62753">
        <ele>800.958008</ele>
        <time>2021-05-05T09:54:26Z</time>
      </trkpt>
      <trkpt lat="44.17266" lon="5.62796">
        <ele>801.607544</ele>
        <time>2021-05-05T09:54:32Z</time>
      </trkpt>
      <trkpt lat="44.17264" lon="5.62802">
        <ele>801.650146</ele>
        <time>2021-05-05T09:54:33Z</time>
      </trkpt>
      <trkpt lat="44.17243" lon="5.62864">
        <ele>803.160583</ele>
        <time>2021-05-05T09:54:43Z</time>
      </trkpt>
      <trkpt lat="44.17242" lon="5.62871">
        <ele>803.255859</ele>
        <time>2021-05-05T09:54:44Z</time>
      </trkpt>
      <trkpt lat="44.1724" lon="5.62906">
        <ele>803.020142</ele>
        <time>2021-05-05T09:54:49Z</time>
      </trkpt>
      <trkpt lat="44.1724" lon="5.62913">
        <ele>803.217224</ele>
        <time>2021-05-05T09:54:50Z</time>
      </trkpt>
      <trkpt lat="44.17242" lon="5.62961">
        <ele>804.973755</ele>
        <time>2021-05-05T09:54:57Z</time>
      </trkpt>
      <trkpt lat="44.1724" lon="5.62967">
        <ele>804.907715</ele>
        <time>2021-05-05T09:54:58Z</time>
      </trkpt>
      <trkpt lat="44.17207" lon="5.6306">
        <ele>801.814087</ele>
        <time>2021-05-05T09:55:14Z</time>
      </trkpt>
      <trkpt lat="44.17188" lon="5.63113">
        <ele>801.34729</ele>
        <time>2021-05-05T09:55:23Z</time>
      </trkpt>
      <trkpt lat="44.17187" lon="5.63119">
        <ele>801.28479</ele>
        <time>2021-05-05T09:55:24Z</time>
      </trkpt>
      <trkpt lat="44.17186" lon="5.63125">
        <ele>801.266663</ele>
        <time>2021-05-05T09:55:25Z</time>
      </trkpt>
      <trkpt lat="44.17185" lon="5.63131">
        <ele>801.236633</ele>
        <time>2021-05-05T09:55:26Z</time>
      </trkpt>
      <trkpt lat="44.17184" lon="5.63138">
        <ele>801.266296</ele>
        <time>2021-05-05T09:55:27Z</time>
      </trkpt>
      <trkpt lat="44.17184" lon="5.63144">
        <ele>801.394409</ele>
        <time>2021-05-05T09:55:28Z</time>
      </trkpt>
      <trkpt lat="44.17185" lon="5.6315">
        <ele>801.6875</ele>
        <time>2021-05-05T09:55:29Z</time>
      </trkpt>
      <trkpt lat="44.17186" lon="5.63156">
        <ele>802.149353</ele>
        <time>2021-05-05T09:55:30Z</time>
      </trkpt>
      <trkpt lat="44.17188" lon="5.63162">
        <ele>802.716309</ele>
        <time>2021-05-05T09:55:31Z</time>
      </trkpt>
      <trkpt lat="44.17191" lon="5.63168">
        <ele>803.354126</ele>
        <time>2021-05-05T09:55:32Z</time>
      </trkpt>
      <trkpt lat="44.17194" lon="5.63173">
        <ele>803.965393</ele>
        <time>2021-05-05T09:55:33Z</time>
      </trkpt>
      <trkpt lat="44.17197" lon="5.63178">
        <ele>804.531372</ele>
        <time>2021-05-05T09:55:34Z</time>
      </trkpt>
      <trkpt lat="44.172" lon="5.63182">
        <ele>805.028076</ele>
        <time>2021-05-05T09:55:35Z</time>
      </trkpt>
      <trkpt lat="44.17205" lon="5.63191">
        <ele>805.416077</ele>
        <time>2021-05-05T09:55:37Z</time>
      </trkpt>
      <trkpt lat="44.17207" lon="5.63197">
        <ele>805.381897</ele>
        <time>2021-05-05T09:55:38Z</time>
      </trkpt>
      <trkpt lat="44.17209" lon="5.63203">
        <ele>805.211487</ele>
        <time>2021-05-05T09:55:39Z</time>
      </trkpt>
      <trkpt lat="44.17211" lon="5.63209">
        <ele>804.892883</ele>
        <time>2021-05-05T09:55:40Z</time>
      </trkpt>
      <trkpt lat="44.17212" lon="5.63215">
        <ele>804.597107</ele>
        <time>2021-05-05T09:55:41Z</time>
      </trkpt>
      <trkpt lat="44.17213" lon="5.63222">
        <ele>804.711304</ele>
        <time>2021-05-05T09:55:42Z</time>
      </trkpt>
      <trkpt lat="44.17213" lon="5.63228">
        <ele>804.579468</ele>
        <time>2021-05-05T09:55:43Z</time>
      </trkpt>
      <trkpt lat="44.17213" lon="5.63235">
        <ele>804.105835</ele>
        <time>2021-05-05T09:55:44Z</time>
      </trkpt>
      <trkpt lat="44.17213" lon="5.63241">
        <ele>803.443115</ele>
        <time>2021-05-05T09:55:45Z</time>
      </trkpt>
      <trkpt lat="44.17211" lon="5.6329">
        <ele>803.453674</ele>
        <time>2021-05-05T09:55:52Z</time>
      </trkpt>
      <trkpt lat="44.17209" lon="5.63297">
        <ele>802.865967</ele>
        <time>2021-05-05T09:55:53Z</time>
      </trkpt>
      <trkpt lat="44.17196" lon="5.63347">
        <ele>803.925354</ele>
        <time>2021-05-05T09:55:59Z</time>
      </trkpt>
      <trkpt lat="44.17192" lon="5.63354">
        <ele>803.713684</ele>
        <time>2021-05-05T09:56:00Z</time>
      </trkpt>
      <trkpt lat="44.17188" lon="5.63359">
        <ele>803.172058</ele>
        <time>2021-05-05T09:56:01Z</time>
      </trkpt>
      <trkpt lat="44.17182" lon="5.63361">
        <ele>802.30603</ele>
        <time>2021-05-05T09:56:02Z</time>
      </trkpt>
      <trkpt lat="44.17175" lon="5.63362">
        <ele>801.281311</ele>
        <time>2021-05-05T09:56:03Z</time>
      </trkpt>
      <trkpt lat="44.17169" lon="5.63362">
        <ele>800.200256</ele>
        <time>2021-05-05T09:56:04Z</time>
      </trkpt>
      <trkpt lat="44.17162" lon="5.63362">
        <ele>799.098145</ele>
        <time>2021-05-05T09:56:05Z</time>
      </trkpt>
      <trkpt lat="44.17156" lon="5.6336">
        <ele>798.856018</ele>
        <time>2021-05-05T09:56:06Z</time>
      </trkpt>
      <trkpt lat="44.17151" lon="5.63357">
        <ele>798.707581</ele>
        <time>2021-05-05T09:56:07Z</time>
      </trkpt>
      <trkpt lat="44.17136" lon="5.63349">
        <ele>798.694031</ele>
        <time>2021-05-05T09:56:10Z</time>
      </trkpt>
      <trkpt lat="44.17131" lon="5.63348">
        <ele>798.639038</ele>
        <time>2021-05-05T09:56:11Z</time>
      </trkpt>
      <trkpt lat="44.17126" lon="5.63349">
        <ele>798.412903</ele>
        <time>2021-05-05T09:56:12Z</time>
      </trkpt>
      <trkpt lat="44.17122" lon="5.63351">
        <ele>797.961731</ele>
        <time>2021-05-05T09:56:13Z</time>
      </trkpt>
      <trkpt lat="44.17119" lon="5.63355">
        <ele>797.365234</ele>
        <time>2021-05-05T09:56:14Z</time>
      </trkpt>
      <trkpt lat="44.17116" lon="5.63359">
        <ele>797.043091</ele>
        <time>2021-05-05T09:56:15Z</time>
      </trkpt>
      <trkpt lat="44.17114" lon="5.63364">
        <ele>796.702026</ele>
        <time>2021-05-05T09:56:16Z</time>
      </trkpt>
      <trkpt lat="44.17113" lon="5.6337">
        <ele>796.95752</ele>
        <time>2021-05-05T09:56:17Z</time>
      </trkpt>
      <trkpt lat="44.17113" lon="5.63376">
        <ele>797.230103</ele>
        <time>2021-05-05T09:56:18Z</time>
      </trkpt>
      <trkpt lat="44.17113" lon="5.63382">
        <ele>797.294434</ele>
        <time>2021-05-05T09:56:19Z</time>
      </trkpt>
      <trkpt lat="44.17115" lon="5.63387">
        <ele>797.140869</ele>
        <time>2021-05-05T09:56:20Z</time>
      </trkpt>
      <trkpt lat="44.17117" lon="5.63392">
        <ele>796.877747</ele>
        <time>2021-05-05T09:56:21Z</time>
      </trkpt>
      <trkpt lat="44.17119" lon="5.63396">
        <ele>797.287842</ele>
        <time>2021-05-05T09:56:22Z</time>
      </trkpt>
      <trkpt lat="44.17139" lon="5.63451">
        <ele>798.726135</ele>
        <time>2021-05-05T09:56:31Z</time>
      </trkpt>
      <trkpt lat="44.1714" lon="5.63457">
        <ele>797.699646</ele>
        <time>2021-05-05T09:56:32Z</time>
      </trkpt>
      <trkpt lat="44.17139" lon="5.63462">
        <ele>797.029663</ele>
        <time>2021-05-05T09:56:33Z</time>
      </trkpt>
      <trkpt lat="44.17139" lon="5.63465">
        <ele>796.511292</ele>
        <time>2021-05-05T09:56:42Z</time>
      </trkpt>
      <trkpt lat="44.17139" lon="5.63469">
        <ele>795.860168</ele>
        <time>2021-05-05T09:56:48Z</time>
      </trkpt>
      <trkpt lat="44.1714" lon="5.63471">
        <ele>795.372375</ele>
        <time>2021-05-05T09:56:49Z</time>
      </trkpt>
      <trkpt lat="44.17147" lon="5.63511">
        <ele>784.420532</ele>
        <time>2021-05-05T09:56:59Z</time>
      </trkpt>
      <trkpt lat="44.17147" lon="5.63512">
        <ele>784.117126</ele>
        <time>2021-05-05T09:57:08Z</time>
      </trkpt>
      <trkpt lat="44.17149" lon="5.63513">
        <ele>783.032288</ele>
        <time>2021-05-05T09:57:09Z</time>
      </trkpt>
      <trkpt lat="44.1715" lon="5.63516">
        <ele>781.609558</ele>
        <time>2021-05-05T09:57:10Z</time>
      </trkpt>
      <trkpt lat="44.17151" lon="5.63519">
        <ele>779.730469</ele>
        <time>2021-05-05T09:57:11Z</time>
      </trkpt>
      <trkpt lat="44.17152" lon="5.63522">
        <ele>777.952148</ele>
        <time>2021-05-05T09:57:12Z</time>
      </trkpt>
      <trkpt lat="44.17153" lon="5.63525">
        <ele>775.991943</ele>
        <time>2021-05-05T09:57:13Z</time>
      </trkpt>
      <trkpt lat="44.17157" lon="5.6353">
        <ele>771.065552</ele>
        <time>2021-05-05T09:57:22Z</time>
      </trkpt>
      <trkpt lat="44.17171" lon="5.63545">
        <ele>779.188232</ele>
        <time>2021-05-05T09:57:28Z</time>
      </trkpt>
      <trkpt lat="44.17179" lon="5.63552">
        <ele>783.126343</ele>
        <time>2021-05-05T09:57:30Z</time>
      </trkpt>
      <trkpt lat="44.17201" lon="5.63584">
        <ele>784.291748</ele>
        <time>2021-05-05T09:57:36Z</time>
      </trkpt>
      <trkpt lat="44.17203" lon="5.63591">
        <ele>781.590698</ele>
        <time>2021-05-05T09:57:37Z</time>
      </trkpt>
      <trkpt lat="44.17206" lon="5.63598">
        <ele>778.704773</ele>
        <time>2021-05-05T09:57:38Z</time>
      </trkpt>
      <trkpt lat="44.17217" lon="5.63629">
        <ele>769.398682</ele>
        <time>2021-05-05T09:57:42Z</time>
      </trkpt>
      <trkpt lat="44.17256" lon="5.63702">
        <ele>765.354675</ele>
        <time>2021-05-05T09:57:51Z</time>
      </trkpt>
      <trkpt lat="44.17262" lon="5.63709">
        <ele>765.261902</ele>
        <time>2021-05-05T09:57:52Z</time>
      </trkpt>
      <trkpt lat="44.17269" lon="5.63715">
        <ele>765.287354</ele>
        <time>2021-05-05T09:57:53Z</time>
      </trkpt>
      <trkpt lat="44.17361" lon="5.63782">
        <ele>764.133484</ele>
        <time>2021-05-05T09:58:07Z</time>
      </trkpt>
      <trkpt lat="44.17393" lon="5.63805">
        <ele>762.801331</ele>
        <time>2021-05-05T09:58:17Z</time>
      </trkpt>
      <trkpt lat="44.17396" lon="5.63806">
        <ele>762.826782</ele>
        <time>2021-05-05T09:58:29Z</time>
      </trkpt>
      <trkpt lat="44.1741" lon="5.63813">
        <ele>762.532227</ele>
        <time>2021-05-05T09:58:45Z</time>
      </trkpt>
      <trkpt lat="44.17446" lon="5.63827">
        <ele>762.562561</ele>
        <time>2021-05-05T09:58:57Z</time>
      </trkpt>
      <trkpt lat="44.17448" lon="5.6383">
        <ele>762.372559</ele>
        <time>2021-05-05T09:59:08Z</time>
      </trkpt>
      <trkpt lat="44.17454" lon="5.63831">
        <ele>762.55658</ele>
        <time>2021-05-05T09:59:27Z</time>
      </trkpt>
      <trkpt lat="44.17494" lon="5.63833">
        <ele>759.949097</ele>
        <time>2021-05-05T09:59:40Z</time>
      </trkpt>
      <trkpt lat="44.17498" lon="5.63831">
        <ele>759.788391</ele>
        <time>2021-05-05T09:59:41Z</time>
      </trkpt>
      <trkpt lat="44.1755" lon="5.6379">
        <ele>755.84668</ele>
        <time>2021-05-05T09:59:53Z</time>
      </trkpt>
      <trkpt lat="44.17555" lon="5.63789">
        <ele>755.22876</ele>
        <time>2021-05-05T09:59:54Z</time>
      </trkpt>
      <trkpt lat="44.1756" lon="5.6379">
        <ele>754.869202</ele>
        <time>2021-05-05T09:59:55Z</time>
      </trkpt>
      <trkpt lat="44.17564" lon="5.63793">
        <ele>754.48938</ele>
        <time>2021-05-05T09:59:56Z</time>
      </trkpt>
      <trkpt lat="44.17566" lon="5.63797">
        <ele>754.225769</ele>
        <time>2021-05-05T09:59:57Z</time>
      </trkpt>
      <trkpt lat="44.17567" lon="5.63803">
        <ele>753.997131</ele>
        <time>2021-05-05T09:59:58Z</time>
      </trkpt>
      <trkpt lat="44.17567" lon="5.63809">
        <ele>753.858765</ele>
        <time>2021-05-05T09:59:59Z</time>
      </trkpt>
      <trkpt lat="44.17566" lon="5.63814">
        <ele>753.781494</ele>
        <time>2021-05-05T10:00:00Z</time>
      </trkpt>
      <trkpt lat="44.17565" lon="5.6382">
        <ele>753.698914</ele>
        <time>2021-05-05T10:00:01Z</time>
      </trkpt>
      <trkpt lat="44.17557" lon="5.63856">
        <ele>753.803772</ele>
        <time>2021-05-05T10:00:12Z</time>
      </trkpt>
      <trkpt lat="44.17556" lon="5.63868">
        <ele>753.80365</ele>
        <time>2021-05-05T10:00:23Z</time>
      </trkpt>
      <trkpt lat="44.17555" lon="5.63874">
        <ele>753.862915</ele>
        <time>2021-05-05T10:00:28Z</time>
      </trkpt>
      <trkpt lat="44.17555" lon="5.63876">
        <ele>753.847717</ele>
        <time>2021-05-05T10:00:29Z</time>
      </trkpt>
      <trkpt lat="44.17555" lon="5.63879">
        <ele>753.8302</ele>
        <time>2021-05-05T10:00:30Z</time>
      </trkpt>
      <trkpt lat="44.17555" lon="5.63882">
        <ele>753.836853</ele>
        <time>2021-05-05T10:00:31Z</time>
      </trkpt>
      <trkpt lat="44.17555" lon="5.63886">
        <ele>753.850769</ele>
        <time>2021-05-05T10:00:32Z</time>
      </trkpt>
      <trkpt lat="44.17549" lon="5.63933">
        <ele>752.638916</ele>
        <time>2021-05-05T10:00:43Z</time>
      </trkpt>
      <trkpt lat="44.17551" lon="5.6394">
        <ele>752.430847</ele>
        <time>2021-05-05T10:00:45Z</time>
      </trkpt>
      <trkpt lat="44.17552" lon="5.63942">
        <ele>752.358276</ele>
        <time>2021-05-05T10:00:46Z</time>
      </trkpt>
      <trkpt lat="44.17554" lon="5.63943">
        <ele>752.299194</ele>
        <time>2021-05-05T10:00:47Z</time>
      </trkpt>
      <trkpt lat="44.17565" lon="5.63939">
        <ele>752.334839</ele>
        <time>2021-05-05T10:00:55Z</time>
      </trkpt>
      <trkpt lat="44.17566" lon="5.63931">
        <ele>752.464355</ele>
        <time>2021-05-05T10:00:59Z</time>
      </trkpt>
      <trkpt lat="44.1757" lon="5.63918">
        <ele>752.652527</ele>
        <time>2021-05-05T10:01:05Z</time>
      </trkpt>
      <trkpt lat="44.17575" lon="5.63894">
        <ele>752.914856</ele>
        <time>2021-05-05T10:01:16Z</time>
      </trkpt>
      <trkpt lat="44.17576" lon="5.63893">
        <ele>752.893494</ele>
        <time>2021-05-05T10:01:27Z</time>
      </trkpt>
      <trkpt lat="44.17577" lon="5.63889">
        <ele>752.871399</ele>
        <time>2021-05-05T10:01:40Z</time>
      </trkpt>
      <trkpt lat="44.17579" lon="5.63891">
        <ele>752.767151</ele>
        <time>2021-05-05T10:02:07Z</time>
      </trkpt>
      <trkpt lat="44.17575" lon="5.63895">
        <ele>752.895386</ele>
        <time>2021-05-05T10:02:40Z</time>
      </trkpt>
      <trkpt lat="44.17577" lon="5.63892">
        <ele>752.840515</ele>
        <time>2021-05-05T10:03:13Z</time>
      </trkpt>
      <trkpt lat="44.17578" lon="5.6389">
        <ele>752.801086</ele>
        <time>2021-05-05T10:03:49Z</time>
      </trkpt>
      <trkpt lat="44.17575" lon="5.63893">
        <ele>752.930481</ele>
        <time>2021-05-05T10:04:22Z</time>
      </trkpt>
      <trkpt lat="44.17576" lon="5.63892">
        <ele>752.89093</ele>
        <time>2021-05-05T10:04:53Z</time>
      </trkpt>
      <trkpt lat="44.17575" lon="5.63891">
        <ele>752.96106</ele>
        <time>2021-05-05T10:05:17Z</time>
      </trkpt>
      <trkpt lat="44.17573" lon="5.6389">
        <ele>753.057739</ele>
        <time>2021-05-05T10:05:46Z</time>
      </trkpt>
      <trkpt lat="44.17577" lon="5.63889">
        <ele>752.861755</ele>
        <time>2021-05-05T10:06:24Z</time>
      </trkpt>
      <trkpt lat="44.17576" lon="5.6389">
        <ele>752.902344</ele>
        <time>2021-05-05T10:06:48Z</time>
      </trkpt>
      <trkpt lat="44.17574" lon="5.63891">
        <ele>752.97821</ele>
        <time>2021-05-05T10:07:14Z</time>
      </trkpt>
      <trkpt lat="44.17577" lon="5.63888">
        <ele>752.880371</ele>
        <time>2021-05-05T10:07:38Z</time>
      </trkpt>
      <trkpt lat="44.17579" lon="5.63884">
        <ele>752.770386</ele>
        <time>2021-05-05T10:08:01Z</time>
      </trkpt>
      <trkpt lat="44.17579" lon="5.63891">
        <ele>752.751831</ele>
        <time>2021-05-05T10:08:32Z</time>
      </trkpt>
      <trkpt lat="44.17577" lon="5.6389">
        <ele>752.871765</ele>
        <time>2021-05-05T10:08:59Z</time>
      </trkpt>
      <trkpt lat="44.17578" lon="5.63887">
        <ele>752.821716</ele>
        <time>2021-05-05T10:09:19Z</time>
      </trkpt>
      <trkpt lat="44.17578" lon="5.63884">
        <ele>752.821899</ele>
        <time>2021-05-05T10:09:38Z</time>
      </trkpt>
      <trkpt lat="44.17572" lon="5.6389">
        <ele>753.083069</ele>
        <time>2021-05-05T10:10:01Z</time>
      </trkpt>
      <trkpt lat="44.17568" lon="5.63898">
        <ele>753.129578</ele>
        <time>2021-05-05T10:10:40Z</time>
      </trkpt>
      <trkpt lat="44.17578" lon="5.63889">
        <ele>752.831787</ele>
        <time>2021-05-05T10:11:07Z</time>
      </trkpt>
      <trkpt lat="44.17578" lon="5.63886">
        <ele>752.837891</ele>
        <time>2021-05-05T10:11:32Z</time>
      </trkpt>
      <trkpt lat="44.17575" lon="5.6389">
        <ele>752.947998</ele>
        <time>2021-05-05T10:11:57Z</time>
      </trkpt>
      <trkpt lat="44.17574" lon="5.63892">
        <ele>753.004028</ele>
        <time>2021-05-05T10:12:27Z</time>
      </trkpt>
      <trkpt lat="44.17576" lon="5.63892">
        <ele>752.897278</ele>
        <time>2021-05-05T10:12:58Z</time>
      </trkpt>
      <trkpt lat="44.17579" lon="5.63889">
        <ele>752.777954</ele>
        <time>2021-05-05T10:13:23Z</time>
      </trkpt>
      <trkpt lat="44.17577" lon="5.63885">
        <ele>752.852417</ele>
        <time>2021-05-05T10:13:47Z</time>
      </trkpt>
      <trkpt lat="44.1757" lon="5.63895">
        <ele>753.108337</ele>
        <time>2021-05-05T10:14:10Z</time>
      </trkpt>
      <trkpt lat="44.17569" lon="5.639">
        <ele>753.05011</ele>
        <time>2021-05-05T10:14:36Z</time>
      </trkpt>
      <trkpt lat="44.17573" lon="5.63898">
        <ele>752.946472</ele>
        <time>2021-05-05T10:14:57Z</time>
      </trkpt>
      <trkpt lat="44.17569" lon="5.63893">
        <ele>753.201721</ele>
        <time>2021-05-05T10:15:28Z</time>
      </trkpt>
      <trkpt lat="44.17572" lon="5.63893">
        <ele>753.076172</ele>
        <time>2021-05-05T10:15:59Z</time>
      </trkpt>
      <trkpt lat="44.17572" lon="5.63892">
        <ele>753.058105</ele>
        <time>2021-05-05T10:16:34Z</time>
      </trkpt>
      <trkpt lat="44.17577" lon="5.63891">
        <ele>752.866272</ele>
        <time>2021-05-05T10:17:03Z</time>
      </trkpt>
      <trkpt lat="44.17574" lon="5.6389">
        <ele>753.00238</ele>
        <time>2021-05-05T10:17:32Z</time>
      </trkpt>
      <trkpt lat="44.17574" lon="5.6389">
        <ele>752.99762</ele>
        <time>2021-05-05T10:17:57Z</time>
      </trkpt>
      <trkpt lat="44.17575" lon="5.6389">
        <ele>752.968445</ele>
        <time>2021-05-05T10:18:20Z</time>
      </trkpt>
      <trkpt lat="44.17578" lon="5.63892">
        <ele>752.829102</ele>
        <time>2021-05-05T10:18:53Z</time>
      </trkpt>
      <trkpt lat="44.17573" lon="5.63888">
        <ele>753.053894</ele>
        <time>2021-05-05T10:19:21Z</time>
      </trkpt>
      <trkpt lat="44.17571" lon="5.63891">
        <ele>753.118103</ele>
        <time>2021-05-05T10:19:49Z</time>
      </trkpt>
      <trkpt lat="44.17576" lon="5.63889">
        <ele>752.88855</ele>
        <time>2021-05-05T10:20:28Z</time>
      </trkpt>
      <trkpt lat="44.17576" lon="5.6389">
        <ele>752.882568</ele>
        <time>2021-05-05T10:20:59Z</time>
      </trkpt>
      <trkpt lat="44.17573" lon="5.63889">
        <ele>753.045532</ele>
        <time>2021-05-05T10:21:29Z</time>
      </trkpt>
      <trkpt lat="44.17576" lon="5.6389">
        <ele>752.922791</ele>
        <time>2021-05-05T10:21:49Z</time>
      </trkpt>
      <trkpt lat="44.17579" lon="5.63891">
        <ele>752.78772</ele>
        <time>2021-05-05T10:22:07Z</time>
      </trkpt>
      <trkpt lat="44.17582" lon="5.63889">
        <ele>752.636658</ele>
        <time>2021-05-05T10:22:28Z</time>
      </trkpt>
      <trkpt lat="44.17574" lon="5.63891">
        <ele>752.990967</ele>
        <time>2021-05-05T10:22:49Z</time>
      </trkpt>
      <trkpt lat="44.17576" lon="5.6389">
        <ele>752.905334</ele>
        <time>2021-05-05T10:23:16Z</time>
      </trkpt>
      <trkpt lat="44.17574" lon="5.63895">
        <ele>752.92511</ele>
        <time>2021-05-05T10:23:42Z</time>
      </trkpt>
      <trkpt lat="44.17571" lon="5.63896">
        <ele>753.05188</ele>
        <time>2021-05-05T10:24:09Z</time>
      </trkpt>
      <trkpt lat="44.17572" lon="5.63891">
        <ele>753.093201</ele>
        <time>2021-05-05T10:24:35Z</time>
      </trkpt>
      <trkpt lat="44.17571" lon="5.63894">
        <ele>753.095398</ele>
        <time>2021-05-05T10:25:03Z</time>
      </trkpt>
      <trkpt lat="44.17574" lon="5.63892">
        <ele>752.969299</ele>
        <time>2021-05-05T10:25:33Z</time>
      </trkpt>
      <trkpt lat="44.17574" lon="5.63891">
        <ele>752.997803</ele>
        <time>2021-05-05T10:26:03Z</time>
      </trkpt>
      <trkpt lat="44.17574" lon="5.63893">
        <ele>752.972839</ele>
        <time>2021-05-05T10:26:33Z</time>
      </trkpt>
      <trkpt lat="44.17573" lon="5.63898">
        <ele>752.938416</ele>
        <time>2021-05-05T10:26:56Z</time>
      </trkpt>
      <trkpt lat="44.17574" lon="5.63891">
        <ele>752.984619</ele>
        <time>2021-05-05T10:27:15Z</time>
      </trkpt>
      <trkpt lat="44.17571" lon="5.63884">
        <ele>753.132629</ele>
        <time>2021-05-05T10:27:53Z</time>
      </trkpt>
      <trkpt lat="44.17572" lon="5.63896">
        <ele>753.005005</ele>
        <time>2021-05-05T10:28:32Z</time>
      </trkpt>
      <trkpt lat="44.17578" lon="5.63894">
        <ele>752.79657</ele>
        <time>2021-05-05T10:29:05Z</time>
      </trkpt>
      <trkpt lat="44.17577" lon="5.6389">
        <ele>752.863464</ele>
        <time>2021-05-05T10:29:39Z</time>
      </trkpt>
      <trkpt lat="44.17572" lon="5.63886">
        <ele>753.065857</ele>
        <time>2021-05-05T10:30:20Z</time>
      </trkpt>
      <trkpt lat="44.17571" lon="5.63888">
        <ele>753.147278</ele>
        <time>2021-05-05T10:30:50Z</time>
      </trkpt>
      <trkpt lat="44.17571" lon="5.63888">
        <ele>753.137024</ele>
        <time>2021-05-05T10:31:25Z</time>
      </trkpt>
      <trkpt lat="44.17573" lon="5.63888">
        <ele>753.036377</ele>
        <time>2021-05-05T10:31:54Z</time>
      </trkpt>
      <trkpt lat="44.17575" lon="5.63889">
        <ele>752.928955</ele>
        <time>2021-05-05T10:32:17Z</time>
      </trkpt>
      <trkpt lat="44.17579" lon="5.63888">
        <ele>752.788086</ele>
        <time>2021-05-05T10:32:46Z</time>
      </trkpt>
      <trkpt lat="44.17575" lon="5.63887">
        <ele>752.961487</ele>
        <time>2021-05-05T10:33:09Z</time>
      </trkpt>
      <trkpt lat="44.17575" lon="5.63889">
        <ele>752.953735</ele>
        <time>2021-05-05T10:33:29Z</time>
      </trkpt>
      <trkpt lat="44.17579" lon="5.63893">
        <ele>752.773804</ele>
        <time>2021-05-05T10:33:53Z</time>
      </trkpt>
      <trkpt lat="44.17577" lon="5.63889">
        <ele>752.839783</ele>
        <time>2021-05-05T10:34:14Z</time>
      </trkpt>
      <trkpt lat="44.17574" lon="5.63893">
        <ele>752.963501</ele>
        <time>2021-05-05T10:34:39Z</time>
      </trkpt>
      <trkpt lat="44.17574" lon="5.63891">
        <ele>753.009827</ele>
        <time>2021-05-05T10:34:59Z</time>
      </trkpt>
      <trkpt lat="44.17571" lon="5.63885">
        <ele>753.142395</ele>
        <time>2021-05-05T10:35:34Z</time>
      </trkpt>
      <trkpt lat="44.17574" lon="5.63892">
        <ele>752.995728</ele>
        <time>2021-05-05T10:36:04Z</time>
      </trkpt>
      <trkpt lat="44.17574" lon="5.63888">
        <ele>752.987183</ele>
        <time>2021-05-05T10:36:36Z</time>
      </trkpt>
      <trkpt lat="44.17573" lon="5.6389">
        <ele>753.055237</ele>
        <time>2021-05-05T10:37:00Z</time>
      </trkpt>
      <trkpt lat="44.17577" lon="5.63895">
        <ele>752.825317</ele>
        <time>2021-05-05T10:37:25Z</time>
      </trkpt>
      <trkpt lat="44.17575" lon="5.63886">
        <ele>752.962646</ele>
        <time>2021-05-05T10:37:43Z</time>
      </trkpt>
      <trkpt lat="44.17575" lon="5.63888">
        <ele>752.963806</ele>
        <time>2021-05-05T10:38:10Z</time>
      </trkpt>
      <trkpt lat="44.17579" lon="5.63891">
        <ele>752.757751</ele>
        <time>2021-05-05T10:38:31Z</time>
      </trkpt>
      <trkpt lat="44.17579" lon="5.63894">
        <ele>752.762695</ele>
        <time>2021-05-05T10:38:57Z</time>
      </trkpt>
      <trkpt lat="44.17578" lon="5.63892">
        <ele>752.793579</ele>
        <time>2021-05-05T10:39:25Z</time>
      </trkpt>
      <trkpt lat="44.17574" lon="5.63892">
        <ele>752.98175</ele>
        <time>2021-05-05T10:40:01Z</time>
      </trkpt>
      <trkpt lat="44.17576" lon="5.63892">
        <ele>752.894653</ele>
        <time>2021-05-05T10:40:40Z</time>
      </trkpt>
      <trkpt lat="44.17575" lon="5.63892">
        <ele>752.96167</ele>
        <time>2021-05-05T10:41:11Z</time>
      </trkpt>
      <trkpt lat="44.17579" lon="5.63892">
        <ele>752.770447</ele>
        <time>2021-05-05T10:41:41Z</time>
      </trkpt>
      <trkpt lat="44.1758" lon="5.63892">
        <ele>752.710205</ele>
        <time>2021-05-05T10:42:04Z</time>
      </trkpt>
      <trkpt lat="44.17574" lon="5.63887">
        <ele>753.003174</ele>
        <time>2021-05-05T10:42:31Z</time>
      </trkpt>
      <trkpt lat="44.17573" lon="5.63889">
        <ele>753.045593</ele>
        <time>2021-05-05T10:42:49Z</time>
      </trkpt>
      <trkpt lat="44.17573" lon="5.63895">
        <ele>752.977722</ele>
        <time>2021-05-05T10:43:09Z</time>
      </trkpt>
      <trkpt lat="44.17573" lon="5.63895">
        <ele>752.980957</ele>
        <time>2021-05-05T10:43:29Z</time>
      </trkpt>
      <trkpt lat="44.17579" lon="5.63892">
        <ele>752.765442</ele>
        <time>2021-05-05T10:43:56Z</time>
      </trkpt>
      <trkpt lat="44.17582" lon="5.63893">
        <ele>752.630432</ele>
        <time>2021-05-05T10:44:20Z</time>
      </trkpt>
      <trkpt lat="44.1758" lon="5.63889">
        <ele>752.711243</ele>
        <time>2021-05-05T10:44:43Z</time>
      </trkpt>
      <trkpt lat="44.17574" lon="5.63891">
        <ele>752.978271</ele>
        <time>2021-05-05T10:45:03Z</time>
      </trkpt>
      <trkpt lat="44.17576" lon="5.63891">
        <ele>752.89447</ele>
        <time>2021-05-05T10:45:26Z</time>
      </trkpt>
      <trkpt lat="44.17566" lon="5.63891">
        <ele>753.328491</ele>
        <time>2021-05-05T10:45:46Z</time>
      </trkpt>
      <trkpt lat="44.1757" lon="5.63891">
        <ele>753.183472</ele>
        <time>2021-05-05T10:46:06Z</time>
      </trkpt>
      <trkpt lat="44.17569" lon="5.63891">
        <ele>753.216248</ele>
        <time>2021-05-05T10:46:27Z</time>
      </trkpt>
      <trkpt lat="44.17569" lon="5.63891">
        <ele>753.203735</ele>
        <time>2021-05-05T10:46:43Z</time>
      </trkpt>
      <trkpt lat="44.17575" lon="5.63892">
        <ele>752.95697</ele>
        <time>2021-05-05T10:47:11Z</time>
      </trkpt>
      <trkpt lat="44.1758" lon="5.63895">
        <ele>752.709839</ele>
        <time>2021-05-05T10:47:27Z</time>
      </trkpt>
      <trkpt lat="44.17581" lon="5.63896">
        <ele>752.649536</ele>
        <time>2021-05-05T10:47:55Z</time>
      </trkpt>
      <trkpt lat="44.17584" lon="5.63896">
        <ele>752.519104</ele>
        <time>2021-05-05T10:48:23Z</time>
      </trkpt>
      <trkpt lat="44.17583" lon="5.63895">
        <ele>752.585754</ele>
        <time>2021-05-05T10:48:46Z</time>
      </trkpt>
      <trkpt lat="44.17582" lon="5.63892">
        <ele>752.654419</ele>
        <time>2021-05-05T10:49:05Z</time>
      </trkpt>
      <trkpt lat="44.17585" lon="5.63895">
        <ele>752.473022</ele>
        <time>2021-05-05T10:49:42Z</time>
      </trkpt>
      <trkpt lat="44.17582" lon="5.63889">
        <ele>752.61792</ele>
        <time>2021-05-05T10:50:08Z</time>
      </trkpt>
      <trkpt lat="44.17582" lon="5.63893">
        <ele>752.648438</ele>
        <time>2021-05-05T10:50:42Z</time>
      </trkpt>
      <trkpt lat="44.17581" lon="5.63892">
        <ele>752.6745</ele>
        <time>2021-05-05T10:51:07Z</time>
      </trkpt>
      <trkpt lat="44.17583" lon="5.63892">
        <ele>752.590881</ele>
        <time>2021-05-05T10:51:29Z</time>
      </trkpt>
      <trkpt lat="44.17582" lon="5.63891">
        <ele>752.61377</ele>
        <time>2021-05-05T10:51:45Z</time>
      </trkpt>
      <trkpt lat="44.17582" lon="5.63891">
        <ele>752.648499</ele>
        <time>2021-05-05T10:52:00Z</time>
      </trkpt>
      <trkpt lat="44.17583" lon="5.63891">
        <ele>752.609436</ele>
        <time>2021-05-05T10:52:14Z</time>
      </trkpt>
      <trkpt lat="44.17582" lon="5.63894">
        <ele>752.633789</ele>
        <time>2021-05-05T10:52:30Z</time>
      </trkpt>
      <trkpt lat="44.17585" lon="5.63893">
        <ele>752.500916</ele>
        <time>2021-05-05T10:53:00Z</time>
      </trkpt>
      <trkpt lat="44.17587" lon="5.63895">
        <ele>752.403442</ele>
        <time>2021-05-05T10:53:15Z</time>
      </trkpt>
      <trkpt lat="44.17585" lon="5.63896">
        <ele>752.453491</ele>
        <time>2021-05-05T10:53:32Z</time>
      </trkpt>
      <trkpt lat="44.17583" lon="5.63895">
        <ele>752.582642</ele>
        <time>2021-05-05T10:53:51Z</time>
      </trkpt>
      <trkpt lat="44.1758" lon="5.63893">
        <ele>752.701294</ele>
        <time>2021-05-05T10:54:07Z</time>
      </trkpt>
      <trkpt lat="44.17582" lon="5.63893">
        <ele>752.647827</ele>
        <time>2021-05-05T10:54:20Z</time>
      </trkpt>
      <trkpt lat="44.17582" lon="5.6389">
        <ele>752.633179</ele>
        <time>2021-05-05T10:54:38Z</time>
      </trkpt>
      <trkpt lat="44.17582" lon="5.63892">
        <ele>752.617004</ele>
        <time>2021-05-05T10:54:54Z</time>
      </trkpt>
      <trkpt lat="44.17583" lon="5.63894">
        <ele>752.591003</ele>
        <time>2021-05-05T10:55:16Z</time>
      </trkpt>
      <trkpt lat="44.17581" lon="5.63893">
        <ele>752.673889</ele>
        <time>2021-05-05T10:55:40Z</time>
      </trkpt>
      <trkpt lat="44.17578" lon="5.63891">
        <ele>752.812134</ele>
        <time>2021-05-05T10:56:04Z</time>
      </trkpt>
      <trkpt lat="44.17576" lon="5.63895">
        <ele>752.877502</ele>
        <time>2021-05-05T10:56:31Z</time>
      </trkpt>
      <trkpt lat="44.17577" lon="5.63888">
        <ele>752.858337</ele>
        <time>2021-05-05T10:56:57Z</time>
      </trkpt>
      <trkpt lat="44.17578" lon="5.63889">
        <ele>752.798767</ele>
        <time>2021-05-05T10:57:12Z</time>
      </trkpt>
      <trkpt lat="44.1758" lon="5.6389">
        <ele>752.737976</ele>
        <time>2021-05-05T10:57:23Z</time>
      </trkpt>
      <trkpt lat="44.17582" lon="5.6389">
        <ele>752.636108</ele>
        <time>2021-05-05T10:57:34Z</time>
      </trkpt>
      <trkpt lat="44.17579" lon="5.63892">
        <ele>752.75708</ele>
        <time>2021-05-05T10:57:47Z</time>
      </trkpt>
      <trkpt lat="44.17581" lon="5.63893">
        <ele>752.667847</ele>
        <time>2021-05-05T10:58:08Z</time>
      </trkpt>
      <trkpt lat="44.1758" lon="5.6389">
        <ele>752.705017</ele>
        <time>2021-05-05T10:58:30Z</time>
      </trkpt>
      <trkpt lat="44.17582" lon="5.63895">
        <ele>752.622742</ele>
        <time>2021-05-05T10:58:58Z</time>
      </trkpt>
      <trkpt lat="44.17583" lon="5.63893">
        <ele>752.595825</ele>
        <time>2021-05-05T10:59:28Z</time>
      </trkpt>
      <trkpt lat="44.17583" lon="5.63894">
        <ele>752.566284</ele>
        <time>2021-05-05T10:59:48Z</time>
      </trkpt>
      <trkpt lat="44.1758" lon="5.63896">
        <ele>752.686157</ele>
        <time>2021-05-05T10:59:54Z</time>
      </trkpt>
      <trkpt lat="44.17579" lon="5.63899">
        <ele>752.688538</ele>
        <time>2021-05-05T10:59:55Z</time>
      </trkpt>
      <trkpt lat="44.17578" lon="5.63901">
        <ele>752.703064</ele>
        <time>2021-05-05T10:59:56Z</time>
      </trkpt>
      <trkpt lat="44.17576" lon="5.63903">
        <ele>752.742432</ele>
        <time>2021-05-05T10:59:57Z</time>
      </trkpt>
      <trkpt lat="44.17574" lon="5.63905">
        <ele>752.78125</ele>
        <time>2021-05-05T10:59:58Z</time>
      </trkpt>
      <trkpt lat="44.17572" lon="5.63907">
        <ele>752.820251</ele>
        <time>2021-05-05T10:59:59Z</time>
      </trkpt>
      <trkpt lat="44.1757" lon="5.63908">
        <ele>752.84967</ele>
        <time>2021-05-05T11:00:00Z</time>
      </trkpt>
      <trkpt lat="44.17568" lon="5.6391">
        <ele>752.877991</ele>
        <time>2021-05-05T11:00:01Z</time>
      </trkpt>
      <trkpt lat="44.17567" lon="5.63911">
        <ele>752.894226</ele>
        <time>2021-05-05T11:00:02Z</time>
      </trkpt>
      <trkpt lat="44.17565" lon="5.63913">
        <ele>752.892883</ele>
        <time>2021-05-05T11:00:03Z</time>
      </trkpt>
      <trkpt lat="44.17564" lon="5.63914">
        <ele>752.879639</ele>
        <time>2021-05-05T11:00:04Z</time>
      </trkpt>
      <trkpt lat="44.17559" lon="5.63912">
        <ele>753.078796</ele>
        <time>2021-05-05T11:00:17Z</time>
      </trkpt>
      <trkpt lat="44.1756" lon="5.63915">
        <ele>752.981079</ele>
        <time>2021-05-05T11:00:53Z</time>
      </trkpt>
      <trkpt lat="44.17561" lon="5.63917">
        <ele>752.922058</ele>
        <time>2021-05-05T11:01:01Z</time>
      </trkpt>
      <trkpt lat="44.17562" lon="5.63919">
        <ele>752.842041</ele>
        <time>2021-05-05T11:01:03Z</time>
      </trkpt>
      <trkpt lat="44.17566" lon="5.63921">
        <ele>752.693481</ele>
        <time>2021-05-05T11:01:07Z</time>
      </trkpt>
      <trkpt lat="44.17567" lon="5.63923">
        <ele>752.644226</ele>
        <time>2021-05-05T11:01:08Z</time>
      </trkpt>
      <trkpt lat="44.17567" lon="5.63924">
        <ele>752.607178</ele>
        <time>2021-05-05T11:01:09Z</time>
      </trkpt>
      <trkpt lat="44.17569" lon="5.63924">
        <ele>752.557434</ele>
        <time>2021-05-05T11:01:18Z</time>
      </trkpt>
      <trkpt lat="44.1757" lon="5.63926">
        <ele>752.522583</ele>
        <time>2021-05-05T11:01:43Z</time>
      </trkpt>
      <trkpt lat="44.1757" lon="5.63935">
        <ele>752.341064</ele>
        <time>2021-05-05T11:01:48Z</time>
      </trkpt>
      <trkpt lat="44.17567" lon="5.63946">
        <ele>752.17157</ele>
        <time>2021-05-05T11:01:52Z</time>
      </trkpt>
      <trkpt lat="44.17564" lon="5.63948">
        <ele>752.140503</ele>
        <time>2021-05-05T11:01:56Z</time>
      </trkpt>
      <trkpt lat="44.17565" lon="5.63947">
        <ele>752.14502</ele>
        <time>2021-05-05T11:02:09Z</time>
      </trkpt>
      <trkpt lat="44.17564" lon="5.63947">
        <ele>752.146362</ele>
        <time>2021-05-05T11:02:10Z</time>
      </trkpt>
      <trkpt lat="44.17555" lon="5.63945">
        <ele>752.249084</ele>
        <time>2021-05-05T11:02:16Z</time>
      </trkpt>
      <trkpt lat="44.17551" lon="5.63948">
        <ele>752.171814</ele>
        <time>2021-05-05T11:02:19Z</time>
      </trkpt>
      <trkpt lat="44.17548" lon="5.63951">
        <ele>752.035034</ele>
        <time>2021-05-05T11:02:20Z</time>
      </trkpt>
      <trkpt lat="44.17547" lon="5.63954">
        <ele>751.855835</ele>
        <time>2021-05-05T11:02:21Z</time>
      </trkpt>
      <trkpt lat="44.17545" lon="5.63959">
        <ele>751.552429</ele>
        <time>2021-05-05T11:02:22Z</time>
      </trkpt>
      <trkpt lat="44.17545" lon="5.63963">
        <ele>751.275696</ele>
        <time>2021-05-05T11:02:23Z</time>
      </trkpt>
      <trkpt lat="44.17544" lon="5.63967">
        <ele>750.979309</ele>
        <time>2021-05-05T11:02:24Z</time>
      </trkpt>
      <trkpt lat="44.17535" lon="5.64051">
        <ele>745.289551</ele>
        <time>2021-05-05T11:02:36Z</time>
      </trkpt>
      <trkpt lat="44.17532" lon="5.64088">
        <ele>742.796448</ele>
        <time>2021-05-05T11:02:40Z</time>
      </trkpt>
      <trkpt lat="44.17532" lon="5.64097">
        <ele>742.271729</ele>
        <time>2021-05-05T11:02:41Z</time>
      </trkpt>
      <trkpt lat="44.1754" lon="5.64202">
        <ele>738.962097</ele>
        <time>2021-05-05T11:02:54Z</time>
      </trkpt>
      <trkpt lat="44.17551" lon="5.64348">
        <ele>740.014709</ele>
        <time>2021-05-05T11:03:10Z</time>
      </trkpt>
      <trkpt lat="44.1756" lon="5.6448">
        <ele>739.362732</ele>
        <time>2021-05-05T11:03:28Z</time>
      </trkpt>
      <trkpt lat="44.17564" lon="5.64506">
        <ele>739.240723</ele>
        <time>2021-05-05T11:03:32Z</time>
      </trkpt>
      <trkpt lat="44.17594" lon="5.64592">
        <ele>741.284546</ele>
        <time>2021-05-05T11:03:48Z</time>
      </trkpt>
      <trkpt lat="44.17607" lon="5.6465">
        <ele>741.611755</ele>
        <time>2021-05-05T11:03:59Z</time>
      </trkpt>
      <trkpt lat="44.1762" lon="5.64751">
        <ele>742.918579</ele>
        <time>2021-05-05T11:04:17Z</time>
      </trkpt>
      <trkpt lat="44.1762" lon="5.64776">
        <ele>742.921448</ele>
        <time>2021-05-05T11:04:21Z</time>
      </trkpt>
      <trkpt lat="44.1762" lon="5.64781">
        <ele>742.819763</ele>
        <time>2021-05-05T11:04:22Z</time>
      </trkpt>
      <trkpt lat="44.1762" lon="5.64787">
        <ele>742.758423</ele>
        <time>2021-05-05T11:04:23Z</time>
      </trkpt>
      <trkpt lat="44.17629" lon="5.64887">
        <ele>744.971436</ele>
        <time>2021-05-05T11:04:40Z</time>
      </trkpt>
      <trkpt lat="44.17629" lon="5.64893">
        <ele>745.069519</ele>
        <time>2021-05-05T11:04:41Z</time>
      </trkpt>
      <trkpt lat="44.17629" lon="5.649">
        <ele>745.299377</ele>
        <time>2021-05-05T11:04:42Z</time>
      </trkpt>
      <trkpt lat="44.17628" lon="5.64906">
        <ele>745.60498</ele>
        <time>2021-05-05T11:04:43Z</time>
      </trkpt>
      <trkpt lat="44.17627" lon="5.64912">
        <ele>745.774048</ele>
        <time>2021-05-05T11:04:44Z</time>
      </trkpt>
      <trkpt lat="44.17626" lon="5.64917">
        <ele>745.829163</ele>
        <time>2021-05-05T11:04:45Z</time>
      </trkpt>
      <trkpt lat="44.17624" lon="5.64923">
        <ele>745.838806</ele>
        <time>2021-05-05T11:04:46Z</time>
      </trkpt>
      <trkpt lat="44.17608" lon="5.64963">
        <ele>745.189026</ele>
        <time>2021-05-05T11:04:54Z</time>
      </trkpt>
      <trkpt lat="44.176" lon="5.64978">
        <ele>744.513916</ele>
        <time>2021-05-05T11:04:57Z</time>
      </trkpt>
      <trkpt lat="44.17598" lon="5.64983">
        <ele>744.474731</ele>
        <time>2021-05-05T11:04:58Z</time>
      </trkpt>
      <trkpt lat="44.17597" lon="5.64989">
        <ele>744.571716</ele>
        <time>2021-05-05T11:04:59Z</time>
      </trkpt>
      <trkpt lat="44.17595" lon="5.64994">
        <ele>744.639893</ele>
        <time>2021-05-05T11:05:00Z</time>
      </trkpt>
      <trkpt lat="44.17594" lon="5.64999">
        <ele>744.76947</ele>
        <time>2021-05-05T11:05:01Z</time>
      </trkpt>
      <trkpt lat="44.17593" lon="5.65005">
        <ele>744.982361</ele>
        <time>2021-05-05T11:05:02Z</time>
      </trkpt>
      <trkpt lat="44.17592" lon="5.65011">
        <ele>745.157349</ele>
        <time>2021-05-05T11:05:03Z</time>
      </trkpt>
      <trkpt lat="44.17588" lon="5.6504">
        <ele>745.742371</ele>
        <time>2021-05-05T11:05:08Z</time>
      </trkpt>
      <trkpt lat="44.17589" lon="5.65046">
        <ele>746.074036</ele>
        <time>2021-05-05T11:05:09Z</time>
      </trkpt>
      <trkpt lat="44.1759" lon="5.65058">
        <ele>746.977722</ele>
        <time>2021-05-05T11:05:11Z</time>
      </trkpt>
      <trkpt lat="44.17591" lon="5.65064">
        <ele>747.60376</ele>
        <time>2021-05-05T11:05:12Z</time>
      </trkpt>
      <trkpt lat="44.17611" lon="5.65159">
        <ele>753.471863</ele>
        <time>2021-05-05T11:05:29Z</time>
      </trkpt>
      <trkpt lat="44.17611" lon="5.65164">
        <ele>753.762878</ele>
        <time>2021-05-05T11:05:30Z</time>
      </trkpt>
      <trkpt lat="44.1761" lon="5.65171">
        <ele>753.870972</ele>
        <time>2021-05-05T11:05:31Z</time>
      </trkpt>
      <trkpt lat="44.17608" lon="5.65176">
        <ele>753.803284</ele>
        <time>2021-05-05T11:05:32Z</time>
      </trkpt>
      <trkpt lat="44.17606" lon="5.65181">
        <ele>753.524109</ele>
        <time>2021-05-05T11:05:33Z</time>
      </trkpt>
      <trkpt lat="44.17604" lon="5.65185">
        <ele>753.094666</ele>
        <time>2021-05-05T11:05:34Z</time>
      </trkpt>
      <trkpt lat="44.17601" lon="5.65189">
        <ele>752.522827</ele>
        <time>2021-05-05T11:05:35Z</time>
      </trkpt>
      <trkpt lat="44.17598" lon="5.65193">
        <ele>751.735596</ele>
        <time>2021-05-05T11:05:36Z</time>
      </trkpt>
      <trkpt lat="44.17596" lon="5.65196">
        <ele>751.005676</ele>
        <time>2021-05-05T11:05:37Z</time>
      </trkpt>
      <trkpt lat="44.17593" lon="5.652">
        <ele>750.325562</ele>
        <time>2021-05-05T11:05:38Z</time>
      </trkpt>
      <trkpt lat="44.17591" lon="5.65204">
        <ele>749.824646</ele>
        <time>2021-05-05T11:05:39Z</time>
      </trkpt>
      <trkpt lat="44.17589" lon="5.65209">
        <ele>749.519043</ele>
        <time>2021-05-05T11:05:40Z</time>
      </trkpt>
      <trkpt lat="44.17588" lon="5.65214">
        <ele>749.425476</ele>
        <time>2021-05-05T11:05:41Z</time>
      </trkpt>
      <trkpt lat="44.17581" lon="5.65257">
        <ele>750.619141</ele>
        <time>2021-05-05T11:05:48Z</time>
      </trkpt>
      <trkpt lat="44.17583" lon="5.65314">
        <ele>752.858521</ele>
        <time>2021-05-05T11:05:57Z</time>
      </trkpt>
      <trkpt lat="44.17576" lon="5.65394">
        <ele>749.964966</ele>
        <time>2021-05-05T11:06:10Z</time>
      </trkpt>
      <trkpt lat="44.17583" lon="5.65434">
        <ele>751.666748</ele>
        <time>2021-05-05T11:06:16Z</time>
      </trkpt>
      <trkpt lat="44.17589" lon="5.65524">
        <ele>751.383545</ele>
        <time>2021-05-05T11:06:30Z</time>
      </trkpt>
      <trkpt lat="44.17608" lon="5.65632">
        <ele>752.819153</ele>
        <time>2021-05-05T11:06:48Z</time>
      </trkpt>
      <trkpt lat="44.1761" lon="5.65728">
        <ele>749.600769</ele>
        <time>2021-05-05T11:07:03Z</time>
      </trkpt>
      <trkpt lat="44.17613" lon="5.65851">
        <ele>743.359741</ele>
        <time>2021-05-05T11:07:17Z</time>
      </trkpt>
      <trkpt lat="44.17615" lon="5.6586">
        <ele>743.296448</ele>
        <time>2021-05-05T11:07:18Z</time>
      </trkpt>
      <trkpt lat="44.1762" lon="5.65869">
        <ele>743.840942</ele>
        <time>2021-05-05T11:07:19Z</time>
      </trkpt>
      <trkpt lat="44.17625" lon="5.65877">
        <ele>744.800354</ele>
        <time>2021-05-05T11:07:20Z</time>
      </trkpt>
      <trkpt lat="44.1763" lon="5.65883">
        <ele>745.643005</ele>
        <time>2021-05-05T11:07:21Z</time>
      </trkpt>
      <trkpt lat="44.17635" lon="5.65889">
        <ele>746.563538</ele>
        <time>2021-05-05T11:07:22Z</time>
      </trkpt>
      <trkpt lat="44.17656" lon="5.65917">
        <ele>749.956543</ele>
        <time>2021-05-05T11:07:26Z</time>
      </trkpt>
      <trkpt lat="44.1766" lon="5.65925">
        <ele>750.098633</ele>
        <time>2021-05-05T11:07:27Z</time>
      </trkpt>
      <trkpt lat="44.17663" lon="5.65935">
        <ele>749.77478</ele>
        <time>2021-05-05T11:07:28Z</time>
      </trkpt>
      <trkpt lat="44.17666" lon="5.65946">
        <ele>749.185852</ele>
        <time>2021-05-05T11:07:29Z</time>
      </trkpt>
      <trkpt lat="44.17668" lon="5.65956">
        <ele>748.506775</ele>
        <time>2021-05-05T11:07:30Z</time>
      </trkpt>
      <trkpt lat="44.17671" lon="5.65985">
        <ele>747.387207</ele>
        <time>2021-05-05T11:07:33Z</time>
      </trkpt>
      <trkpt lat="44.17671" lon="5.65995">
        <ele>746.720947</ele>
        <time>2021-05-05T11:07:34Z</time>
      </trkpt>
      <trkpt lat="44.17668" lon="5.66023">
        <ele>744.418518</ele>
        <time>2021-05-05T11:07:37Z</time>
      </trkpt>
      <trkpt lat="44.17669" lon="5.66032">
        <ele>743.991028</ele>
        <time>2021-05-05T11:07:38Z</time>
      </trkpt>
      <trkpt lat="44.1767" lon="5.66042">
        <ele>743.733887</ele>
        <time>2021-05-05T11:07:39Z</time>
      </trkpt>
      <trkpt lat="44.17705" lon="5.66133">
        <ele>746.311035</ele>
        <time>2021-05-05T11:07:50Z</time>
      </trkpt>
      <trkpt lat="44.17707" lon="5.66142">
        <ele>746.363708</ele>
        <time>2021-05-05T11:07:51Z</time>
      </trkpt>
      <trkpt lat="44.17709" lon="5.66151">
        <ele>746.233643</ele>
        <time>2021-05-05T11:07:52Z</time>
      </trkpt>
      <trkpt lat="44.1771" lon="5.66161">
        <ele>745.485352</ele>
        <time>2021-05-05T11:07:53Z</time>
      </trkpt>
      <trkpt lat="44.17709" lon="5.6617">
        <ele>744.530212</ele>
        <time>2021-05-05T11:07:54Z</time>
      </trkpt>
      <trkpt lat="44.17709" lon="5.6618">
        <ele>743.465881</ele>
        <time>2021-05-05T11:07:55Z</time>
      </trkpt>
      <trkpt lat="44.17709" lon="5.6619">
        <ele>742.544128</ele>
        <time>2021-05-05T11:07:56Z</time>
      </trkpt>
      <trkpt lat="44.17709" lon="5.66199">
        <ele>741.71875</ele>
        <time>2021-05-05T11:07:57Z</time>
      </trkpt>
      <trkpt lat="44.17711" lon="5.66217">
        <ele>740.07605</ele>
        <time>2021-05-05T11:07:59Z</time>
      </trkpt>
      <trkpt lat="44.17714" lon="5.66224">
        <ele>739.060242</ele>
        <time>2021-05-05T11:08:00Z</time>
      </trkpt>
      <trkpt lat="44.17718" lon="5.66231">
        <ele>738.511841</ele>
        <time>2021-05-05T11:08:01Z</time>
      </trkpt>
      <trkpt lat="44.17724" lon="5.66236">
        <ele>738.482422</ele>
        <time>2021-05-05T11:08:02Z</time>
      </trkpt>
      <trkpt lat="44.1773" lon="5.66239">
        <ele>738.924194</ele>
        <time>2021-05-05T11:08:03Z</time>
      </trkpt>
      <trkpt lat="44.17736" lon="5.66241">
        <ele>739.720764</ele>
        <time>2021-05-05T11:08:04Z</time>
      </trkpt>
      <trkpt lat="44.17743" lon="5.66241">
        <ele>740.672119</ele>
        <time>2021-05-05T11:08:05Z</time>
      </trkpt>
      <trkpt lat="44.1775" lon="5.66242">
        <ele>741.588684</ele>
        <time>2021-05-05T11:08:06Z</time>
      </trkpt>
      <trkpt lat="44.17756" lon="5.66244">
        <ele>742.791321</ele>
        <time>2021-05-05T11:08:07Z</time>
      </trkpt>
      <trkpt lat="44.17762" lon="5.66249">
        <ele>743.656677</ele>
        <time>2021-05-05T11:08:08Z</time>
      </trkpt>
      <trkpt lat="44.17766" lon="5.66255">
        <ele>744.171997</ele>
        <time>2021-05-05T11:08:09Z</time>
      </trkpt>
      <trkpt lat="44.17769" lon="5.66262">
        <ele>744.249817</ele>
        <time>2021-05-05T11:08:10Z</time>
      </trkpt>
      <trkpt lat="44.1777" lon="5.6627">
        <ele>743.975098</ele>
        <time>2021-05-05T11:08:11Z</time>
      </trkpt>
      <trkpt lat="44.1777" lon="5.66277">
        <ele>743.355164</ele>
        <time>2021-05-05T11:08:12Z</time>
      </trkpt>
      <trkpt lat="44.17769" lon="5.66284">
        <ele>742.632568</ele>
        <time>2021-05-05T11:08:13Z</time>
      </trkpt>
      <trkpt lat="44.17767" lon="5.6629">
        <ele>741.93396</ele>
        <time>2021-05-05T11:08:14Z</time>
      </trkpt>
      <trkpt lat="44.17754" lon="5.66325">
        <ele>738.037659</ele>
        <time>2021-05-05T11:08:19Z</time>
      </trkpt>
      <trkpt lat="44.17752" lon="5.66332">
        <ele>737.437012</ele>
        <time>2021-05-05T11:08:20Z</time>
      </trkpt>
      <trkpt lat="44.17743" lon="5.6637">
        <ele>733.831787</ele>
        <time>2021-05-05T11:08:25Z</time>
      </trkpt>
      <trkpt lat="44.17742" lon="5.66378">
        <ele>733.276001</ele>
        <time>2021-05-05T11:08:26Z</time>
      </trkpt>
      <trkpt lat="44.17743" lon="5.66386">
        <ele>733.102356</ele>
        <time>2021-05-05T11:08:27Z</time>
      </trkpt>
      <trkpt lat="44.17745" lon="5.66393">
        <ele>733.393372</ele>
        <time>2021-05-05T11:08:28Z</time>
      </trkpt>
      <trkpt lat="44.17749" lon="5.664">
        <ele>733.660034</ele>
        <time>2021-05-05T11:08:29Z</time>
      </trkpt>
      <trkpt lat="44.17754" lon="5.66405">
        <ele>734.146484</ele>
        <time>2021-05-05T11:08:30Z</time>
      </trkpt>
      <trkpt lat="44.1776" lon="5.66407">
        <ele>734.909912</ele>
        <time>2021-05-05T11:08:31Z</time>
      </trkpt>
      <trkpt lat="44.17766" lon="5.66407">
        <ele>735.768799</ele>
        <time>2021-05-05T11:08:32Z</time>
      </trkpt>
      <trkpt lat="44.17772" lon="5.66407">
        <ele>736.60321</ele>
        <time>2021-05-05T11:08:33Z</time>
      </trkpt>
      <trkpt lat="44.17777" lon="5.6641">
        <ele>737.48999</ele>
        <time>2021-05-05T11:08:34Z</time>
      </trkpt>
      <trkpt lat="44.17783" lon="5.66415">
        <ele>738.540344</ele>
        <time>2021-05-05T11:08:35Z</time>
      </trkpt>
      <trkpt lat="44.17788" lon="5.66423">
        <ele>739.852966</ele>
        <time>2021-05-05T11:08:36Z</time>
      </trkpt>
      <trkpt lat="44.1779" lon="5.6643">
        <ele>740.884766</ele>
        <time>2021-05-05T11:08:37Z</time>
      </trkpt>
      <trkpt lat="44.17792" lon="5.66439">
        <ele>741.941956</ele>
        <time>2021-05-05T11:08:38Z</time>
      </trkpt>
      <trkpt lat="44.1779" lon="5.66447">
        <ele>741.981323</ele>
        <time>2021-05-05T11:08:39Z</time>
      </trkpt>
      <trkpt lat="44.17787" lon="5.66455">
        <ele>741.789001</ele>
        <time>2021-05-05T11:08:40Z</time>
      </trkpt>
      <trkpt lat="44.17785" lon="5.66461">
        <ele>741.547302</ele>
        <time>2021-05-05T11:08:41Z</time>
      </trkpt>
      <trkpt lat="44.17781" lon="5.66469">
        <ele>740.973328</ele>
        <time>2021-05-05T11:08:42Z</time>
      </trkpt>
      <trkpt lat="44.17778" lon="5.66477">
        <ele>740.422974</ele>
        <time>2021-05-05T11:08:43Z</time>
      </trkpt>
      <trkpt lat="44.17774" lon="5.66485">
        <ele>739.890625</ele>
        <time>2021-05-05T11:08:44Z</time>
      </trkpt>
      <trkpt lat="44.17767" lon="5.66513">
        <ele>738.780457</ele>
        <time>2021-05-05T11:08:47Z</time>
      </trkpt>
      <trkpt lat="44.17762" lon="5.66625">
        <ele>733.271729</ele>
        <time>2021-05-05T11:08:58Z</time>
      </trkpt>
      <trkpt lat="44.17763" lon="5.66636">
        <ele>732.904846</ele>
        <time>2021-05-05T11:08:59Z</time>
      </trkpt>
      <trkpt lat="44.17761" lon="5.66746">
        <ele>728.542542</ele>
        <time>2021-05-05T11:09:10Z</time>
      </trkpt>
      <trkpt lat="44.17758" lon="5.66751">
        <ele>727.878906</ele>
        <time>2021-05-05T11:09:12Z</time>
      </trkpt>
      <trkpt lat="44.17756" lon="5.66757">
        <ele>727.282715</ele>
        <time>2021-05-05T11:09:23Z</time>
      </trkpt>
      <trkpt lat="44.17756" lon="5.66758">
        <ele>727.355042</ele>
        <time>2021-05-05T11:09:25Z</time>
      </trkpt>
      <trkpt lat="44.17756" lon="5.66764">
        <ele>727.545227</ele>
        <time>2021-05-05T11:09:34Z</time>
      </trkpt>
      <trkpt lat="44.17755" lon="5.66766">
        <ele>727.190552</ele>
        <time>2021-05-05T11:10:02Z</time>
      </trkpt>
      <trkpt lat="44.17755" lon="5.66767">
        <ele>727.158936</ele>
        <time>2021-05-05T11:10:27Z</time>
      </trkpt>
      <trkpt lat="44.17756" lon="5.66768">
        <ele>727.497131</ele>
        <time>2021-05-05T11:10:29Z</time>
      </trkpt>
      <trkpt lat="44.17757" lon="5.66771">
        <ele>728.047913</ele>
        <time>2021-05-05T11:10:30Z</time>
      </trkpt>
      <trkpt lat="44.17758" lon="5.66774">
        <ele>728.598206</ele>
        <time>2021-05-05T11:10:31Z</time>
      </trkpt>
      <trkpt lat="44.17759" lon="5.66778">
        <ele>729.036743</ele>
        <time>2021-05-05T11:10:32Z</time>
      </trkpt>
      <trkpt lat="44.17759" lon="5.66782">
        <ele>729.302673</ele>
        <time>2021-05-05T11:10:33Z</time>
      </trkpt>
      <trkpt lat="44.17759" lon="5.66787">
        <ele>729.532715</ele>
        <time>2021-05-05T11:10:34Z</time>
      </trkpt>
      <trkpt lat="44.17751" lon="5.66866">
        <ele>729.746216</ele>
        <time>2021-05-05T11:10:46Z</time>
      </trkpt>
      <trkpt lat="44.17743" lon="5.66912">
        <ele>729.447449</ele>
        <time>2021-05-05T11:10:52Z</time>
      </trkpt>
      <trkpt lat="44.17741" lon="5.66919">
        <ele>729.154846</ele>
        <time>2021-05-05T11:10:53Z</time>
      </trkpt>
      <trkpt lat="44.17739" lon="5.66925">
        <ele>728.704956</ele>
        <time>2021-05-05T11:10:54Z</time>
      </trkpt>
      <trkpt lat="44.17736" lon="5.6693">
        <ele>728.059082</ele>
        <time>2021-05-05T11:10:55Z</time>
      </trkpt>
      <trkpt lat="44.17733" lon="5.66935">
        <ele>727.369446</ele>
        <time>2021-05-05T11:10:56Z</time>
      </trkpt>
      <trkpt lat="44.17722" lon="5.66954">
        <ele>725.514221</ele>
        <time>2021-05-05T11:11:00Z</time>
      </trkpt>
      <trkpt lat="44.17721" lon="5.66959">
        <ele>725.448181</ele>
        <time>2021-05-05T11:11:01Z</time>
      </trkpt>
      <trkpt lat="44.1772" lon="5.66964">
        <ele>725.60907</ele>
        <time>2021-05-05T11:11:02Z</time>
      </trkpt>
      <trkpt lat="44.17719" lon="5.6697">
        <ele>725.453491</ele>
        <time>2021-05-05T11:11:03Z</time>
      </trkpt>
      <trkpt lat="44.17718" lon="5.66977">
        <ele>725.36554</ele>
        <time>2021-05-05T11:11:04Z</time>
      </trkpt>
      <trkpt lat="44.17718" lon="5.6704">
        <ele>726.08429</ele>
        <time>2021-05-05T11:11:12Z</time>
      </trkpt>
      <trkpt lat="44.17713" lon="5.67063">
        <ele>725.644897</ele>
        <time>2021-05-05T11:11:15Z</time>
      </trkpt>
      <trkpt lat="44.1771" lon="5.6707">
        <ele>725.216248</ele>
        <time>2021-05-05T11:11:16Z</time>
      </trkpt>
      <trkpt lat="44.17707" lon="5.67077">
        <ele>724.757141</ele>
        <time>2021-05-05T11:11:17Z</time>
      </trkpt>
      <trkpt lat="44.17704" lon="5.67083">
        <ele>724.230225</ele>
        <time>2021-05-05T11:11:18Z</time>
      </trkpt>
      <trkpt lat="44.177" lon="5.6709">
        <ele>723.712891</ele>
        <time>2021-05-05T11:11:19Z</time>
      </trkpt>
      <trkpt lat="44.17695" lon="5.67096">
        <ele>723.292786</ele>
        <time>2021-05-05T11:11:20Z</time>
      </trkpt>
      <trkpt lat="44.1769" lon="5.67101">
        <ele>722.71405</ele>
        <time>2021-05-05T11:11:21Z</time>
      </trkpt>
      <trkpt lat="44.17685" lon="5.67106">
        <ele>722.061462</ele>
        <time>2021-05-05T11:11:22Z</time>
      </trkpt>
      <trkpt lat="44.1768" lon="5.67109">
        <ele>721.393738</ele>
        <time>2021-05-05T11:11:23Z</time>
      </trkpt>
      <trkpt lat="44.17639" lon="5.67149">
        <ele>716.588135</ele>
        <time>2021-05-05T11:11:36Z</time>
      </trkpt>
      <trkpt lat="44.17623" lon="5.6718">
        <ele>715.34552</ele>
        <time>2021-05-05T11:11:47Z</time>
      </trkpt>
      <trkpt lat="44.17622" lon="5.67184">
        <ele>715.38623</ele>
        <time>2021-05-05T11:11:56Z</time>
      </trkpt>
      <trkpt lat="44.17618" lon="5.67188">
        <ele>714.797485</ele>
        <time>2021-05-05T11:12:21Z</time>
      </trkpt>
      <trkpt lat="44.17609" lon="5.67224">
        <ele>714.564941</ele>
        <time>2021-05-05T11:12:29Z</time>
      </trkpt>
      <trkpt lat="44.17598" lon="5.67284">
        <ele>714.65332</ele>
        <time>2021-05-05T11:12:37Z</time>
      </trkpt>
      <trkpt lat="44.17595" lon="5.67292">
        <ele>714.293823</ele>
        <time>2021-05-05T11:12:38Z</time>
      </trkpt>
      <trkpt lat="44.17557" lon="5.67418">
        <ele>712.15155</ele>
        <time>2021-05-05T11:12:52Z</time>
      </trkpt>
      <trkpt lat="44.17552" lon="5.67449">
        <ele>712.893677</ele>
        <time>2021-05-05T11:12:55Z</time>
      </trkpt>
      <trkpt lat="44.17547" lon="5.67469">
        <ele>714.151917</ele>
        <time>2021-05-05T11:12:57Z</time>
      </trkpt>
      <trkpt lat="44.17543" lon="5.67478">
        <ele>714.713806</ele>
        <time>2021-05-05T11:12:58Z</time>
      </trkpt>
      <trkpt lat="44.17538" lon="5.67486">
        <ele>714.982605</ele>
        <time>2021-05-05T11:12:59Z</time>
      </trkpt>
      <trkpt lat="44.17463" lon="5.67576">
        <ele>710.478699</ele>
        <time>2021-05-05T11:13:12Z</time>
      </trkpt>
      <trkpt lat="44.17393" lon="5.67682">
        <ele>703.639832</ele>
        <time>2021-05-05T11:13:28Z</time>
      </trkpt>
      <trkpt lat="44.17391" lon="5.67689">
        <ele>703.602478</ele>
        <time>2021-05-05T11:13:29Z</time>
      </trkpt>
      <trkpt lat="44.17389" lon="5.67697">
        <ele>703.74231</ele>
        <time>2021-05-05T11:13:30Z</time>
      </trkpt>
      <trkpt lat="44.17388" lon="5.67706">
        <ele>703.632019</ele>
        <time>2021-05-05T11:13:31Z</time>
      </trkpt>
      <trkpt lat="44.17388" lon="5.67714">
        <ele>703.670715</ele>
        <time>2021-05-05T11:13:32Z</time>
      </trkpt>
      <trkpt lat="44.17389" lon="5.67723">
        <ele>703.834595</ele>
        <time>2021-05-05T11:13:33Z</time>
      </trkpt>
      <trkpt lat="44.1739" lon="5.67731">
        <ele>704.046448</ele>
        <time>2021-05-05T11:13:34Z</time>
      </trkpt>
      <trkpt lat="44.174" lon="5.6778">
        <ele>705.654663</ele>
        <time>2021-05-05T11:13:40Z</time>
      </trkpt>
      <trkpt lat="44.17403" lon="5.67787">
        <ele>705.960571</ele>
        <time>2021-05-05T11:13:41Z</time>
      </trkpt>
      <trkpt lat="44.17406" lon="5.67795">
        <ele>706.413025</ele>
        <time>2021-05-05T11:13:42Z</time>
      </trkpt>
      <trkpt lat="44.17455" lon="5.679">
        <ele>708.030457</ele>
        <time>2021-05-05T11:13:55Z</time>
      </trkpt>
      <trkpt lat="44.1747" lon="5.67956">
        <ele>706.286133</ele>
        <time>2021-05-05T11:14:02Z</time>
      </trkpt>
      <trkpt lat="44.17471" lon="5.67965">
        <ele>706.054199</ele>
        <time>2021-05-05T11:14:03Z</time>
      </trkpt>
      <trkpt lat="44.17471" lon="5.67974">
        <ele>705.742859</ele>
        <time>2021-05-05T11:14:04Z</time>
      </trkpt>
      <trkpt lat="44.17471" lon="5.67992">
        <ele>704.977539</ele>
        <time>2021-05-05T11:14:06Z</time>
      </trkpt>
      <trkpt lat="44.17471" lon="5.68146">
        <ele>703.024597</ele>
        <time>2021-05-05T11:14:22Z</time>
      </trkpt>
      <trkpt lat="44.17476" lon="5.68287">
        <ele>697.237915</ele>
        <time>2021-05-05T11:14:33Z</time>
      </trkpt>
      <trkpt lat="44.17483" lon="5.68408">
        <ele>697.395386</ele>
        <time>2021-05-05T11:14:42Z</time>
      </trkpt>
      <trkpt lat="44.17486" lon="5.68417">
        <ele>697.915344</ele>
        <time>2021-05-05T11:14:43Z</time>
      </trkpt>
      <trkpt lat="44.17489" lon="5.68426">
        <ele>698.587769</ele>
        <time>2021-05-05T11:14:44Z</time>
      </trkpt>
      <trkpt lat="44.17498" lon="5.68441">
        <ele>700.09259</ele>
        <time>2021-05-05T11:14:46Z</time>
      </trkpt>
      <trkpt lat="44.17501" lon="5.6845">
        <ele>700.774658</ele>
        <time>2021-05-05T11:14:47Z</time>
      </trkpt>
      <trkpt lat="44.17503" lon="5.68459">
        <ele>701.331787</ele>
        <time>2021-05-05T11:14:48Z</time>
      </trkpt>
      <trkpt lat="44.17503" lon="5.68469">
        <ele>701.766052</ele>
        <time>2021-05-05T11:14:49Z</time>
      </trkpt>
      <trkpt lat="44.17503" lon="5.68477">
        <ele>701.904114</ele>
        <time>2021-05-05T11:14:50Z</time>
      </trkpt>
      <trkpt lat="44.17502" lon="5.68487">
        <ele>701.92157</ele>
        <time>2021-05-05T11:14:51Z</time>
      </trkpt>
      <trkpt lat="44.17499" lon="5.68513">
        <ele>701.717041</ele>
        <time>2021-05-05T11:14:54Z</time>
      </trkpt>
      <trkpt lat="44.17499" lon="5.68519">
        <ele>701.681763</ele>
        <time>2021-05-05T11:14:55Z</time>
      </trkpt>
      <trkpt lat="44.17497" lon="5.68547">
        <ele>701.865723</ele>
        <time>2021-05-05T11:15:04Z</time>
      </trkpt>
      <trkpt lat="44.17495" lon="5.68566">
        <ele>701.685974</ele>
        <time>2021-05-05T11:15:08Z</time>
      </trkpt>
      <trkpt lat="44.17495" lon="5.68572">
        <ele>701.803772</ele>
        <time>2021-05-05T11:15:09Z</time>
      </trkpt>
      <trkpt lat="44.17495" lon="5.68578">
        <ele>701.811279</ele>
        <time>2021-05-05T11:15:10Z</time>
      </trkpt>
      <trkpt lat="44.17493" lon="5.68604">
        <ele>701.316528</ele>
        <time>2021-05-05T11:15:14Z</time>
      </trkpt>
      <trkpt lat="44.17486" lon="5.68704">
        <ele>701.792725</ele>
        <time>2021-05-05T11:15:25Z</time>
      </trkpt>
      <trkpt lat="44.17474" lon="5.6888">
        <ele>700.703003</ele>
        <time>2021-05-05T11:15:44Z</time>
      </trkpt>
      <trkpt lat="44.17463" lon="5.69008">
        <ele>698.231934</ele>
        <time>2021-05-05T11:15:59Z</time>
      </trkpt>
      <trkpt lat="44.17452" lon="5.69153">
        <ele>692.17981</ele>
        <time>2021-05-05T11:16:14Z</time>
      </trkpt>
      <trkpt lat="44.17443" lon="5.693">
        <ele>694.703186</ele>
        <time>2021-05-05T11:16:30Z</time>
      </trkpt>
      <trkpt lat="44.1743" lon="5.69387">
        <ele>694.93158</ele>
        <time>2021-05-05T11:16:43Z</time>
      </trkpt>
      <trkpt lat="44.17418" lon="5.69436">
        <ele>695.21582</ele>
        <time>2021-05-05T11:16:53Z</time>
      </trkpt>
      <trkpt lat="44.17416" lon="5.69442">
        <ele>695.315857</ele>
        <time>2021-05-05T11:16:54Z</time>
      </trkpt>
      <trkpt lat="44.17415" lon="5.69449">
        <ele>695.429016</ele>
        <time>2021-05-05T11:16:55Z</time>
      </trkpt>
      <trkpt lat="44.17413" lon="5.69455">
        <ele>695.600647</ele>
        <time>2021-05-05T11:16:56Z</time>
      </trkpt>
      <trkpt lat="44.17411" lon="5.69462">
        <ele>695.715515</ele>
        <time>2021-05-05T11:16:57Z</time>
      </trkpt>
      <trkpt lat="44.17388" lon="5.69567">
        <ele>690.752686</ele>
        <time>2021-05-05T11:17:11Z</time>
      </trkpt>
      <trkpt lat="44.17399" lon="5.69692">
        <ele>691.211609</ele>
        <time>2021-05-05T11:17:25Z</time>
      </trkpt>
      <trkpt lat="44.1739" lon="5.69814">
        <ele>684.608643</ele>
        <time>2021-05-05T11:17:39Z</time>
      </trkpt>
      <trkpt lat="44.17397" lon="5.69911">
        <ele>680.993469</ele>
        <time>2021-05-05T11:17:48Z</time>
      </trkpt>
      <trkpt lat="44.17401" lon="5.69923">
        <ele>681.290039</ele>
        <time>2021-05-05T11:17:49Z</time>
      </trkpt>
      <trkpt lat="44.17406" lon="5.69933">
        <ele>681.633362</ele>
        <time>2021-05-05T11:17:50Z</time>
      </trkpt>
      <trkpt lat="44.17413" lon="5.69943">
        <ele>682.058716</ele>
        <time>2021-05-05T11:17:51Z</time>
      </trkpt>
      <trkpt lat="44.1742" lon="5.69951">
        <ele>682.113953</ele>
        <time>2021-05-05T11:17:52Z</time>
      </trkpt>
      <trkpt lat="44.17493" lon="5.70036">
        <ele>686.318665</ele>
        <time>2021-05-05T11:18:04Z</time>
      </trkpt>
      <trkpt lat="44.17496" lon="5.70043">
        <ele>686.299561</ele>
        <time>2021-05-05T11:18:05Z</time>
      </trkpt>
      <trkpt lat="44.17509" lon="5.70114">
        <ele>688.141602</ele>
        <time>2021-05-05T11:18:15Z</time>
      </trkpt>
      <trkpt lat="44.1751" lon="5.70173">
        <ele>689.774963</ele>
        <time>2021-05-05T11:18:22Z</time>
      </trkpt>
      <trkpt lat="44.17508" lon="5.70181">
        <ele>689.419922</ele>
        <time>2021-05-05T11:18:23Z</time>
      </trkpt>
      <trkpt lat="44.17487" lon="5.7033">
        <ele>684.388916</ele>
        <time>2021-05-05T11:18:37Z</time>
      </trkpt>
      <trkpt lat="44.17482" lon="5.70397">
        <ele>684.366638</ele>
        <time>2021-05-05T11:18:43Z</time>
      </trkpt>
      <trkpt lat="44.17468" lon="5.70542">
        <ele>676.888184</ele>
        <time>2021-05-05T11:18:56Z</time>
      </trkpt>
      <trkpt lat="44.17469" lon="5.70552">
        <ele>676.282349</ele>
        <time>2021-05-05T11:18:57Z</time>
      </trkpt>
      <trkpt lat="44.17471" lon="5.70562">
        <ele>675.813293</ele>
        <time>2021-05-05T11:18:58Z</time>
      </trkpt>
      <trkpt lat="44.17474" lon="5.70572">
        <ele>675.449402</ele>
        <time>2021-05-05T11:18:59Z</time>
      </trkpt>
      <trkpt lat="44.17477" lon="5.70581">
        <ele>675.205811</ele>
        <time>2021-05-05T11:19:00Z</time>
      </trkpt>
      <trkpt lat="44.17529" lon="5.70688">
        <ele>675.021118</ele>
        <time>2021-05-05T11:19:12Z</time>
      </trkpt>
      <trkpt lat="44.17535" lon="5.70695">
        <ele>675.443848</ele>
        <time>2021-05-05T11:19:13Z</time>
      </trkpt>
      <trkpt lat="44.17542" lon="5.70701">
        <ele>675.893188</ele>
        <time>2021-05-05T11:19:14Z</time>
      </trkpt>
      <trkpt lat="44.17549" lon="5.70706">
        <ele>676.356628</ele>
        <time>2021-05-05T11:19:15Z</time>
      </trkpt>
      <trkpt lat="44.17557" lon="5.7071">
        <ele>676.82489</ele>
        <time>2021-05-05T11:19:16Z</time>
      </trkpt>
      <trkpt lat="44.17581" lon="5.70727">
        <ele>678.990967</ele>
        <time>2021-05-05T11:19:19Z</time>
      </trkpt>
      <trkpt lat="44.17588" lon="5.70735">
        <ele>679.639587</ele>
        <time>2021-05-05T11:19:20Z</time>
      </trkpt>
      <trkpt lat="44.17594" lon="5.70744">
        <ele>679.981567</ele>
        <time>2021-05-05T11:19:21Z</time>
      </trkpt>
      <trkpt lat="44.176" lon="5.70753">
        <ele>680.093994</ele>
        <time>2021-05-05T11:19:22Z</time>
      </trkpt>
      <trkpt lat="44.17605" lon="5.70761">
        <ele>680.103638</ele>
        <time>2021-05-05T11:19:23Z</time>
      </trkpt>
      <trkpt lat="44.17624" lon="5.70799">
        <ele>680.73999</ele>
        <time>2021-05-05T11:19:27Z</time>
      </trkpt>
      <trkpt lat="44.17626" lon="5.7081">
        <ele>680.49762</ele>
        <time>2021-05-05T11:19:28Z</time>
      </trkpt>
      <trkpt lat="44.17628" lon="5.70821">
        <ele>679.954529</ele>
        <time>2021-05-05T11:19:29Z</time>
      </trkpt>
      <trkpt lat="44.17628" lon="5.70832">
        <ele>679.204163</ele>
        <time>2021-05-05T11:19:30Z</time>
      </trkpt>
      <trkpt lat="44.17628" lon="5.70842">
        <ele>678.773254</ele>
        <time>2021-05-05T11:19:31Z</time>
      </trkpt>
      <trkpt lat="44.17627" lon="5.70852">
        <ele>678.376709</ele>
        <time>2021-05-05T11:19:32Z</time>
      </trkpt>
      <trkpt lat="44.17624" lon="5.70861">
        <ele>677.700745</ele>
        <time>2021-05-05T11:19:33Z</time>
      </trkpt>
      <trkpt lat="44.17622" lon="5.70871">
        <ele>676.952393</ele>
        <time>2021-05-05T11:19:34Z</time>
      </trkpt>
      <trkpt lat="44.17603" lon="5.71011">
        <ele>674.343079</ele>
        <time>2021-05-05T11:19:48Z</time>
      </trkpt>
      <trkpt lat="44.17563" lon="5.71123">
        <ele>673.002869</ele>
        <time>2021-05-05T11:20:02Z</time>
      </trkpt>
      <trkpt lat="44.17527" lon="5.71251">
        <ele>674.240723</ele>
        <time>2021-05-05T11:20:17Z</time>
      </trkpt>
      <trkpt lat="44.17497" lon="5.71404">
        <ele>675.350037</ele>
        <time>2021-05-05T11:20:34Z</time>
      </trkpt>
      <trkpt lat="44.17475" lon="5.71533">
        <ele>679.15094</ele>
        <time>2021-05-05T11:20:51Z</time>
      </trkpt>
      <trkpt lat="44.17462" lon="5.71573">
        <ele>677.61554</ele>
        <time>2021-05-05T11:20:58Z</time>
      </trkpt>
      <trkpt lat="44.17423" lon="5.71659">
        <ele>672.325317</ele>
        <time>2021-05-05T11:21:15Z</time>
      </trkpt>
      <trkpt lat="44.17403" lon="5.71752">
        <ele>671.059143</ele>
        <time>2021-05-05T11:21:27Z</time>
      </trkpt>
      <trkpt lat="44.17376" lon="5.71877">
        <ele>666.701965</ele>
        <time>2021-05-05T11:21:40Z</time>
      </trkpt>
      <trkpt lat="44.17348" lon="5.72034">
        <ele>665.81488</ele>
        <time>2021-05-05T11:21:56Z</time>
      </trkpt>
      <trkpt lat="44.17324" lon="5.72183">
        <ele>664.087769</ele>
        <time>2021-05-05T11:22:13Z</time>
      </trkpt>
      <trkpt lat="44.17322" lon="5.72304">
        <ele>663.761597</ele>
        <time>2021-05-05T11:22:28Z</time>
      </trkpt>
      <trkpt lat="44.17327" lon="5.72354">
        <ele>665.978882</ele>
        <time>2021-05-05T11:22:34Z</time>
      </trkpt>
      <trkpt lat="44.17324" lon="5.72477">
        <ele>667.134521</ele>
        <time>2021-05-05T11:22:49Z</time>
      </trkpt>
      <trkpt lat="44.1732" lon="5.72502">
        <ele>666.746216</ele>
        <time>2021-05-05T11:22:52Z</time>
      </trkpt>
      <trkpt lat="44.17312" lon="5.72534">
        <ele>664.160583</ele>
        <time>2021-05-05T11:22:56Z</time>
      </trkpt>
      <trkpt lat="44.17305" lon="5.72559">
        <ele>662.4375</ele>
        <time>2021-05-05T11:22:59Z</time>
      </trkpt>
      <trkpt lat="44.17304" lon="5.72568">
        <ele>662.460632</ele>
        <time>2021-05-05T11:23:00Z</time>
      </trkpt>
      <trkpt lat="44.17303" lon="5.72577">
        <ele>662.047546</ele>
        <time>2021-05-05T11:23:01Z</time>
      </trkpt>
      <trkpt lat="44.17304" lon="5.72587">
        <ele>661.831665</ele>
        <time>2021-05-05T11:23:02Z</time>
      </trkpt>
      <trkpt lat="44.17305" lon="5.72597">
        <ele>661.808838</ele>
        <time>2021-05-05T11:23:03Z</time>
      </trkpt>
      <trkpt lat="44.17306" lon="5.72607">
        <ele>661.982239</ele>
        <time>2021-05-05T11:23:04Z</time>
      </trkpt>
      <trkpt lat="44.1733" lon="5.72728">
        <ele>659.096558</ele>
        <time>2021-05-05T11:23:17Z</time>
      </trkpt>
      <trkpt lat="44.17353" lon="5.72862">
        <ele>656.704407</ele>
        <time>2021-05-05T11:23:30Z</time>
      </trkpt>
      <trkpt lat="44.17358" lon="5.72978">
        <ele>651.748535</ele>
        <time>2021-05-05T11:23:40Z</time>
      </trkpt>
      <trkpt lat="44.17357" lon="5.72991">
        <ele>651.571899</ele>
        <time>2021-05-05T11:23:41Z</time>
      </trkpt>
      <trkpt lat="44.17355" lon="5.73002">
        <ele>651.082947</ele>
        <time>2021-05-05T11:23:42Z</time>
      </trkpt>
      <trkpt lat="44.17351" lon="5.73012">
        <ele>650.983093</ele>
        <time>2021-05-05T11:23:43Z</time>
      </trkpt>
      <trkpt lat="44.17348" lon="5.73022">
        <ele>651.41626</ele>
        <time>2021-05-05T11:23:44Z</time>
      </trkpt>
      <trkpt lat="44.17315" lon="5.7317">
        <ele>650.126038</ele>
        <time>2021-05-05T11:23:58Z</time>
      </trkpt>
      <trkpt lat="44.17298" lon="5.73309">
        <ele>651.365601</ele>
        <time>2021-05-05T11:24:12Z</time>
      </trkpt>
      <trkpt lat="44.1728" lon="5.73466">
        <ele>652.177795</ele>
        <time>2021-05-05T11:24:27Z</time>
      </trkpt>
      <trkpt lat="44.17249" lon="5.73576">
        <ele>648.65564</ele>
        <time>2021-05-05T11:24:39Z</time>
      </trkpt>
      <trkpt lat="44.17245" lon="5.73601">
        <ele>650.304749</ele>
        <time>2021-05-05T11:24:42Z</time>
      </trkpt>
      <trkpt lat="44.1722" lon="5.73702">
        <ele>649.064636</ele>
        <time>2021-05-05T11:24:56Z</time>
      </trkpt>
      <trkpt lat="44.1719" lon="5.73789">
        <ele>645.950012</ele>
        <time>2021-05-05T11:25:10Z</time>
      </trkpt>
      <trkpt lat="44.17167" lon="5.73876">
        <ele>644.275818</ele>
        <time>2021-05-05T11:25:23Z</time>
      </trkpt>
      <trkpt lat="44.17154" lon="5.73968">
        <ele>645.204163</ele>
        <time>2021-05-05T11:25:36Z</time>
      </trkpt>
      <trkpt lat="44.17153" lon="5.73976">
        <ele>645.275024</ele>
        <time>2021-05-05T11:25:37Z</time>
      </trkpt>
      <trkpt lat="44.17153" lon="5.73983">
        <ele>645.435852</ele>
        <time>2021-05-05T11:25:38Z</time>
      </trkpt>
      <trkpt lat="44.17154" lon="5.73998">
        <ele>646.154297</ele>
        <time>2021-05-05T11:25:40Z</time>
      </trkpt>
      <trkpt lat="44.17154" lon="5.74038">
        <ele>646.956604</ele>
        <time>2021-05-05T11:25:45Z</time>
      </trkpt>
      <trkpt lat="44.17153" lon="5.74046">
        <ele>646.956299</ele>
        <time>2021-05-05T11:25:46Z</time>
      </trkpt>
      <trkpt lat="44.1714" lon="5.74106">
        <ele>645.982727</ele>
        <time>2021-05-05T11:25:54Z</time>
      </trkpt>
      <trkpt lat="44.17131" lon="5.74125">
        <ele>644.865479</ele>
        <time>2021-05-05T11:25:57Z</time>
      </trkpt>
      <trkpt lat="44.17122" lon="5.74142">
        <ele>643.250488</ele>
        <time>2021-05-05T11:26:00Z</time>
      </trkpt>
      <trkpt lat="44.17118" lon="5.74147">
        <ele>642.662354</ele>
        <time>2021-05-05T11:26:01Z</time>
      </trkpt>
      <trkpt lat="44.17096" lon="5.74177">
        <ele>640.322021</ele>
        <time>2021-05-05T11:26:06Z</time>
      </trkpt>
      <trkpt lat="44.17069" lon="5.74213">
        <ele>637.371948</ele>
        <time>2021-05-05T11:26:12Z</time>
      </trkpt>
      <trkpt lat="44.17064" lon="5.74217">
        <ele>637.055725</ele>
        <time>2021-05-05T11:26:13Z</time>
      </trkpt>
      <trkpt lat="44.16997" lon="5.74276">
        <ele>640.562683</ele>
        <time>2021-05-05T11:26:28Z</time>
      </trkpt>
      <trkpt lat="44.16923" lon="5.74356">
        <ele>640.656555</ele>
        <time>2021-05-05T11:26:45Z</time>
      </trkpt>
      <trkpt lat="44.16884" lon="5.74398">
        <ele>642.462341</ele>
        <time>2021-05-05T11:26:54Z</time>
      </trkpt>
      <trkpt lat="44.16864" lon="5.74436">
        <ele>642.014282</ele>
        <time>2021-05-05T11:27:00Z</time>
      </trkpt>
      <trkpt lat="44.1682" lon="5.74546">
        <ele>639.607544</ele>
        <time>2021-05-05T11:27:16Z</time>
      </trkpt>
      <trkpt lat="44.16802" lon="5.74663">
        <ele>636.554688</ele>
        <time>2021-05-05T11:27:28Z</time>
      </trkpt>
      <trkpt lat="44.16799" lon="5.74722">
        <ele>635.110718</ele>
        <time>2021-05-05T11:27:33Z</time>
      </trkpt>
      <trkpt lat="44.16797" lon="5.74733">
        <ele>635.594482</ele>
        <time>2021-05-05T11:27:34Z</time>
      </trkpt>
      <trkpt lat="44.16794" lon="5.74743">
        <ele>636.114441</ele>
        <time>2021-05-05T11:27:35Z</time>
      </trkpt>
      <trkpt lat="44.16791" lon="5.74754">
        <ele>636.520081</ele>
        <time>2021-05-05T11:27:36Z</time>
      </trkpt>
      <trkpt lat="44.16788" lon="5.74765">
        <ele>636.866028</ele>
        <time>2021-05-05T11:27:37Z</time>
      </trkpt>
      <trkpt lat="44.16751" lon="5.749">
        <ele>630.558899</ele>
        <time>2021-05-05T11:27:50Z</time>
      </trkpt>
      <trkpt lat="44.1675" lon="5.74911">
        <ele>630.183777</ele>
        <time>2021-05-05T11:27:51Z</time>
      </trkpt>
      <trkpt lat="44.16749" lon="5.74922">
        <ele>629.581482</ele>
        <time>2021-05-05T11:27:52Z</time>
      </trkpt>
      <trkpt lat="44.1675" lon="5.74933">
        <ele>629.085571</ele>
        <time>2021-05-05T11:27:53Z</time>
      </trkpt>
      <trkpt lat="44.16751" lon="5.74943">
        <ele>628.692688</ele>
        <time>2021-05-05T11:27:54Z</time>
      </trkpt>
      <trkpt lat="44.16753" lon="5.74953">
        <ele>628.366638</ele>
        <time>2021-05-05T11:27:55Z</time>
      </trkpt>
      <trkpt lat="44.16755" lon="5.74963">
        <ele>628.029968</ele>
        <time>2021-05-05T11:27:56Z</time>
      </trkpt>
      <trkpt lat="44.16773" lon="5.75023">
        <ele>625.813782</ele>
        <time>2021-05-05T11:28:03Z</time>
      </trkpt>
      <trkpt lat="44.16777" lon="5.75029">
        <ele>625.799255</ele>
        <time>2021-05-05T11:28:04Z</time>
      </trkpt>
      <trkpt lat="44.16782" lon="5.75035">
        <ele>625.910889</ele>
        <time>2021-05-05T11:28:05Z</time>
      </trkpt>
      <trkpt lat="44.16842" lon="5.75115">
        <ele>627.395325</ele>
        <time>2021-05-05T11:28:19Z</time>
      </trkpt>
      <trkpt lat="44.1688" lon="5.75227">
        <ele>624.794678</ele>
        <time>2021-05-05T11:28:33Z</time>
      </trkpt>
      <trkpt lat="44.16895" lon="5.75388">
        <ele>622.670471</ele>
        <time>2021-05-05T11:28:50Z</time>
      </trkpt>
      <trkpt lat="44.16913" lon="5.75543">
        <ele>621.403992</ele>
        <time>2021-05-05T11:29:08Z</time>
      </trkpt>
      <trkpt lat="44.16952" lon="5.75681">
        <ele>619.071472</ele>
        <time>2021-05-05T11:29:25Z</time>
      </trkpt>
      <trkpt lat="44.16956" lon="5.75716">
        <ele>619.514954</ele>
        <time>2021-05-05T11:29:29Z</time>
      </trkpt>
      <trkpt lat="44.16958" lon="5.75724">
        <ele>619.67804</ele>
        <time>2021-05-05T11:29:30Z</time>
      </trkpt>
      <trkpt lat="44.16959" lon="5.75733">
        <ele>619.85199</ele>
        <time>2021-05-05T11:29:31Z</time>
      </trkpt>
      <trkpt lat="44.16942" lon="5.75847">
        <ele>623.598022</ele>
        <time>2021-05-05T11:29:44Z</time>
      </trkpt>
      <trkpt lat="44.169" lon="5.7596">
        <ele>622.047363</ele>
        <time>2021-05-05T11:29:59Z</time>
      </trkpt>
      <trkpt lat="44.16876" lon="5.76036">
        <ele>621.197754</ele>
        <time>2021-05-05T11:30:07Z</time>
      </trkpt>
      <trkpt lat="44.16872" lon="5.76044">
        <ele>621.145752</ele>
        <time>2021-05-05T11:30:08Z</time>
      </trkpt>
      <trkpt lat="44.16813" lon="5.76133">
        <ele>624.709839</ele>
        <time>2021-05-05T11:30:22Z</time>
      </trkpt>
      <trkpt lat="44.16802" lon="5.7615">
        <ele>624.473083</ele>
        <time>2021-05-05T11:30:25Z</time>
      </trkpt>
      <trkpt lat="44.16794" lon="5.76169">
        <ele>624.007629</ele>
        <time>2021-05-05T11:30:28Z</time>
      </trkpt>
      <trkpt lat="44.16792" lon="5.76177">
        <ele>624.24408</ele>
        <time>2021-05-05T11:30:29Z</time>
      </trkpt>
      <trkpt lat="44.16778" lon="5.76283">
        <ele>625.301575</ele>
        <time>2021-05-05T11:30:44Z</time>
      </trkpt>
      <trkpt lat="44.16771" lon="5.7631">
        <ele>624.329712</ele>
        <time>2021-05-05T11:30:48Z</time>
      </trkpt>
      <trkpt lat="44.16742" lon="5.76405">
        <ele>619.611755</ele>
        <time>2021-05-05T11:31:01Z</time>
      </trkpt>
      <trkpt lat="44.16727" lon="5.76469">
        <ele>621.527405</ele>
        <time>2021-05-05T11:31:09Z</time>
      </trkpt>
      <trkpt lat="44.16724" lon="5.76475">
        <ele>622.382263</ele>
        <time>2021-05-05T11:31:10Z</time>
      </trkpt>
      <trkpt lat="44.1672" lon="5.7648">
        <ele>623.237122</ele>
        <time>2021-05-05T11:31:11Z</time>
      </trkpt>
      <trkpt lat="44.16717" lon="5.76485">
        <ele>623.801758</ele>
        <time>2021-05-05T11:31:12Z</time>
      </trkpt>
      <trkpt lat="44.16712" lon="5.76489">
        <ele>624.090271</ele>
        <time>2021-05-05T11:31:13Z</time>
      </trkpt>
      <trkpt lat="44.16708" lon="5.76492">
        <ele>624.49176</ele>
        <time>2021-05-05T11:31:14Z</time>
      </trkpt>
      <trkpt lat="44.16677" lon="5.76508">
        <ele>623.145935</ele>
        <time>2021-05-05T11:31:21Z</time>
      </trkpt>
      <trkpt lat="44.16672" lon="5.7651">
        <ele>622.753479</ele>
        <time>2021-05-05T11:31:22Z</time>
      </trkpt>
      <trkpt lat="44.16667" lon="5.76513">
        <ele>622.453552</ele>
        <time>2021-05-05T11:31:23Z</time>
      </trkpt>
      <trkpt lat="44.16663" lon="5.76518">
        <ele>622.304443</ele>
        <time>2021-05-05T11:31:24Z</time>
      </trkpt>
      <trkpt lat="44.16659" lon="5.76523">
        <ele>622.197083</ele>
        <time>2021-05-05T11:31:25Z</time>
      </trkpt>
      <trkpt lat="44.16655" lon="5.76528">
        <ele>622.142822</ele>
        <time>2021-05-05T11:31:26Z</time>
      </trkpt>
      <trkpt lat="44.16652" lon="5.76534">
        <ele>622.242798</ele>
        <time>2021-05-05T11:31:27Z</time>
      </trkpt>
      <trkpt lat="44.16649" lon="5.76541">
        <ele>622.360291</ele>
        <time>2021-05-05T11:31:28Z</time>
      </trkpt>
      <trkpt lat="44.16647" lon="5.76548">
        <ele>622.496887</ele>
        <time>2021-05-05T11:31:29Z</time>
      </trkpt>
      <trkpt lat="44.16645" lon="5.76556">
        <ele>622.664673</ele>
        <time>2021-05-05T11:31:30Z</time>
      </trkpt>
      <trkpt lat="44.16643" lon="5.76563">
        <ele>622.7229</ele>
        <time>2021-05-05T11:31:31Z</time>
      </trkpt>
      <trkpt lat="44.1664" lon="5.76571">
        <ele>622.540527</ele>
        <time>2021-05-05T11:31:32Z</time>
      </trkpt>
      <trkpt lat="44.16595" lon="5.76723">
        <ele>621.223572</ele>
        <time>2021-05-05T11:31:51Z</time>
      </trkpt>
      <trkpt lat="44.1659" lon="5.76738">
        <ele>621.731384</ele>
        <time>2021-05-05T11:31:53Z</time>
      </trkpt>
      <trkpt lat="44.16586" lon="5.76745">
        <ele>621.480835</ele>
        <time>2021-05-05T11:31:54Z</time>
      </trkpt>
      <trkpt lat="44.16581" lon="5.76752">
        <ele>620.821777</ele>
        <time>2021-05-05T11:31:55Z</time>
      </trkpt>
      <trkpt lat="44.16511" lon="5.76853">
        <ele>617.770691</ele>
        <time>2021-05-05T11:32:08Z</time>
      </trkpt>
      <trkpt lat="44.1648" lon="5.76966">
        <ele>613.167053</ele>
        <time>2021-05-05T11:32:18Z</time>
      </trkpt>
      <trkpt lat="44.16468" lon="5.77124">
        <ele>610.284058</ele>
        <time>2021-05-05T11:32:33Z</time>
      </trkpt>
      <trkpt lat="44.16474" lon="5.77271">
        <ele>606.244751</ele>
        <time>2021-05-05T11:32:46Z</time>
      </trkpt>
      <trkpt lat="44.16513" lon="5.7744">
        <ele>605.88623</ele>
        <time>2021-05-05T11:32:58Z</time>
      </trkpt>
      <trkpt lat="44.16522" lon="5.7759">
        <ele>605.49408</ele>
        <time>2021-05-05T11:33:09Z</time>
      </trkpt>
      <trkpt lat="44.16506" lon="5.7771">
        <ele>601.898621</ele>
        <time>2021-05-05T11:33:20Z</time>
      </trkpt>
      <trkpt lat="44.16505" lon="5.77719">
        <ele>601.524109</ele>
        <time>2021-05-05T11:33:21Z</time>
      </trkpt>
      <trkpt lat="44.16506" lon="5.7773">
        <ele>601.307434</ele>
        <time>2021-05-05T11:33:22Z</time>
      </trkpt>
      <trkpt lat="44.16531" lon="5.77884">
        <ele>596.41925</ele>
        <time>2021-05-05T11:33:39Z</time>
      </trkpt>
      <trkpt lat="44.1656" lon="5.78051">
        <ele>600.363647</ele>
        <time>2021-05-05T11:33:59Z</time>
      </trkpt>
      <trkpt lat="44.16561" lon="5.78109">
        <ele>602.697327</ele>
        <time>2021-05-05T11:34:06Z</time>
      </trkpt>
      <trkpt lat="44.16537" lon="5.7824">
        <ele>600.373108</ele>
        <time>2021-05-05T11:34:21Z</time>
      </trkpt>
      <trkpt lat="44.1652" lon="5.78347">
        <ele>596.230713</ele>
        <time>2021-05-05T11:34:34Z</time>
      </trkpt>
      <trkpt lat="44.16518" lon="5.78478">
        <ele>596.236572</ele>
        <time>2021-05-05T11:34:48Z</time>
      </trkpt>
      <trkpt lat="44.16505" lon="5.78557">
        <ele>597.83429</ele>
        <time>2021-05-05T11:34:57Z</time>
      </trkpt>
      <trkpt lat="44.16504" lon="5.78566">
        <ele>598.400391</ele>
        <time>2021-05-05T11:34:58Z</time>
      </trkpt>
      <trkpt lat="44.16504" lon="5.78575">
        <ele>599.173584</ele>
        <time>2021-05-05T11:34:59Z</time>
      </trkpt>
      <trkpt lat="44.16505" lon="5.78584">
        <ele>599.964172</ele>
        <time>2021-05-05T11:35:00Z</time>
      </trkpt>
      <trkpt lat="44.16506" lon="5.78593">
        <ele>599.875732</ele>
        <time>2021-05-05T11:35:01Z</time>
      </trkpt>
      <trkpt lat="44.16507" lon="5.78602">
        <ele>599.859741</ele>
        <time>2021-05-05T11:35:02Z</time>
      </trkpt>
      <trkpt lat="44.1651" lon="5.78611">
        <ele>599.878479</ele>
        <time>2021-05-05T11:35:03Z</time>
      </trkpt>
      <trkpt lat="44.16512" lon="5.7862">
        <ele>599.875061</ele>
        <time>2021-05-05T11:35:04Z</time>
      </trkpt>
      <trkpt lat="44.16521" lon="5.78661">
        <ele>598.898376</ele>
        <time>2021-05-05T11:35:09Z</time>
      </trkpt>
      <trkpt lat="44.16521" lon="5.78669">
        <ele>598.737183</ele>
        <time>2021-05-05T11:35:10Z</time>
      </trkpt>
      <trkpt lat="44.1652" lon="5.78678">
        <ele>598.460266</ele>
        <time>2021-05-05T11:35:11Z</time>
      </trkpt>
      <trkpt lat="44.16519" lon="5.78708">
        <ele>597.715271</ele>
        <time>2021-05-05T11:35:15Z</time>
      </trkpt>
      <trkpt lat="44.1652" lon="5.78715">
        <ele>597.728577</ele>
        <time>2021-05-05T11:35:16Z</time>
      </trkpt>
      <trkpt lat="44.16521" lon="5.78722">
        <ele>597.852905</ele>
        <time>2021-05-05T11:35:17Z</time>
      </trkpt>
      <trkpt lat="44.16558" lon="5.7883">
        <ele>597.524902</ele>
        <time>2021-05-05T11:35:33Z</time>
      </trkpt>
      <trkpt lat="44.16562" lon="5.78837">
        <ele>597.263184</ele>
        <time>2021-05-05T11:35:34Z</time>
      </trkpt>
      <trkpt lat="44.16566" lon="5.78844">
        <ele>597.385437</ele>
        <time>2021-05-05T11:35:35Z</time>
      </trkpt>
      <trkpt lat="44.16571" lon="5.7885">
        <ele>597.520203</ele>
        <time>2021-05-05T11:35:36Z</time>
      </trkpt>
      <trkpt lat="44.16577" lon="5.78857">
        <ele>597.611389</ele>
        <time>2021-05-05T11:35:37Z</time>
      </trkpt>
      <trkpt lat="44.16582" lon="5.78863">
        <ele>597.650208</ele>
        <time>2021-05-05T11:35:38Z</time>
      </trkpt>
      <trkpt lat="44.16626" lon="5.78912">
        <ele>596.884216</ele>
        <time>2021-05-05T11:35:46Z</time>
      </trkpt>
      <trkpt lat="44.16629" lon="5.78919">
        <ele>596.839172</ele>
        <time>2021-05-05T11:35:47Z</time>
      </trkpt>
      <trkpt lat="44.16632" lon="5.78928">
        <ele>596.557129</ele>
        <time>2021-05-05T11:35:48Z</time>
      </trkpt>
      <trkpt lat="44.16633" lon="5.78937">
        <ele>596.051453</ele>
        <time>2021-05-05T11:35:49Z</time>
      </trkpt>
      <trkpt lat="44.16634" lon="5.78946">
        <ele>595.467346</ele>
        <time>2021-05-05T11:35:50Z</time>
      </trkpt>
      <trkpt lat="44.1665" lon="5.79063">
        <ele>592.649109</ele>
        <time>2021-05-05T11:36:01Z</time>
      </trkpt>
      <trkpt lat="44.16654" lon="5.79074">
        <ele>592.581177</ele>
        <time>2021-05-05T11:36:02Z</time>
      </trkpt>
      <trkpt lat="44.16659" lon="5.79085">
        <ele>592.501465</ele>
        <time>2021-05-05T11:36:03Z</time>
      </trkpt>
      <trkpt lat="44.16664" lon="5.79095">
        <ele>592.37085</ele>
        <time>2021-05-05T11:36:04Z</time>
      </trkpt>
      <trkpt lat="44.1667" lon="5.79105">
        <ele>592.178406</ele>
        <time>2021-05-05T11:36:05Z</time>
      </trkpt>
      <trkpt lat="44.16694" lon="5.79149">
        <ele>592.56366</ele>
        <time>2021-05-05T11:36:09Z</time>
      </trkpt>
      <trkpt lat="44.16698" lon="5.79162">
        <ele>592.326233</ele>
        <time>2021-05-05T11:36:10Z</time>
      </trkpt>
      <trkpt lat="44.16702" lon="5.79176">
        <ele>591.592896</ele>
        <time>2021-05-05T11:36:11Z</time>
      </trkpt>
      <trkpt lat="44.16705" lon="5.7919">
        <ele>590.801575</ele>
        <time>2021-05-05T11:36:12Z</time>
      </trkpt>
      <trkpt lat="44.16707" lon="5.79204">
        <ele>589.910278</ele>
        <time>2021-05-05T11:36:13Z</time>
      </trkpt>
      <trkpt lat="44.16708" lon="5.7922">
        <ele>588.931091</ele>
        <time>2021-05-05T11:36:14Z</time>
      </trkpt>
      <trkpt lat="44.16721" lon="5.7933">
        <ele>584.225708</ele>
        <time>2021-05-05T11:36:22Z</time>
      </trkpt>
      <trkpt lat="44.16743" lon="5.79454">
        <ele>582.980347</ele>
        <time>2021-05-05T11:36:33Z</time>
      </trkpt>
      <trkpt lat="44.16751" lon="5.79497">
        <ele>582.492249</ele>
        <time>2021-05-05T11:36:38Z</time>
      </trkpt>
      <trkpt lat="44.16752" lon="5.79505">
        <ele>582.41217</ele>
        <time>2021-05-05T11:36:39Z</time>
      </trkpt>
      <trkpt lat="44.16752" lon="5.79515">
        <ele>582.286987</ele>
        <time>2021-05-05T11:36:40Z</time>
      </trkpt>
      <trkpt lat="44.16751" lon="5.79523">
        <ele>582.145325</ele>
        <time>2021-05-05T11:36:41Z</time>
      </trkpt>
      <trkpt lat="44.1675" lon="5.79533">
        <ele>581.927002</ele>
        <time>2021-05-05T11:36:42Z</time>
      </trkpt>
      <trkpt lat="44.16748" lon="5.79544">
        <ele>581.643127</ele>
        <time>2021-05-05T11:36:43Z</time>
      </trkpt>
      <trkpt lat="44.16731" lon="5.79651">
        <ele>579.02417</ele>
        <time>2021-05-05T11:36:53Z</time>
      </trkpt>
      <trkpt lat="44.16738" lon="5.79794">
        <ele>580.99823</ele>
        <time>2021-05-05T11:37:07Z</time>
      </trkpt>
      <trkpt lat="44.16755" lon="5.7988">
        <ele>583.492981</ele>
        <time>2021-05-05T11:37:17Z</time>
      </trkpt>
      <trkpt lat="44.16755" lon="5.79889">
        <ele>583.31189</ele>
        <time>2021-05-05T11:37:18Z</time>
      </trkpt>
      <trkpt lat="44.16756" lon="5.80016">
        <ele>584.110962</ele>
        <time>2021-05-05T11:37:33Z</time>
      </trkpt>
      <trkpt lat="44.16772" lon="5.80171">
        <ele>583.213806</ele>
        <time>2021-05-05T11:37:51Z</time>
      </trkpt>
      <trkpt lat="44.16775" lon="5.80331">
        <ele>582.121765</ele>
        <time>2021-05-05T11:38:10Z</time>
      </trkpt>
      <trkpt lat="44.16763" lon="5.80415">
        <ele>581.726135</ele>
        <time>2021-05-05T11:38:20Z</time>
      </trkpt>
      <trkpt lat="44.16763" lon="5.80424">
        <ele>581.53125</ele>
        <time>2021-05-05T11:38:21Z</time>
      </trkpt>
      <trkpt lat="44.16764" lon="5.80432">
        <ele>581.428955</ele>
        <time>2021-05-05T11:38:22Z</time>
      </trkpt>
      <trkpt lat="44.16769" lon="5.80562">
        <ele>581.316162</ele>
        <time>2021-05-05T11:38:37Z</time>
      </trkpt>
      <trkpt lat="44.16763" lon="5.80702">
        <ele>582.796936</ele>
        <time>2021-05-05T11:38:54Z</time>
      </trkpt>
      <trkpt lat="44.16735" lon="5.80843">
        <ele>579.928894</ele>
        <time>2021-05-05T11:39:11Z</time>
      </trkpt>
      <trkpt lat="44.16717" lon="5.80958">
        <ele>575.656799</ele>
        <time>2021-05-05T11:39:25Z</time>
      </trkpt>
      <trkpt lat="44.16722" lon="5.8099">
        <ele>579.140442</ele>
        <time>2021-05-05T11:39:29Z</time>
      </trkpt>
      <trkpt lat="44.16723" lon="5.80999">
        <ele>580.025146</ele>
        <time>2021-05-05T11:39:30Z</time>
      </trkpt>
      <trkpt lat="44.16723" lon="5.81008">
        <ele>580.546997</ele>
        <time>2021-05-05T11:39:31Z</time>
      </trkpt>
      <trkpt lat="44.16722" lon="5.81023">
        <ele>581.242004</ele>
        <time>2021-05-05T11:39:33Z</time>
      </trkpt>
      <trkpt lat="44.16721" lon="5.81031">
        <ele>581.205139</ele>
        <time>2021-05-05T11:39:34Z</time>
      </trkpt>
      <trkpt lat="44.16719" lon="5.81039">
        <ele>580.833191</ele>
        <time>2021-05-05T11:39:35Z</time>
      </trkpt>
      <trkpt lat="44.16709" lon="5.81083">
        <ele>578.681152</ele>
        <time>2021-05-05T11:39:41Z</time>
      </trkpt>
      <trkpt lat="44.16708" lon="5.8109">
        <ele>578.962219</ele>
        <time>2021-05-05T11:39:42Z</time>
      </trkpt>
      <trkpt lat="44.16718" lon="5.81199">
        <ele>579.644836</ele>
        <time>2021-05-05T11:39:56Z</time>
      </trkpt>
      <trkpt lat="44.16717" lon="5.81208">
        <ele>579.242493</ele>
        <time>2021-05-05T11:39:57Z</time>
      </trkpt>
      <trkpt lat="44.16703" lon="5.81338">
        <ele>566.326965</ele>
        <time>2021-05-05T11:40:11Z</time>
      </trkpt>
      <trkpt lat="44.16704" lon="5.81348">
        <ele>565.809753</ele>
        <time>2021-05-05T11:40:12Z</time>
      </trkpt>
      <trkpt lat="44.16707" lon="5.81358">
        <ele>566.242676</ele>
        <time>2021-05-05T11:40:13Z</time>
      </trkpt>
      <trkpt lat="44.16711" lon="5.81367">
        <ele>566.970459</ele>
        <time>2021-05-05T11:40:14Z</time>
      </trkpt>
      <trkpt lat="44.16716" lon="5.81375">
        <ele>568.047058</ele>
        <time>2021-05-05T11:40:15Z</time>
      </trkpt>
      <trkpt lat="44.16722" lon="5.81382">
        <ele>569.372498</ele>
        <time>2021-05-05T11:40:16Z</time>
      </trkpt>
      <trkpt lat="44.1673" lon="5.81388">
        <ele>570.929993</ele>
        <time>2021-05-05T11:40:17Z</time>
      </trkpt>
      <trkpt lat="44.16737" lon="5.81392">
        <ele>572.548584</ele>
        <time>2021-05-05T11:40:18Z</time>
      </trkpt>
      <trkpt lat="44.16745" lon="5.81396">
        <ele>574.859436</ele>
        <time>2021-05-05T11:40:19Z</time>
      </trkpt>
      <trkpt lat="44.16752" lon="5.81399">
        <ele>577.269409</ele>
        <time>2021-05-05T11:40:20Z</time>
      </trkpt>
      <trkpt lat="44.1676" lon="5.81404">
        <ele>579.812195</ele>
        <time>2021-05-05T11:40:21Z</time>
      </trkpt>
      <trkpt lat="44.16766" lon="5.8141">
        <ele>582.000549</ele>
        <time>2021-05-05T11:40:22Z</time>
      </trkpt>
      <trkpt lat="44.16772" lon="5.81418">
        <ele>583.31604</ele>
        <time>2021-05-05T11:40:23Z</time>
      </trkpt>
      <trkpt lat="44.16776" lon="5.81428">
        <ele>583.900391</ele>
        <time>2021-05-05T11:40:24Z</time>
      </trkpt>
      <trkpt lat="44.16778" lon="5.81436">
        <ele>583.869019</ele>
        <time>2021-05-05T11:40:25Z</time>
      </trkpt>
      <trkpt lat="44.1678" lon="5.81446">
        <ele>583.481873</ele>
        <time>2021-05-05T11:40:26Z</time>
      </trkpt>
      <trkpt lat="44.16781" lon="5.81456">
        <ele>582.831177</ele>
        <time>2021-05-05T11:40:27Z</time>
      </trkpt>
      <trkpt lat="44.16781" lon="5.81466">
        <ele>582.028015</ele>
        <time>2021-05-05T11:40:28Z</time>
      </trkpt>
      <trkpt lat="44.16782" lon="5.81641">
        <ele>569.808105</ele>
        <time>2021-05-05T11:40:45Z</time>
      </trkpt>
      <trkpt lat="44.16813" lon="5.81734">
        <ele>568.386292</ele>
        <time>2021-05-05T11:40:58Z</time>
      </trkpt>
      <trkpt lat="44.16822" lon="5.81752">
        <ele>568.967163</ele>
        <time>2021-05-05T11:41:01Z</time>
      </trkpt>
      <trkpt lat="44.16825" lon="5.81757">
        <ele>569.250366</ele>
        <time>2021-05-05T11:41:02Z</time>
      </trkpt>
      <trkpt lat="44.16843" lon="5.81794">
        <ele>569.447388</ele>
        <time>2021-05-05T11:41:08Z</time>
      </trkpt>
      <trkpt lat="44.16881" lon="5.81882">
        <ele>565.632813</ele>
        <time>2021-05-05T11:41:21Z</time>
      </trkpt>
      <trkpt lat="44.16922" lon="5.81936">
        <ele>565.373474</ele>
        <time>2021-05-05T11:41:29Z</time>
      </trkpt>
      <trkpt lat="44.16927" lon="5.81945">
        <ele>565.407532</ele>
        <time>2021-05-05T11:41:30Z</time>
      </trkpt>
      <trkpt lat="44.1693" lon="5.81956">
        <ele>565.152039</ele>
        <time>2021-05-05T11:41:31Z</time>
      </trkpt>
      <trkpt lat="44.16932" lon="5.81967">
        <ele>564.630127</ele>
        <time>2021-05-05T11:41:32Z</time>
      </trkpt>
      <trkpt lat="44.16933" lon="5.81979">
        <ele>563.925354</ele>
        <time>2021-05-05T11:41:33Z</time>
      </trkpt>
      <trkpt lat="44.16933" lon="5.81991">
        <ele>563.503723</ele>
        <time>2021-05-05T11:41:34Z</time>
      </trkpt>
      <trkpt lat="44.16943" lon="5.82207">
        <ele>561.763</ele>
        <time>2021-05-05T11:41:51Z</time>
      </trkpt>
      <trkpt lat="44.16927" lon="5.82425">
        <ele>557.97522</ele>
        <time>2021-05-05T11:42:09Z</time>
      </trkpt>
      <trkpt lat="44.16917" lon="5.82576">
        <ele>557.461365</ele>
        <time>2021-05-05T11:42:23Z</time>
      </trkpt>
      <trkpt lat="44.16916" lon="5.82594">
        <ele>556.895813</ele>
        <time>2021-05-05T11:42:25Z</time>
      </trkpt>
      <trkpt lat="44.16915" lon="5.82602">
        <ele>556.576599</ele>
        <time>2021-05-05T11:42:26Z</time>
      </trkpt>
      <trkpt lat="44.16913" lon="5.8261">
        <ele>556.260254</ele>
        <time>2021-05-05T11:42:27Z</time>
      </trkpt>
      <trkpt lat="44.1691" lon="5.82617">
        <ele>556.171082</ele>
        <time>2021-05-05T11:42:28Z</time>
      </trkpt>
      <trkpt lat="44.16908" lon="5.82625">
        <ele>556.053467</ele>
        <time>2021-05-05T11:42:29Z</time>
      </trkpt>
      <trkpt lat="44.16875" lon="5.82729">
        <ele>552.959534</ele>
        <time>2021-05-05T11:42:44Z</time>
      </trkpt>
      <trkpt lat="44.16849" lon="5.82802">
        <ele>553.536621</ele>
        <time>2021-05-05T11:42:57Z</time>
      </trkpt>
      <trkpt lat="44.16838" lon="5.82853">
        <ele>553.799744</ele>
        <time>2021-05-05T11:43:10Z</time>
      </trkpt>
      <trkpt lat="44.16845" lon="5.82914">
        <ele>554.84491</ele>
        <time>2021-05-05T11:43:23Z</time>
      </trkpt>
      <trkpt lat="44.16847" lon="5.82938">
        <ele>555.052124</ele>
        <time>2021-05-05T11:43:27Z</time>
      </trkpt>
      <trkpt lat="44.16841" lon="5.83048">
        <ele>554.687073</ele>
        <time>2021-05-05T11:43:41Z</time>
      </trkpt>
      <trkpt lat="44.16842" lon="5.83082">
        <ele>554.125</ele>
        <time>2021-05-05T11:43:45Z</time>
      </trkpt>
      <trkpt lat="44.16843" lon="5.8309">
        <ele>554.096252</ele>
        <time>2021-05-05T11:43:46Z</time>
      </trkpt>
      <trkpt lat="44.16845" lon="5.83099">
        <ele>554.130493</ele>
        <time>2021-05-05T11:43:47Z</time>
      </trkpt>
      <trkpt lat="44.16883" lon="5.83204">
        <ele>553.973328</ele>
        <time>2021-05-05T11:43:57Z</time>
      </trkpt>
      <trkpt lat="44.16894" lon="5.83321">
        <ele>551.5979</ele>
        <time>2021-05-05T11:44:08Z</time>
      </trkpt>
      <trkpt lat="44.16903" lon="5.83492">
        <ele>550.479492</ele>
        <time>2021-05-05T11:44:26Z</time>
      </trkpt>
      <trkpt lat="44.16912" lon="5.83648">
        <ele>550.984253</ele>
        <time>2021-05-05T11:44:42Z</time>
      </trkpt>
      <trkpt lat="44.16918" lon="5.83782">
        <ele>549.794006</ele>
        <time>2021-05-05T11:44:56Z</time>
      </trkpt>
      <trkpt lat="44.16918" lon="5.83882">
        <ele>550.694824</ele>
        <time>2021-05-05T11:45:11Z</time>
      </trkpt>
      <trkpt lat="44.16917" lon="5.83901">
        <ele>550.964294</ele>
        <time>2021-05-05T11:45:14Z</time>
      </trkpt>
      <trkpt lat="44.16917" lon="5.84032">
        <ele>550.997742</ele>
        <time>2021-05-05T11:45:32Z</time>
      </trkpt>
      <trkpt lat="44.16913" lon="5.8417">
        <ele>543.485596</ele>
        <time>2021-05-05T11:45:44Z</time>
      </trkpt>
      <trkpt lat="44.16894" lon="5.84384">
        <ele>539.358948</ele>
        <time>2021-05-05T11:46:02Z</time>
      </trkpt>
      <trkpt lat="44.1687" lon="5.84549">
        <ele>539.190063</ele>
        <time>2021-05-05T11:46:18Z</time>
      </trkpt>
      <trkpt lat="44.16827" lon="5.84724">
        <ele>537.348633</ele>
        <time>2021-05-05T11:46:34Z</time>
      </trkpt>
      <trkpt lat="44.16793" lon="5.8486">
        <ele>536.28241</ele>
        <time>2021-05-05T11:46:49Z</time>
      </trkpt>
      <trkpt lat="44.16805" lon="5.85002">
        <ele>536.26593</ele>
        <time>2021-05-05T11:47:03Z</time>
      </trkpt>
      <trkpt lat="44.16796" lon="5.8512">
        <ele>534.544434</ele>
        <time>2021-05-05T11:47:16Z</time>
      </trkpt>
      <trkpt lat="44.16795" lon="5.85123">
        <ele>534.380249</ele>
        <time>2021-05-05T11:47:17Z</time>
      </trkpt>
      <trkpt lat="44.16794" lon="5.85125">
        <ele>534.308167</ele>
        <time>2021-05-05T11:47:26Z</time>
      </trkpt>
      <trkpt lat="44.16795" lon="5.85124">
        <ele>534.426331</ele>
        <time>2021-05-05T11:47:48Z</time>
      </trkpt>
      <trkpt lat="44.16795" lon="5.85125">
        <ele>534.371643</ele>
        <time>2021-05-05T11:47:53Z</time>
      </trkpt>
      <trkpt lat="44.16789" lon="5.85157">
        <ele>533.575867</ele>
        <time>2021-05-05T11:48:02Z</time>
      </trkpt>
      <trkpt lat="44.16774" lon="5.85216">
        <ele>533.870667</ele>
        <time>2021-05-05T11:48:10Z</time>
      </trkpt>
      <trkpt lat="44.16771" lon="5.85222">
        <ele>533.791504</ele>
        <time>2021-05-05T11:48:11Z</time>
      </trkpt>
      <trkpt lat="44.16741" lon="5.85278">
        <ele>532.270203</ele>
        <time>2021-05-05T11:48:18Z</time>
      </trkpt>
      <trkpt lat="44.16738" lon="5.85288">
        <ele>532.13678</ele>
        <time>2021-05-05T11:48:19Z</time>
      </trkpt>
      <trkpt lat="44.16735" lon="5.85297">
        <ele>532.101318</ele>
        <time>2021-05-05T11:48:20Z</time>
      </trkpt>
      <trkpt lat="44.16733" lon="5.85307">
        <ele>532.0896</ele>
        <time>2021-05-05T11:48:21Z</time>
      </trkpt>
      <trkpt lat="44.16731" lon="5.85318">
        <ele>532.10083</ele>
        <time>2021-05-05T11:48:22Z</time>
      </trkpt>
      <trkpt lat="44.1671" lon="5.85496">
        <ele>532.482117</ele>
        <time>2021-05-05T11:48:39Z</time>
      </trkpt>
      <trkpt lat="44.16709" lon="5.85591">
        <ele>530.459656</ele>
        <time>2021-05-05T11:48:48Z</time>
      </trkpt>
      <trkpt lat="44.16708" lon="5.85603">
        <ele>529.73053</ele>
        <time>2021-05-05T11:48:49Z</time>
      </trkpt>
      <trkpt lat="44.16687" lon="5.85744">
        <ele>521.80603</ele>
        <time>2021-05-05T11:49:02Z</time>
      </trkpt>
      <trkpt lat="44.16684" lon="5.85887">
        <ele>522.995544</ele>
        <time>2021-05-05T11:49:17Z</time>
      </trkpt>
      <trkpt lat="44.16683" lon="5.86044">
        <ele>523.273438</ele>
        <time>2021-05-05T11:49:34Z</time>
      </trkpt>
      <trkpt lat="44.16695" lon="5.862">
        <ele>522.608643</ele>
        <time>2021-05-05T11:49:49Z</time>
      </trkpt>
      <trkpt lat="44.16712" lon="5.86355">
        <ele>519.076416</ele>
        <time>2021-05-05T11:50:02Z</time>
      </trkpt>
      <trkpt lat="44.16712" lon="5.86367">
        <ele>519.269165</ele>
        <time>2021-05-05T11:50:03Z</time>
      </trkpt>
      <trkpt lat="44.16711" lon="5.86379">
        <ele>519.416138</ele>
        <time>2021-05-05T11:50:04Z</time>
      </trkpt>
      <trkpt lat="44.16709" lon="5.86542">
        <ele>520.157471</ele>
        <time>2021-05-05T11:50:19Z</time>
      </trkpt>
      <trkpt lat="44.16711" lon="5.86715">
        <ele>520.095703</ele>
        <time>2021-05-05T11:50:35Z</time>
      </trkpt>
      <trkpt lat="44.16722" lon="5.86862">
        <ele>518.097412</ele>
        <time>2021-05-05T11:50:50Z</time>
      </trkpt>
      <trkpt lat="44.16726" lon="5.87015">
        <ele>516.714966</ele>
        <time>2021-05-05T11:51:05Z</time>
      </trkpt>
      <trkpt lat="44.1675" lon="5.87156">
        <ele>515.370728</ele>
        <time>2021-05-05T11:51:16Z</time>
      </trkpt>
      <trkpt lat="44.16777" lon="5.87365">
        <ele>512.151794</ele>
        <time>2021-05-05T11:51:32Z</time>
      </trkpt>
      <trkpt lat="44.16797" lon="5.87504">
        <ele>512.220154</ele>
        <time>2021-05-05T11:51:45Z</time>
      </trkpt>
      <trkpt lat="44.16831" lon="5.87692">
        <ele>509.586792</ele>
        <time>2021-05-05T11:52:00Z</time>
      </trkpt>
      <trkpt lat="44.16876" lon="5.8796">
        <ele>509.089081</ele>
        <time>2021-05-05T11:52:23Z</time>
      </trkpt>
      <trkpt lat="44.16912" lon="5.88157">
        <ele>504.562927</ele>
        <time>2021-05-05T11:52:41Z</time>
      </trkpt>
      <trkpt lat="44.16948" lon="5.88272">
        <ele>502.016022</ele>
        <time>2021-05-05T11:52:55Z</time>
      </trkpt>
      <trkpt lat="44.16977" lon="5.88448">
        <ele>502.785645</ele>
        <time>2021-05-05T11:53:14Z</time>
      </trkpt>
      <trkpt lat="44.17034" lon="5.88582">
        <ele>502.599976</ele>
        <time>2021-05-05T11:53:29Z</time>
      </trkpt>
      <trkpt lat="44.17082" lon="5.88744">
        <ele>501.849243</ele>
        <time>2021-05-05T11:53:47Z</time>
      </trkpt>
      <trkpt lat="44.17135" lon="5.88883">
        <ele>499.497772</ele>
        <time>2021-05-05T11:54:03Z</time>
      </trkpt>
      <trkpt lat="44.17172" lon="5.89016">
        <ele>499.635864</ele>
        <time>2021-05-05T11:54:19Z</time>
      </trkpt>
      <trkpt lat="44.17211" lon="5.89147">
        <ele>500.444122</ele>
        <time>2021-05-05T11:54:34Z</time>
      </trkpt>
      <trkpt lat="44.17251" lon="5.89267">
        <ele>499.852844</ele>
        <time>2021-05-05T11:54:48Z</time>
      </trkpt>
      <trkpt lat="44.17268" lon="5.89398">
        <ele>498.51944</ele>
        <time>2021-05-05T11:55:03Z</time>
      </trkpt>
      <trkpt lat="44.17289" lon="5.89577">
        <ele>498.362427</ele>
        <time>2021-05-05T11:55:22Z</time>
      </trkpt>
      <trkpt lat="44.17313" lon="5.89748">
        <ele>497.1138</ele>
        <time>2021-05-05T11:55:41Z</time>
      </trkpt>
      <trkpt lat="44.17336" lon="5.8988">
        <ele>496.22522</ele>
        <time>2021-05-05T11:55:57Z</time>
      </trkpt>
      <trkpt lat="44.17376" lon="5.90023">
        <ele>496.645325</ele>
        <time>2021-05-05T11:56:14Z</time>
      </trkpt>
      <trkpt lat="44.17398" lon="5.90164">
        <ele>496.241302</ele>
        <time>2021-05-05T11:56:29Z</time>
      </trkpt>
      <trkpt lat="44.1739" lon="5.90322">
        <ele>496.58728</ele>
        <time>2021-05-05T11:56:46Z</time>
      </trkpt>
      <trkpt lat="44.17379" lon="5.90481">
        <ele>494.215759</ele>
        <time>2021-05-05T11:57:03Z</time>
      </trkpt>
      <trkpt lat="44.1738" lon="5.90605">
        <ele>488.386414</ele>
        <time>2021-05-05T11:57:18Z</time>
      </trkpt>
      <trkpt lat="44.17377" lon="5.90742">
        <ele>484.102844</ele>
        <time>2021-05-05T11:57:34Z</time>
      </trkpt>
      <trkpt lat="44.17364" lon="5.90906">
        <ele>484.020996</ele>
        <time>2021-05-05T11:57:53Z</time>
      </trkpt>
      <trkpt lat="44.17349" lon="5.91071">
        <ele>483.157654</ele>
        <time>2021-05-05T11:58:11Z</time>
      </trkpt>
      <trkpt lat="44.17331" lon="5.9117">
        <ele>482.318451</ele>
        <time>2021-05-05T11:58:21Z</time>
      </trkpt>
      <trkpt lat="44.17282" lon="5.91274">
        <ele>480.75119</ele>
        <time>2021-05-05T11:58:34Z</time>
      </trkpt>
      <trkpt lat="44.17263" lon="5.91317">
        <ele>480.530975</ele>
        <time>2021-05-05T11:58:42Z</time>
      </trkpt>
      <trkpt lat="44.17263" lon="5.91317">
        <ele>480.529327</ele>
        <time>2021-05-05T11:58:57Z</time>
      </trkpt>
      <trkpt lat="44.17263" lon="5.91319">
        <ele>480.52771</ele>
        <time>2021-05-05T11:59:20Z</time>
      </trkpt>
      <trkpt lat="44.17262" lon="5.9132">
        <ele>480.535553</ele>
        <time>2021-05-05T11:59:21Z</time>
      </trkpt>
      <trkpt lat="44.17262" lon="5.91323">
        <ele>480.548676</ele>
        <time>2021-05-05T11:59:22Z</time>
      </trkpt>
      <trkpt lat="44.17261" lon="5.91326">
        <ele>480.559662</ele>
        <time>2021-05-05T11:59:23Z</time>
      </trkpt>
      <trkpt lat="44.1726" lon="5.91331">
        <ele>480.569763</ele>
        <time>2021-05-05T11:59:24Z</time>
      </trkpt>
      <trkpt lat="44.1724" lon="5.91418">
        <ele>480.439301</ele>
        <time>2021-05-05T11:59:35Z</time>
      </trkpt>
      <trkpt lat="44.17215" lon="5.91569">
        <ele>480.811249</ele>
        <time>2021-05-05T11:59:52Z</time>
      </trkpt>
      <trkpt lat="44.17187" lon="5.91712">
        <ele>480.212402</ele>
        <time>2021-05-05T12:00:09Z</time>
      </trkpt>
      <trkpt lat="44.1717" lon="5.91841">
        <ele>479.854919</ele>
        <time>2021-05-05T12:00:25Z</time>
      </trkpt>
      <trkpt lat="44.17171" lon="5.91847">
        <ele>479.863037</ele>
        <time>2021-05-05T12:00:26Z</time>
      </trkpt>
      <trkpt lat="44.17175" lon="5.91854">
        <ele>479.99057</ele>
        <time>2021-05-05T12:00:27Z</time>
      </trkpt>
      <trkpt lat="44.17179" lon="5.91859">
        <ele>480.213745</ele>
        <time>2021-05-05T12:00:28Z</time>
      </trkpt>
      <trkpt lat="44.17183" lon="5.91863">
        <ele>480.402802</ele>
        <time>2021-05-05T12:00:29Z</time>
      </trkpt>
      <trkpt lat="44.17187" lon="5.91867">
        <ele>480.651703</ele>
        <time>2021-05-05T12:00:30Z</time>
      </trkpt>
      <trkpt lat="44.17191" lon="5.91872">
        <ele>480.875671</ele>
        <time>2021-05-05T12:00:31Z</time>
      </trkpt>
      <trkpt lat="44.17194" lon="5.91877">
        <ele>481.051056</ele>
        <time>2021-05-05T12:00:32Z</time>
      </trkpt>
      <trkpt lat="44.17197" lon="5.91882">
        <ele>481.234802</ele>
        <time>2021-05-05T12:00:33Z</time>
      </trkpt>
      <trkpt lat="44.17199" lon="5.91887">
        <ele>481.459747</ele>
        <time>2021-05-05T12:00:34Z</time>
      </trkpt>
      <trkpt lat="44.172" lon="5.91892">
        <ele>481.643829</ele>
        <time>2021-05-05T12:00:35Z</time>
      </trkpt>
      <trkpt lat="44.17201" lon="5.91897">
        <ele>481.777679</ele>
        <time>2021-05-05T12:00:36Z</time>
      </trkpt>
      <trkpt lat="44.17201" lon="5.91902">
        <ele>481.879822</ele>
        <time>2021-05-05T12:00:37Z</time>
      </trkpt>
      <trkpt lat="44.17201" lon="5.91907">
        <ele>481.967468</ele>
        <time>2021-05-05T12:00:38Z</time>
      </trkpt>
      <trkpt lat="44.172" lon="5.91925">
        <ele>482.213226</ele>
        <time>2021-05-05T12:00:48Z</time>
      </trkpt>
      <trkpt lat="44.17199" lon="5.91932">
        <ele>482.301208</ele>
        <time>2021-05-05T12:01:01Z</time>
      </trkpt>
      <trkpt lat="44.172" lon="5.91931">
        <ele>482.309631</ele>
        <time>2021-05-05T12:01:42Z</time>
      </trkpt>
      <trkpt lat="44.172" lon="5.9193">
        <ele>482.343658</ele>
        <time>2021-05-05T12:02:19Z</time>
      </trkpt>
      <trkpt lat="44.172" lon="5.91929">
        <ele>482.277008</ele>
        <time>2021-05-05T12:02:58Z</time>
      </trkpt>
      <trkpt lat="44.172" lon="5.91932">
        <ele>482.317841</ele>
        <time>2021-05-05T12:03:39Z</time>
      </trkpt>
      <trkpt lat="44.172" lon="5.91932">
        <ele>482.349823</ele>
        <time>2021-05-05T12:04:10Z</time>
      </trkpt>
      <trkpt lat="44.172" lon="5.91932">
        <ele>482.378113</ele>
        <time>2021-05-05T12:04:42Z</time>
      </trkpt>
      <trkpt lat="44.172" lon="5.91932">
        <ele>482.366119</ele>
        <time>2021-05-05T12:05:14Z</time>
      </trkpt>
      <trkpt lat="44.172" lon="5.9193">
        <ele>482.300446</ele>
        <time>2021-05-05T12:05:47Z</time>
      </trkpt>
      <trkpt lat="44.172" lon="5.91931">
        <ele>482.307373</ele>
        <time>2021-05-05T12:06:16Z</time>
      </trkpt>
      <trkpt lat="44.17199" lon="5.91931">
        <ele>482.275421</ele>
        <time>2021-05-05T12:06:51Z</time>
      </trkpt>
      <trkpt lat="44.17199" lon="5.91931">
        <ele>482.298737</ele>
        <time>2021-05-05T12:07:21Z</time>
      </trkpt>
      <trkpt lat="44.17199" lon="5.91929">
        <ele>482.271362</ele>
        <time>2021-05-05T12:07:50Z</time>
      </trkpt>
      <trkpt lat="44.172" lon="5.9193">
        <ele>482.316498</ele>
        <time>2021-05-05T12:08:20Z</time>
      </trkpt>
      <trkpt lat="44.17201" lon="5.9193">
        <ele>482.386719</ele>
        <time>2021-05-05T12:08:48Z</time>
      </trkpt>
      <trkpt lat="44.17199" lon="5.9193">
        <ele>482.27774</ele>
        <time>2021-05-05T12:09:13Z</time>
      </trkpt>
      <trkpt lat="44.172" lon="5.9193">
        <ele>482.310394</ele>
        <time>2021-05-05T12:09:39Z</time>
      </trkpt>
      <trkpt lat="44.172" lon="5.91933">
        <ele>482.363983</ele>
        <time>2021-05-05T12:10:07Z</time>
      </trkpt>
      <trkpt lat="44.172" lon="5.91936">
        <ele>482.445251</ele>
        <time>2021-05-05T12:10:16Z</time>
      </trkpt>
      <trkpt lat="44.17201" lon="5.91937">
        <ele>482.504089</ele>
        <time>2021-05-05T12:10:17Z</time>
      </trkpt>
      <trkpt lat="44.17202" lon="5.91941">
        <ele>482.666504</ele>
        <time>2021-05-05T12:10:19Z</time>
      </trkpt>
      <trkpt lat="44.17218" lon="5.91982">
        <ele>485.136322</ele>
        <time>2021-05-05T12:10:30Z</time>
      </trkpt>
      <trkpt lat="44.17241" lon="5.92038">
        <ele>488.3573</ele>
        <time>2021-05-05T12:10:43Z</time>
      </trkpt>
      <trkpt lat="44.17269" lon="5.92108">
        <ele>492.679291</ele>
        <time>2021-05-05T12:10:59Z</time>
      </trkpt>
      <trkpt lat="44.17297" lon="5.92185">
        <ele>497.088715</ele>
        <time>2021-05-05T12:11:17Z</time>
      </trkpt>
      <trkpt lat="44.17323" lon="5.92264">
        <ele>499.652252</ele>
        <time>2021-05-05T12:11:34Z</time>
      </trkpt>
      <trkpt lat="44.17358" lon="5.9235">
        <ele>502.178833</ele>
        <time>2021-05-05T12:11:52Z</time>
      </trkpt>
      <trkpt lat="44.17408" lon="5.92453">
        <ele>501.954712</ele>
        <time>2021-05-05T12:12:13Z</time>
      </trkpt>
      <trkpt lat="44.17473" lon="5.92517">
        <ele>499.712982</ele>
        <time>2021-05-05T12:12:30Z</time>
      </trkpt>
      <trkpt lat="44.17482" lon="5.92521">
        <ele>499.678833</ele>
        <time>2021-05-05T12:12:32Z</time>
      </trkpt>
      <trkpt lat="44.17568" lon="5.92548">
        <ele>500.871613</ele>
        <time>2021-05-05T12:12:52Z</time>
      </trkpt>
      <trkpt lat="44.17642" lon="5.92568">
        <ele>500.857941</ele>
        <time>2021-05-05T12:13:08Z</time>
      </trkpt>
      <trkpt lat="44.17679" lon="5.92567">
        <ele>500.549927</ele>
        <time>2021-05-05T12:13:16Z</time>
      </trkpt>
      <trkpt lat="44.17684" lon="5.92565">
        <ele>500.585449</ele>
        <time>2021-05-05T12:13:17Z</time>
      </trkpt>
      <trkpt lat="44.1776" lon="5.92523">
        <ele>500.96228</ele>
        <time>2021-05-05T12:13:34Z</time>
      </trkpt>
      <trkpt lat="44.17764" lon="5.92522">
        <ele>500.990082</ele>
        <time>2021-05-05T12:13:35Z</time>
      </trkpt>
      <trkpt lat="44.17768" lon="5.92521">
        <ele>501.000031</ele>
        <time>2021-05-05T12:13:36Z</time>
      </trkpt>
      <trkpt lat="44.17772" lon="5.92521">
        <ele>501.000122</ele>
        <time>2021-05-05T12:13:37Z</time>
      </trkpt>
      <trkpt lat="44.17777" lon="5.92521">
        <ele>501.357239</ele>
        <time>2021-05-05T12:13:38Z</time>
      </trkpt>
      <trkpt lat="44.17781" lon="5.92522">
        <ele>501.725739</ele>
        <time>2021-05-05T12:13:39Z</time>
      </trkpt>
      <trkpt lat="44.17785" lon="5.92523">
        <ele>502.096527</ele>
        <time>2021-05-05T12:13:40Z</time>
      </trkpt>
      <trkpt lat="44.17789" lon="5.92524">
        <ele>502.463135</ele>
        <time>2021-05-05T12:13:41Z</time>
      </trkpt>
      <trkpt lat="44.17792" lon="5.92527">
        <ele>502.810211</ele>
        <time>2021-05-05T12:13:42Z</time>
      </trkpt>
      <trkpt lat="44.17795" lon="5.92529">
        <ele>503.167023</ele>
        <time>2021-05-05T12:13:43Z</time>
      </trkpt>
      <trkpt lat="44.17798" lon="5.92532">
        <ele>503.582153</ele>
        <time>2021-05-05T12:13:44Z</time>
      </trkpt>
      <trkpt lat="44.17801" lon="5.92535">
        <ele>503.949158</ele>
        <time>2021-05-05T12:13:45Z</time>
      </trkpt>
      <trkpt lat="44.17835" lon="5.92595">
        <ele>511.69812</ele>
        <time>2021-05-05T12:14:01Z</time>
      </trkpt>
      <trkpt lat="44.17849" lon="5.92679">
        <ele>518.19751</ele>
        <time>2021-05-05T12:14:18Z</time>
      </trkpt>
      <trkpt lat="44.17855" lon="5.92765">
        <ele>521.437317</ele>
        <time>2021-05-05T12:14:35Z</time>
      </trkpt>
      <trkpt lat="44.17845" lon="5.92856">
        <ele>526.474792</ele>
        <time>2021-05-05T12:14:53Z</time>
      </trkpt>
      <trkpt lat="44.17853" lon="5.92949">
        <ele>533.02832</ele>
        <time>2021-05-05T12:15:11Z</time>
      </trkpt>
      <trkpt lat="44.17864" lon="5.93031">
        <ele>538.123169</ele>
        <time>2021-05-05T12:15:28Z</time>
      </trkpt>
      <trkpt lat="44.17878" lon="5.93096">
        <ele>539.193176</ele>
        <time>2021-05-05T12:15:42Z</time>
      </trkpt>
      <trkpt lat="44.17917" lon="5.93139">
        <ele>543.103821</ele>
        <time>2021-05-05T12:15:56Z</time>
      </trkpt>
      <trkpt lat="44.1797" lon="5.93177">
        <ele>547.602356</ele>
        <time>2021-05-05T12:16:13Z</time>
      </trkpt>
      <trkpt lat="44.18029" lon="5.9319">
        <ele>551.451782</ele>
        <time>2021-05-05T12:16:30Z</time>
      </trkpt>
      <trkpt lat="44.18092" lon="5.93201">
        <ele>555.480591</ele>
        <time>2021-05-05T12:16:49Z</time>
      </trkpt>
      <trkpt lat="44.18147" lon="5.93214">
        <ele>558.736145</ele>
        <time>2021-05-05T12:17:05Z</time>
      </trkpt>
      <trkpt lat="44.18181" lon="5.93219">
        <ele>560.095947</ele>
        <time>2021-05-05T12:17:18Z</time>
      </trkpt>
      <trkpt lat="44.18207" lon="5.93227">
        <ele>560.478577</ele>
        <time>2021-05-05T12:17:30Z</time>
      </trkpt>
      <trkpt lat="44.18233" lon="5.93254">
        <ele>559.259583</ele>
        <time>2021-05-05T12:17:41Z</time>
      </trkpt>
      <trkpt lat="44.18238" lon="5.93264">
        <ele>559.04425</ele>
        <time>2021-05-05T12:17:43Z</time>
      </trkpt>
      <trkpt lat="44.1824" lon="5.93269">
        <ele>559.120667</ele>
        <time>2021-05-05T12:17:44Z</time>
      </trkpt>
      <trkpt lat="44.18267" lon="5.93359">
        <ele>562.337708</ele>
        <time>2021-05-05T12:18:02Z</time>
      </trkpt>
      <trkpt lat="44.18287" lon="5.93427">
        <ele>564.162476</ele>
        <time>2021-05-05T12:18:17Z</time>
      </trkpt>
      <trkpt lat="44.18321" lon="5.93515">
        <ele>563.827026</ele>
        <time>2021-05-05T12:18:34Z</time>
      </trkpt>
      <trkpt lat="44.18369" lon="5.936">
        <ele>563.15979</ele>
        <time>2021-05-05T12:18:50Z</time>
      </trkpt>
      <trkpt lat="44.18422" lon="5.93683">
        <ele>561.104065</ele>
        <time>2021-05-05T12:19:06Z</time>
      </trkpt>
      <trkpt lat="44.18484" lon="5.93787">
        <ele>557.899597</ele>
        <time>2021-05-05T12:19:25Z</time>
      </trkpt>
      <trkpt lat="44.18552" lon="5.93892">
        <ele>557.118958</ele>
        <time>2021-05-05T12:19:45Z</time>
      </trkpt>
      <trkpt lat="44.18596" lon="5.93956">
        <ele>558.77417</ele>
        <time>2021-05-05T12:19:58Z</time>
      </trkpt>
      <trkpt lat="44.18599" lon="5.93961">
        <ele>558.882446</ele>
        <time>2021-05-05T12:19:59Z</time>
      </trkpt>
      <trkpt lat="44.18603" lon="5.93973">
        <ele>559.039124</ele>
        <time>2021-05-05T12:20:01Z</time>
      </trkpt>
      <trkpt lat="44.18604" lon="5.93978">
        <ele>559.140564</ele>
        <time>2021-05-05T12:20:02Z</time>
      </trkpt>
      <trkpt lat="44.18606" lon="5.93984">
        <ele>559.250977</ele>
        <time>2021-05-05T12:20:03Z</time>
      </trkpt>
      <trkpt lat="44.18608" lon="5.93989">
        <ele>559.364319</ele>
        <time>2021-05-05T12:20:04Z</time>
      </trkpt>
      <trkpt lat="44.1861" lon="5.93993">
        <ele>559.490051</ele>
        <time>2021-05-05T12:20:05Z</time>
      </trkpt>
      <trkpt lat="44.18615" lon="5.93995">
        <ele>559.654907</ele>
        <time>2021-05-05T12:20:06Z</time>
      </trkpt>
      <trkpt lat="44.18619" lon="5.93995">
        <ele>559.819519</ele>
        <time>2021-05-05T12:20:07Z</time>
      </trkpt>
      <trkpt lat="44.18623" lon="5.93995">
        <ele>559.956299</ele>
        <time>2021-05-05T12:20:08Z</time>
      </trkpt>
      <trkpt lat="44.18632" lon="5.93996">
        <ele>560</ele>
        <time>2021-05-05T12:20:10Z</time>
      </trkpt>
      <trkpt lat="44.18636" lon="5.93997">
        <ele>560</ele>
        <time>2021-05-05T12:20:11Z</time>
      </trkpt>
      <trkpt lat="44.1865" lon="5.94006">
        <ele>560</ele>
        <time>2021-05-05T12:20:14Z</time>
      </trkpt>
      <trkpt lat="44.18711" lon="5.94074">
        <ele>559.460754</ele>
        <time>2021-05-05T12:20:29Z</time>
      </trkpt>
      <trkpt lat="44.18798" lon="5.94156">
        <ele>554.69458</ele>
        <time>2021-05-05T12:20:49Z</time>
      </trkpt>
      <trkpt lat="44.1887" lon="5.9419">
        <ele>548.774719</ele>
        <time>2021-05-05T12:21:05Z</time>
      </trkpt>
      <trkpt lat="44.1891" lon="5.94192">
        <ele>550.273376</ele>
        <time>2021-05-05T12:21:11Z</time>
      </trkpt>
      <trkpt lat="44.18917" lon="5.94196">
        <ele>549.852051</ele>
        <time>2021-05-05T12:21:12Z</time>
      </trkpt>
      <trkpt lat="44.18924" lon="5.94202">
        <ele>548.727905</ele>
        <time>2021-05-05T12:21:13Z</time>
      </trkpt>
      <trkpt lat="44.1893" lon="5.94211">
        <ele>546.907654</ele>
        <time>2021-05-05T12:21:14Z</time>
      </trkpt>
      <trkpt lat="44.18935" lon="5.9422">
        <ele>545.374573</ele>
        <time>2021-05-05T12:21:15Z</time>
      </trkpt>
      <trkpt lat="44.18939" lon="5.9423">
        <ele>543.971252</ele>
        <time>2021-05-05T12:21:16Z</time>
      </trkpt>
      <trkpt lat="44.18944" lon="5.9424">
        <ele>543.00238</ele>
        <time>2021-05-05T12:21:17Z</time>
      </trkpt>
      <trkpt lat="44.1895" lon="5.94249">
        <ele>542.411499</ele>
        <time>2021-05-05T12:21:18Z</time>
      </trkpt>
      <trkpt lat="44.18957" lon="5.94257">
        <ele>542.364807</ele>
        <time>2021-05-05T12:21:19Z</time>
      </trkpt>
      <trkpt lat="44.18964" lon="5.94264">
        <ele>542.798523</ele>
        <time>2021-05-05T12:21:20Z</time>
      </trkpt>
      <trkpt lat="44.18973" lon="5.94272">
        <ele>543.151917</ele>
        <time>2021-05-05T12:21:21Z</time>
      </trkpt>
      <trkpt lat="44.1898" lon="5.9428">
        <ele>542.304749</ele>
        <time>2021-05-05T12:21:22Z</time>
      </trkpt>
      <trkpt lat="44.18987" lon="5.94291">
        <ele>540.213135</ele>
        <time>2021-05-05T12:21:23Z</time>
      </trkpt>
      <trkpt lat="44.18992" lon="5.94302">
        <ele>537.570679</ele>
        <time>2021-05-05T12:21:24Z</time>
      </trkpt>
      <trkpt lat="44.19004" lon="5.94334">
        <ele>529.059265</ele>
        <time>2021-05-05T12:21:28Z</time>
      </trkpt>
      <trkpt lat="44.19017" lon="5.94355">
        <ele>523.458313</ele>
        <time>2021-05-05T12:21:36Z</time>
      </trkpt>
      <trkpt lat="44.19018" lon="5.94355">
        <ele>523.546631</ele>
        <time>2021-05-05T12:21:39Z</time>
      </trkpt>
      <trkpt lat="44.19019" lon="5.94355">
        <ele>523.478699</ele>
        <time>2021-05-05T12:21:40Z</time>
      </trkpt>
      <trkpt lat="44.19021" lon="5.94355">
        <ele>523.404053</ele>
        <time>2021-05-05T12:21:41Z</time>
      </trkpt>
      <trkpt lat="44.19023" lon="5.94356">
        <ele>523.268799</ele>
        <time>2021-05-05T12:21:42Z</time>
      </trkpt>
      <trkpt lat="44.19025" lon="5.94356">
        <ele>523.069397</ele>
        <time>2021-05-05T12:21:43Z</time>
      </trkpt>
      <trkpt lat="44.19032" lon="5.94356">
        <ele>523.224182</ele>
        <time>2021-05-05T12:21:55Z</time>
      </trkpt>
      <trkpt lat="44.19068" lon="5.94348">
        <ele>526.201904</ele>
        <time>2021-05-05T12:22:03Z</time>
      </trkpt>
      <trkpt lat="44.1909" lon="5.94346">
        <ele>526.427551</ele>
        <time>2021-05-05T12:22:06Z</time>
      </trkpt>
      <trkpt lat="44.19098" lon="5.94348">
        <ele>525.580505</ele>
        <time>2021-05-05T12:22:07Z</time>
      </trkpt>
      <trkpt lat="44.19143" lon="5.94359">
        <ele>515.822327</ele>
        <time>2021-05-05T12:22:13Z</time>
      </trkpt>
      <trkpt lat="44.19149" lon="5.94358">
        <ele>515.530823</ele>
        <time>2021-05-05T12:22:14Z</time>
      </trkpt>
      <trkpt lat="44.19155" lon="5.94354">
        <ele>515.702087</ele>
        <time>2021-05-05T12:22:15Z</time>
      </trkpt>
      <trkpt lat="44.1916" lon="5.9435">
        <ele>515.946045</ele>
        <time>2021-05-05T12:22:16Z</time>
      </trkpt>
      <trkpt lat="44.19165" lon="5.94345">
        <ele>516.292419</ele>
        <time>2021-05-05T12:22:17Z</time>
      </trkpt>
      <trkpt lat="44.19169" lon="5.9434">
        <ele>516.740417</ele>
        <time>2021-05-05T12:22:18Z</time>
      </trkpt>
      <trkpt lat="44.19174" lon="5.94334">
        <ele>517.232666</ele>
        <time>2021-05-05T12:22:19Z</time>
      </trkpt>
      <trkpt lat="44.19177" lon="5.94329">
        <ele>517.865051</ele>
        <time>2021-05-05T12:22:20Z</time>
      </trkpt>
      <trkpt lat="44.19181" lon="5.94323">
        <ele>518.450012</ele>
        <time>2021-05-05T12:22:21Z</time>
      </trkpt>
      <trkpt lat="44.19196" lon="5.94299">
        <ele>519.775757</ele>
        <time>2021-05-05T12:22:25Z</time>
      </trkpt>
      <trkpt lat="44.192" lon="5.94294">
        <ele>519.69397</ele>
        <time>2021-05-05T12:22:26Z</time>
      </trkpt>
      <trkpt lat="44.19206" lon="5.94289">
        <ele>519.579468</ele>
        <time>2021-05-05T12:22:27Z</time>
      </trkpt>
      <trkpt lat="44.19281" lon="5.94242">
        <ele>515.427673</ele>
        <time>2021-05-05T12:22:40Z</time>
      </trkpt>
      <trkpt lat="44.1936" lon="5.94206">
        <ele>510.745972</ele>
        <time>2021-05-05T12:22:54Z</time>
      </trkpt>
      <trkpt lat="44.19451" lon="5.94169">
        <ele>504.860321</ele>
        <time>2021-05-05T12:23:09Z</time>
      </trkpt>
      <trkpt lat="44.19476" lon="5.94163">
        <ele>503.426361</ele>
        <time>2021-05-05T12:23:13Z</time>
      </trkpt>
      <trkpt lat="44.19481" lon="5.94164">
        <ele>503.16684</ele>
        <time>2021-05-05T12:23:14Z</time>
      </trkpt>
      <trkpt lat="44.19486" lon="5.94165">
        <ele>502.915436</ele>
        <time>2021-05-05T12:23:15Z</time>
      </trkpt>
      <trkpt lat="44.1949" lon="5.94166">
        <ele>502.66272</ele>
        <time>2021-05-05T12:23:16Z</time>
      </trkpt>
      <trkpt lat="44.19492" lon="5.94167">
        <ele>502.423004</ele>
        <time>2021-05-05T12:23:17Z</time>
      </trkpt>
      <trkpt lat="44.19494" lon="5.94168">
        <ele>502.265442</ele>
        <time>2021-05-05T12:23:18Z</time>
      </trkpt>
      <trkpt lat="44.19494" lon="5.94172">
        <ele>501.730927</ele>
        <time>2021-05-05T12:23:30Z</time>
      </trkpt>
      <trkpt lat="44.19492" lon="5.94173">
        <ele>501.751587</ele>
        <time>2021-05-05T12:23:49Z</time>
      </trkpt>
      <trkpt lat="44.19493" lon="5.94173">
        <ele>501.734039</ele>
        <time>2021-05-05T12:23:50Z</time>
      </trkpt>
      <trkpt lat="44.19494" lon="5.94173">
        <ele>501.661255</ele>
        <time>2021-05-05T12:23:51Z</time>
      </trkpt>
      <trkpt lat="44.19495" lon="5.94173">
        <ele>501.623383</ele>
        <time>2021-05-05T12:23:52Z</time>
      </trkpt>
      <trkpt lat="44.19497" lon="5.94174">
        <ele>501.463531</ele>
        <time>2021-05-05T12:23:53Z</time>
      </trkpt>
      <trkpt lat="44.195" lon="5.94175">
        <ele>501.295135</ele>
        <time>2021-05-05T12:23:54Z</time>
      </trkpt>
      <trkpt lat="44.19522" lon="5.94181">
        <ele>499.808807</ele>
        <time>2021-05-05T12:24:00Z</time>
      </trkpt>
      <trkpt lat="44.19523" lon="5.94185">
        <ele>499.312683</ele>
        <time>2021-05-05T12:24:01Z</time>
      </trkpt>
      <trkpt lat="44.19523" lon="5.9419">
        <ele>498.776031</ele>
        <time>2021-05-05T12:24:02Z</time>
      </trkpt>
      <trkpt lat="44.19522" lon="5.94195">
        <ele>498.264252</ele>
        <time>2021-05-05T12:24:03Z</time>
      </trkpt>
      <trkpt lat="44.19521" lon="5.942">
        <ele>497.732544</ele>
        <time>2021-05-05T12:24:04Z</time>
      </trkpt>
      <trkpt lat="44.19519" lon="5.94211">
        <ele>496.630005</ele>
        <time>2021-05-05T12:24:07Z</time>
      </trkpt>
      <trkpt lat="44.19519" lon="5.94215">
        <ele>496.195831</ele>
        <time>2021-05-05T12:24:08Z</time>
      </trkpt>
      <trkpt lat="44.19521" lon="5.94218">
        <ele>495.837128</ele>
        <time>2021-05-05T12:24:09Z</time>
      </trkpt>
      <trkpt lat="44.19523" lon="5.94222">
        <ele>495.567291</ele>
        <time>2021-05-05T12:24:10Z</time>
      </trkpt>
      <trkpt lat="44.19525" lon="5.94225">
        <ele>495.334412</ele>
        <time>2021-05-05T12:24:11Z</time>
      </trkpt>
      <trkpt lat="44.19528" lon="5.94228">
        <ele>495.112793</ele>
        <time>2021-05-05T12:24:12Z</time>
      </trkpt>
      <trkpt lat="44.19532" lon="5.94237">
        <ele>494.553802</ele>
        <time>2021-05-05T12:24:14Z</time>
      </trkpt>
      <trkpt lat="44.19533" lon="5.94242">
        <ele>494.222504</ele>
        <time>2021-05-05T12:24:15Z</time>
      </trkpt>
      <trkpt lat="44.19532" lon="5.94248">
        <ele>493.900513</ele>
        <time>2021-05-05T12:24:16Z</time>
      </trkpt>
      <trkpt lat="44.19529" lon="5.94267">
        <ele>492.783875</ele>
        <time>2021-05-05T12:24:19Z</time>
      </trkpt>
      <trkpt lat="44.19521" lon="5.94296">
        <ele>491.203796</ele>
        <time>2021-05-05T12:24:25Z</time>
      </trkpt>
      <trkpt lat="44.19517" lon="5.943">
        <ele>491.026672</ele>
        <time>2021-05-05T12:24:26Z</time>
      </trkpt>
      <trkpt lat="44.19513" lon="5.94302">
        <ele>490.888428</ele>
        <time>2021-05-05T12:24:27Z</time>
      </trkpt>
      <trkpt lat="44.19488" lon="5.94317">
        <ele>490.116608</ele>
        <time>2021-05-05T12:24:32Z</time>
      </trkpt>
      <trkpt lat="44.19397" lon="5.94377">
        <ele>485.953033</ele>
        <time>2021-05-05T12:24:48Z</time>
      </trkpt>
      <trkpt lat="44.19283" lon="5.94444">
        <ele>485.167999</ele>
        <time>2021-05-05T12:25:05Z</time>
      </trkpt>
      <trkpt lat="44.19251" lon="5.94468">
        <ele>485.167084</ele>
        <time>2021-05-05T12:25:11Z</time>
      </trkpt>
      <trkpt lat="44.19247" lon="5.94473">
        <ele>485.082672</ele>
        <time>2021-05-05T12:25:12Z</time>
      </trkpt>
      <trkpt lat="44.19243" lon="5.94479">
        <ele>484.967041</ele>
        <time>2021-05-05T12:25:13Z</time>
      </trkpt>
      <trkpt lat="44.1924" lon="5.94485">
        <ele>484.837494</ele>
        <time>2021-05-05T12:25:14Z</time>
      </trkpt>
      <trkpt lat="44.19235" lon="5.9449">
        <ele>484.719147</ele>
        <time>2021-05-05T12:25:15Z</time>
      </trkpt>
      <trkpt lat="44.19231" lon="5.94495">
        <ele>484.620209</ele>
        <time>2021-05-05T12:25:16Z</time>
      </trkpt>
      <trkpt lat="44.19227" lon="5.94497">
        <ele>484.548157</ele>
        <time>2021-05-05T12:25:17Z</time>
      </trkpt>
      <trkpt lat="44.19221" lon="5.945">
        <ele>484.447174</ele>
        <time>2021-05-05T12:25:18Z</time>
      </trkpt>
      <trkpt lat="44.19192" lon="5.94517">
        <ele>483.87323</ele>
        <time>2021-05-05T12:25:24Z</time>
      </trkpt>
      <trkpt lat="44.19152" lon="5.94537">
        <ele>483.935242</ele>
        <time>2021-05-05T12:25:32Z</time>
      </trkpt>
      <trkpt lat="44.19147" lon="5.94539">
        <ele>483.986755</ele>
        <time>2021-05-05T12:25:33Z</time>
      </trkpt>
      <trkpt lat="44.19116" lon="5.94556">
        <ele>484.769501</ele>
        <time>2021-05-05T12:25:40Z</time>
      </trkpt>
      <trkpt lat="44.19114" lon="5.9456">
        <ele>484.778564</ele>
        <time>2021-05-05T12:25:41Z</time>
      </trkpt>
      <trkpt lat="44.19113" lon="5.94565">
        <ele>484.739105</ele>
        <time>2021-05-05T12:25:42Z</time>
      </trkpt>
      <trkpt lat="44.19113" lon="5.94572">
        <ele>484.770844</ele>
        <time>2021-05-05T12:25:43Z</time>
      </trkpt>
      <trkpt lat="44.19114" lon="5.94577">
        <ele>484.805786</ele>
        <time>2021-05-05T12:25:44Z</time>
      </trkpt>
      <trkpt lat="44.19114" lon="5.94583">
        <ele>484.869324</ele>
        <time>2021-05-05T12:25:45Z</time>
      </trkpt>
      <trkpt lat="44.19088" lon="5.94603">
        <ele>486.077881</ele>
        <time>2021-05-05T12:25:51Z</time>
      </trkpt>
      <trkpt lat="44.19084" lon="5.94604">
        <ele>486.322479</ele>
        <time>2021-05-05T12:25:52Z</time>
      </trkpt>
      <trkpt lat="44.1908" lon="5.94605">
        <ele>486.508057</ele>
        <time>2021-05-05T12:25:53Z</time>
      </trkpt>
      <trkpt lat="44.19064" lon="5.94612">
        <ele>487.334869</ele>
        <time>2021-05-05T12:26:02Z</time>
      </trkpt>
      <trkpt lat="44.19064" lon="5.94612">
        <ele>487.304504</ele>
        <time>2021-05-05T12:26:22Z</time>
      </trkpt>
      <trkpt lat="44.19065" lon="5.94612">
        <ele>487.305542</ele>
        <time>2021-05-05T12:26:41Z</time>
      </trkpt>
    </trkseg>
  </trk>
</gpx>